[[{"header":{"parameterUnit":"m.s-1","parameterCategory":1,"la1":31.0,"la2":29.5877,"lo1":-88.7671,"lo2":-86.6584,"dy":0.0162,"dx":0.0185,"nx":115,"ny":88,"refTime":"2023-10-06T12:00:00:Z","depth":0,"parameterNumber":2,"parameterNumberName":"U-component_of_WINDS"},"data":[0.0,0.0,0.0,0.0,0.0,0.0,0.0,0.0,0.0,0.0,0.0,0.0,0.0,0.0,0.0,0.0,0.0,0.0,0.0,0.0,0.0,0.0,0.0,0.0,0.0,0.0,0.0,0.0,0.0,0.0,0.0,0.0,0.0,0.0,0.0,0.0,0.0,0.0,0.0,0.0,0.0,0.0,0.0,0.0,0.0,0.0,0.0,0.0,0.0,0.0,0.0,0.0,0.0,0.0,0.0,0.0,0.0,0.0,0.0,0.0,0.0,0.0,0.0,0.0,0.0,0.0,0.0,0.0,0.0,0.0,0.0,0.0,0.0,0.0,0.0,0.0,0.0,0.0,0.0,0.0,0.0,0.0,0.0,0.0,0.0,0.0,0.0,0.0,0.0,0.0,0.0,0.0,0.0,0.0,0.0,0.0,0.0,0.0,0.0,0.0,0.0,0.0,0.0,0.0,0.0,0.0,0.0,0.0,0.0,0.0,0.0,0.0,0.0,0.0,0.0,0.0,0.0,0.0,0.0,0.0,0.0,0.0,0.0,0.0,0.0,0.0,0.0,0.0,0.0,0.0,0.0,0.0,0.0,0.0,0.0,0.0,0.0,0.0,0.0,0.0,0.0,0.0,0.0,0.0,0.0,0.0,0.0,0.0,0.0,0.0,0.0,0.0,0.0,0.0,0.0,0.0,0.0,0.0,0.0,0.0,0.0,0.0,0.0,0.0,0.0,0.0,0.0,0.0,0.0,0.0,0.0,0.0,0.0,0.0,0.0,0.0,0.0,0.0,0.0,0.0,0.0,0.0,0.0,0.0,0.0,0.0,0.0,0.0,0.0,0.0,0.0,0.0,0.0,0.0,0.0,0.0,0.0,0.0,0.0,0.0,0.0,0.0,0.0,0.0,0.0,0.0,0.0,0.0,0.0,0.0,0.0,0.0,0.0,0.0,0.0,0.0,0.0,0.0,0.0,0.0,0.0,0.0,0.0,0.0,0.0,0.0,0.0,0.0,0.0,0.0,0.0,0.0,0.0,0.0,0.0,0.0,0.0,0.0,0.0,0.0,0.0,0.0,0.0,0.0,0.0,0.0,0.0,0.0,0.0,0.0,0.0,0.0,0.0,0.0,0.0,0.0,0.0,0.0,0.0,0.0,0.0,0.0,0.0,0.0,0.0,0.0,0.0,0.0,0.0,0.0,0.0,0.0,0.0,0.0,0.0,0.0,0.0,0.0,0.0,0.0,0.0,0.0,0.0,0.0,0.0,0.0,0.0,0.0,0.0,0.0,0.0,0.0,0.0,0.0,0.0,0.0,0.0,0.0,0.0,0.0,0.0,0.0,0.0,0.0,0.0,0.0,0.0,0.0,0.0,0.0,0.0,0.0,0.0,0.0,0.0,0.0,0.0,0.0,0.0,0.0,0.0,0.0,0.0,0.0,0.0,0.0,0.0,0.0,0.0,0.0,0.0,0.0,0.0,0.0,0.0,0.0,0.0,0.0,0.0,0.0,0.0,0.0,0.0,0.0,0.0,0.0,0.0,0.0,0.0,0.0,0.0,0.0,0.0,0.0,0.0,0.0,0.0,0.0,0.0,0.0,0.0,0.0,0.0,0.0,0.0,0.0,0.0,0.0,0.0,0.0,0.0,0.0,0.0,0.0,0.0,0.0,0.0,0.0,0.0,0.0,0.0,0.0,0.0,0.0,0.0,0.0,0.0,0.0,0.0,0.0,0.0,0.0,0.0,0.0,0.0,0.0,0.0,0.0,0.0,0.0,0.0,0.0,0.0,0.0,0.0,0.0,0.0,0.0,0.0,0.0,0.0,0.0,0.0,0.0,0.0,0.0,0.0,0.0,0.0,0.0,0.0,0.0,0.0,0.0,0.0,0.0,0.0,0.0,0.0,0.0,0.0,0.0,0.0,0.0,0.0,0.0,0.0,0.0,0.0,0.0,0.0,0.0,0.0,0.0,0.0,0.0,0.0,0.0,0.0,0.0,0.0,0.0,0.0,0.0,0.0,0.0,0.0,0.0,0.0,0.0,0.0,0.0,0.0,0.0,0.0,0.0,0.0,0.0,0.0,0.0,0.0,0.0,0.0,0.0,0.0,0.0,0.0,0.0,0.0,0.0,0.0,0.0,0.0,0.0,0.0,0.0,0.0,0.0,0.0,0.0,0.0,0.0,0.0,0.0,0.0,0.0,0.0,0.0,0.0,0.0,0.0,0.0,0.0,0.0,0.0,0.0,0.0,0.0,0.0,0.0,0.0,0.0,0.0,0.0,0.0,0.0,0.0,0.0,0.0,0.0,0.0,0.0,0.0,0.0,0.0,0.0,0.0,0.0,0.0,0.0,0.0,0.0,0.0,0.0,0.0,0.0,0.0,0.0,0.0,0.0,0.0,0.0,0.0,0.0,0.0,0.0,0.0,0.0,0.0,0.0,0.0,0.0,0.0,0.0,0.0,0.0,0.0,0.0,0.0,0.0,0.0,0.0,0.0,0.0,0.0,0.0,0.0,0.0,0.0,0.0,0.0,0.0,0.0,0.0,0.0,0.0,0.0,0.0,0.0,0.0,0.0,0.0,0.0,0.0,0.0,0.0,0.0,0.0,0.0,0.0,0.0,0.0,0.0,0.0,0.0,0.0,0.0,0.0,0.0,0.0,0.0,0.0,0.0,0.0,0.0,0.0,0.0,0.0,0.0,0.0,0.0,0.0,0.0,0.0,0.0,0.0,0.0,0.0,0.0,0.0,0.0,0.0,0.0,0.0,0.0,0.0,0.0,0.0,0.0,0.0,0.0,0.0,0.0,0.0,0.0,0.0,0.0,0.0,0.0,0.0,0.0,0.0,0.0,0.0,0.0,0.0,0.0,0.0,0.0,0.0,0.0,0.0,0.0,0.0,0.0,0.0,0.0,0.0,0.0,0.0,0.0,0.0,0.0,0.0,0.0,0.0,0.0,0.0,0.0,0.0,0.0,0.0,0.0,0.0,0.0,0.0,0.0,0.0,0.0,0.0,0.0,0.0,0.0,0.0,0.0,0.0,0.0,0.0,0.0,0.0,0.0,0.0,0.0,0.0,0.0,0.0,0.0,0.0,0.0,0.0,0.0,0.0,0.0,0.0,0.0,0.0,0.0,0.0,0.0,0.0,0.0,0.0,0.0,0.0,0.0,0.0,0.0,0.0,0.0,0.0,0.0,0.0,0.0,0.0,0.0,0.0,0.0,0.0,0.0,0.0,0.0,0.0,0.0,0.0,0.0,0.0,0.0,0.0,0.0,0.0,0.0,0.0,0.0,0.0,0.0,0.0,0.0,0.0,0.0,0.0,0.0,0.0,0.0,0.0,0.0,0.0,0.0,0.0,0.0,0.0,0.0,0.0,0.0,0.0,0.0,0.0,0.0,0.0,0.0,0.0,0.0,0.0,0.0,0.0,0.0,0.0,0.0,0.0,0.0,0.0,0.0,0.0,0.0,0.0,0.0,0.0,0.0,0.0,0.0,0.0,0.0,0.0,0.0,0.0,0.0,0.0,0.0,0.0,0.0,0.0,0.0,0.0,0.0,0.0,0.0,0.0,0.0,0.0,0.0,0.0,0.0,0.0,0.0,0.0,0.0,0.0,0.0,0.0,0.0,0.0,0.0,0.0,0.0,0.0,0.0,0.0,0.0,0.0,0.0,0.0,0.0,0.0,0.0,0.0,0.0,0.0,0.0,0.0,0.0,0.0,0.0,0.0,0.0,0.0,0.0,0.0,0.0,0.0,0.0,0.0,0.0,0.0,0.0,0.0,0.0,0.0,0.0,0.0,0.0,0.0,0.0,0.0,0.0,0.0,0.0,0.0,0.0,0.0,0.0,0.0,0.0,0.0,0.0,0.0,0.0,0.0,0.0,0.0,0.0,0.0,0.0,0.0,0.0,0.0,0.0,0.0,0.0,0.0,0.0,0.0,0.0,0.0,0.0,0.0,0.0,0.0,0.0,0.0,0.0,0.0,0.0,0.0,0.0,0.0,0.0,0.0,0.0,0.0,0.0,0.0,0.0,0.0,0.0,0.0,0.0,0.0,0.0,0.0,0.0,0.0,0.0,0.0,0.0,0.0,0.0,0.0,0.0,0.0,0.0,0.0,0.0,0.0,0.0,0.0,0.0,0.0,0.0,0.0,0.0,0.0,0.0,0.0,0.0,0.0,0.0,0.0,0.0,0.0,0.0,0.0,0.0,0.0,0.0,0.0,0.0,0.0,0.0,0.0,0.0,0.0,0.0,0.0,0.0,0.0,0.0,0.0,-3.0244,0.0,0.0,0.0,0.0,0.0,0.0,0.0,0.0,0.0,0.0,0.0,0.0,0.0,0.0,0.0,0.0,0.0,0.0,0.0,0.0,0.0,0.0,0.0,0.0,0.0,0.0,0.0,0.0,0.0,0.0,0.0,0.0,0.0,0.0,0.0,0.0,0.0,0.0,0.0,0.0,0.0,0.0,0.0,0.0,0.0,0.0,0.0,0.0,0.0,0.0,0.0,0.0,0.0,0.0,0.0,0.0,0.0,0.0,0.0,0.0,0.0,0.0,0.0,0.0,0.0,0.0,0.0,0.0,0.0,0.0,0.0,0.0,0.0,0.0,0.0,0.0,0.0,0.0,0.0,0.0,0.0,0.0,0.0,0.0,0.0,0.0,0.0,0.0,0.0,0.0,0.0,0.0,0.0,0.0,0.0,0.0,0.0,0.0,0.0,0.0,0.0,0.0,0.0,0.0,0.0,0.0,0.0,0.0,0.0,0.0,-3.2013,-3.1982,-3.1052,-3.0537,-3.0521,0.0,0.0,0.0,0.0,0.0,0.0,0.0,0.0,0.0,0.0,0.0,0.0,0.0,0.0,0.0,0.0,0.0,0.0,0.0,0.0,0.0,0.0,0.0,0.0,0.0,0.0,0.0,0.0,0.0,0.0,0.0,0.0,0.0,0.0,0.0,0.0,0.0,0.0,0.0,0.0,0.0,0.0,0.0,0.0,0.0,0.0,0.0,0.0,0.0,0.0,0.0,0.0,0.0,0.0,0.0,0.0,0.0,0.0,0.0,0.0,0.0,0.0,0.0,0.0,0.0,0.0,0.0,0.0,0.0,0.0,0.0,0.0,0.0,0.0,0.0,0.0,0.0,0.0,0.0,0.0,0.0,0.0,0.0,0.0,0.0,0.0,0.0,0.0,0.0,0.0,0.0,0.0,0.0,0.0,0.0,0.0,0.0,0.0,0.0,0.0,0.0,0.0,0.0,0.0,0.0,0.0,0.0,0.0,0.0,0.0,0.0,0.0,-3.1628,-3.0885,-3.0573,0.0,0.0,0.0,0.0,0.0,0.0,0.0,0.0,0.0,0.0,0.0,0.0,0.0,0.0,0.0,0.0,0.0,0.0,0.0,0.0,0.0,0.0,0.0,0.0,0.0,0.0,0.0,0.0,0.0,0.0,0.0,0.0,0.0,0.0,0.0,0.0,0.0,0.0,0.0,0.0,0.0,0.0,0.0,0.0,0.0,0.0,0.0,0.0,0.0,0.0,0.0,0.0,0.0,0.0,0.0,0.0,0.0,0.0,0.0,0.0,0.0,0.0,0.0,0.0,0.0,0.0,0.0,0.0,0.0,0.0,0.0,0.0,0.0,0.0,0.0,0.0,0.0,0.0,0.0,0.0,0.0,0.0,0.0,0.0,0.0,0.0,0.0,0.0,0.0,0.0,0.0,0.0,0.0,0.0,0.0,0.0,0.0,0.0,0.0,0.0,0.0,0.0,0.0,0.0,0.0,0.0,0.0,0.0,0.0,0.0,-3.2648,-3.2633,-3.2011,0.0,-3.0008,0.0,0.0,0.0,0.0,0.0,0.0,0.0,0.0,0.0,0.0,0.0,0.0,0.0,0.0,0.0,0.0,0.0,0.0,0.0,0.0,0.0,0.0,0.0,0.0,0.0,0.0,0.0,0.0,0.0,0.0,0.0,0.0,0.0,0.0,0.0,0.0,0.0,0.0,0.0,0.0,0.0,0.0,0.0,0.0,0.0,0.0,0.0,0.0,0.0,0.0,0.0,0.0,0.0,0.0,0.0,0.0,0.0,0.0,0.0,0.0,0.0,0.0,0.0,0.0,0.0,0.0,0.0,0.0,0.0,0.0,0.0,0.0,0.0,0.0,0.0,0.0,0.0,0.0,0.0,0.0,0.0,0.0,0.0,0.0,0.0,0.0,0.0,0.0,0.0,0.0,0.0,0.0,0.0,0.0,0.0,0.0,0.0,0.0,0.0,0.0,0.0,0.0,0.0,0.0,0.0,0.0,0.0,0.0,0.0,0.0,-3.2453,-3.2468,-3.1489,-3.0536,0.0,0.0,0.0,0.0,0.0,0.0,0.0,0.0,0.0,0.0,0.0,0.0,0.0,0.0,0.0,0.0,0.0,0.0,0.0,0.0,0.0,0.0,0.0,0.0,0.0,0.0,0.0,0.0,0.0,0.0,0.0,0.0,0.0,0.0,0.0,0.0,0.0,0.0,0.0,0.0,0.0,0.0,0.0,0.0,0.0,0.0,0.0,0.0,0.0,0.0,0.0,0.0,0.0,0.0,0.0,0.0,0.0,0.0,0.0,0.0,0.0,0.0,0.0,0.0,0.0,0.0,0.0,0.0,0.0,0.0,0.0,0.0,0.0,0.0,0.0,0.0,0.0,0.0,0.0,0.0,0.0,0.0,0.0,0.0,0.0,0.0,0.0,0.0,0.0,0.0,0.0,0.0,0.0,0.0,0.0,0.0,0.0,0.0,0.0,0.0,0.0,0.0,0.0,0.0,0.0,0.0,0.0,0.0,0.0,0.0,-3.2213,-3.2198,-3.2336,-3.1459,-3.0566,-2.9735,0.0,0.0,0.0,0.0,0.0,0.0,0.0,0.0,0.0,0.0,0.0,0.0,0.0,0.0,0.0,0.0,0.0,0.0,0.0,0.0,0.0,0.0,0.0,0.0,0.0,0.0,0.0,0.0,0.0,0.0,0.0,0.0,0.0,0.0,0.0,0.0,0.0,0.0,0.0,0.0,0.0,0.0,0.0,0.0,0.0,0.0,0.0,0.0,0.0,0.0,0.0,0.0,0.0,0.0,0.0,0.0,0.0,0.0,0.0,0.0,0.0,0.0,0.0,0.0,0.0,0.0,0.0,0.0,0.0,0.0,0.0,0.0,0.0,0.0,0.0,0.0,0.0,0.0,0.0,0.0,0.0,0.0,0.0,0.0,0.0,0.0,0.0,0.0,0.0,0.0,0.0,0.0,0.0,0.0,0.0,0.0,0.0,0.0,0.0,0.0,0.0,0.0,0.0,0.0,0.0,0.0,0.0,0.0,-3.2336,-3.1767,-3.1736,-3.2367,-3.2321,-3.169,0.0,0.0,0.0,0.0,0.0,0.0,0.0,0.0,0.0,0.0,0.0,0.0,0.0,0.0,0.0,0.0,0.0,0.0,0.0,0.0,0.0,0.0,0.0,0.0,0.0,0.0,0.0,0.0,0.0,0.0,0.0,0.0,0.0,0.0,0.0,0.0,0.0,0.0,0.0,0.0,0.0,0.0,0.0,0.0,0.0,0.0,0.0,0.0,0.0,0.0,0.0,0.0,0.0,0.0,0.0,0.0,0.0,0.0,0.0,0.0,0.0,0.0,0.0,0.0,0.0,0.0,0.0,0.0,0.0,0.0,0.0,0.0,0.0,0.0,0.0,0.0,0.0,0.0,0.0,0.0,0.0,0.0,0.0,0.0,0.0,0.0,0.0,0.0,0.0,0.0,0.0,0.0,0.0,0.0,0.0,0.0,0.0,0.0,0.0,0.0,0.0,0.0,0.0,0.0,0.0,0.0,0.0,0.0,0.0,-3.1172,-3.0582,-3.0535,-3.1101,-3.0359,-2.9763,0.0,0.0,0.0,0.0,0.0,0.0,0.0,0.0,0.0,0.0,0.0,0.0,0.0,0.0,0.0,0.0,0.0,0.0,0.0,0.0,0.0,0.0,0.0,0.0,0.0,0.0,0.0,0.0,0.0,0.0,0.0,0.0,0.0,0.0,0.0,0.0,0.0,0.0,0.0,0.0,0.0,0.0,0.0,0.0,0.0,0.0,0.0,0.0,0.0,0.0,0.0,0.0,0.0,0.0,0.0,0.0,0.0,0.0,0.0,0.0,0.0,0.0,0.0,0.0,0.0,0.0,0.0,0.0,0.0,0.0,0.0,0.0,0.0,0.0,0.0,0.0,0.0,0.0,0.0,0.0,0.0,0.0,0.0,0.0,0.0,0.0,0.0,0.0,0.0,0.0,0.0,0.0,0.0,0.0,0.0,0.0,0.0,0.0,0.0,0.0,0.0,0.0,0.0,0.0,0.0,0.0,0.0,0.0,0.0,-3.0211,0.0,-3.0207,-3.0147,-2.9377,-2.8724,0.0,0.0,0.0,0.0,0.0,0.0,0.0,0.0,0.0,0.0,0.0,0.0,0.0,0.0,0.0,0.0,0.0,0.0,0.0,0.0,0.0,0.0,0.0,0.0,0.0,0.0,0.0,0.0,0.0,0.0,0.0,0.0,0.0,0.0,0.0,0.0,0.0,0.0,0.0,0.0,0.0,0.0,0.0,0.0,0.0,0.0,0.0,0.0,0.0,0.0,0.0,0.0,0.0,0.0,0.0,0.0,0.0,0.0,0.0,0.0,0.0,0.0,0.0,0.0,0.0,0.0,0.0,0.0,0.0,0.0,0.0,0.0,0.0,0.0,0.0,0.0,0.0,0.0,0.0,0.0,0.0,0.0,0.0,0.0,0.0,0.0,0.0,0.0,0.0,0.0,0.0,0.0,0.0,0.0,0.0,0.0,0.0,0.0,0.0,0.0,0.0,0.0,0.0,0.0,0.0,0.0,0.0,0.0,-2.9493,-2.9537,-3.0689,-3.0703,-2.9639,-2.9508,-2.8913,0.0,0.0,0.0,0.0,0.0,0.0,0.0,0.0,0.0,0.0,0.0,0.0,0.0,0.0,0.0,0.0,0.0,0.0,0.0,0.0,0.0,0.0,0.0,0.0,0.0,0.0,0.0,0.0,0.0,0.0,0.0,0.0,0.0,0.0,0.0,0.0,0.0,0.0,0.0,0.0,0.0,0.0,0.0,0.0,0.0,0.0,0.0,0.0,0.0,0.0,0.0,0.0,0.0,0.0,0.0,0.0,0.0,0.0,0.0,0.0,0.0,0.0,0.0,0.0,0.0,0.0,0.0,0.0,0.0,0.0,0.0,0.0,0.0,0.0,0.0,0.0,0.0,0.0,0.0,0.0,0.0,0.0,0.0,0.0,0.0,0.0,0.0,0.0,0.0,0.0,0.0,0.0,0.0,0.0,0.0,0.0,0.0,0.0,0.0,0.0,0.0,0.0,0.0,0.0,0.0,0.0,0.0,0.0,0.0,-2.8283,-2.8647,-2.8918,-2.8851,-2.8088,-2.7478,0.0,0.0,0.0,0.0,0.0,0.0,0.0,0.0,0.0,0.0,0.0,0.0,0.0,0.0,0.0,0.0,0.0,0.0,0.0,0.0,0.0,0.0,0.0,0.0,0.0,0.0,0.0,0.0,0.0,0.0,0.0,0.0,0.0,0.0,0.0,0.0,0.0,0.0,0.0,0.0,0.0,0.0,0.0,0.0,0.0,0.0,0.0,0.0,0.0,0.0,0.0,0.0,0.0,0.0,0.0,0.0,0.0,0.0,0.0,0.0,0.0,0.0,0.0,0.0,0.0,0.0,0.0,0.0,0.0,0.0,0.0,0.0,0.0,0.0,0.0,0.0,0.0,0.0,0.0,0.0,0.0,0.0,0.0,0.0,0.0,0.0,0.0,0.0,0.0,0.0,0.0,0.0,0.0,0.0,0.0,0.0,0.0,0.0,0.0,0.0,0.0,0.0,0.0,0.0,0.0,0.0,0.0,0.0,0.0,-2.7877,-2.8193,-2.8324,-2.817,-2.7263,-2.6654,-2.6424,0.0,0.0,0.0,0.0,0.0,0.0,0.0,0.0,0.0,0.0,0.0,0.0,0.0,0.0,0.0,0.0,0.0,0.0,0.0,0.0,0.0,0.0,0.0,0.0,0.0,0.0,0.0,0.0,0.0,0.0,0.0,0.0,0.0,0.0,0.0,0.0,0.0,0.0,0.0,0.0,0.0,0.0,0.0,0.0,0.0,0.0,0.0,0.0,0.0,0.0,0.0,0.0,0.0,0.0,0.0,0.0,0.0,0.0,0.0,0.0,0.0,0.0,0.0,0.0,0.0,0.0,0.0,0.0,0.0,0.0,0.0,0.0,0.0,0.0,0.0,0.0,0.0,0.0,0.0,0.0,0.0,0.0,0.0,0.0,0.0,0.0,0.0,0.0,0.0,0.0,0.0,0.0,0.0,0.0,0.0,0.0,0.0,0.0,0.0,0.0,0.0,0.0,0.0,0.0,0.0,0.0,0.0,0.0,-2.8066,-2.8967,-2.8754,-2.7494,-2.7026,-2.6431,0.0,0.0,0.0,0.0,0.0,0.0,0.0,0.0,0.0,0.0,0.0,0.0,0.0,0.0,0.0,0.0,0.0,0.0,0.0,0.0,0.0,0.0,0.0,0.0,0.0,0.0,0.0,0.0,0.0,0.0,0.0,0.0,0.0,0.0,0.0,0.0,0.0,0.0,0.0,0.0,0.0,0.0,0.0,0.0,0.0,0.0,0.0,0.0,0.0,0.0,0.0,0.0,0.0,0.0,0.0,0.0,0.0,0.0,0.0,0.0,0.0,0.0,0.0,0.0,0.0,0.0,0.0,0.0,0.0,0.0,0.0,0.0,0.0,0.0,0.0,0.0,0.0,0.0,0.0,0.0,0.0,0.0,0.0,0.0,0.0,0.0,0.0,0.0,0.0,0.0,0.0,0.0,0.0,0.0,0.0,0.0,0.0,0.0,0.0,0.0,0.0,0.0,0.0,0.0,0.0,0.0,0.0,0.0,0.0,-2.7894,-2.8249,-2.8312,-2.7891,-2.6979,-2.6363,0.0,0.0,0.0,0.0,0.0,0.0,0.0,0.0,0.0,0.0,0.0,0.0,0.0,0.0,0.0,0.0,0.0,0.0,0.0,0.0,0.0,0.0,0.0,0.0,0.0,0.0,0.0,0.0,0.0,0.0,0.0,0.0,0.0,0.0,0.0,0.0,0.0,0.0,0.0,0.0,0.0,0.0,0.0,0.0,0.0,0.0,0.0,0.0,0.0,0.0,0.0,0.0,0.0,0.0,0.0,0.0,0.0,0.0,0.0,0.0,0.0,0.0,0.0,0.0,0.0,0.0,0.0,0.0,0.0,0.0,0.0,0.0,0.0,0.0,0.0,0.0,0.0,0.0,0.0,0.0,0.0,0.0,0.0,0.0,0.0,0.0,0.0,0.0,0.0,0.0,0.0,0.0,0.0,0.0,0.0,0.0,0.0,0.0,0.0,0.0,0.0,0.0,0.0,0.0,0.0,0.0,0.0,0.0,-2.738,-2.7656,-2.7802,-2.7868,-2.7868,-2.711,-2.6498,0.0,0.0,0.0,0.0,0.0,0.0,0.0,0.0,0.0,0.0,0.0,0.0,0.0,0.0,0.0,0.0,0.0,0.0,0.0,0.0,0.0,0.0,0.0,0.0,0.0,0.0,0.0,0.0,0.0,0.0,0.0,0.0,0.0,0.0,0.0,0.0,0.0,0.0,0.0,0.0,0.0,0.0,0.0,0.0,0.0,0.0,0.0,0.0,0.0,0.0,0.0,0.0,0.0,0.0,0.0,0.0,0.0,0.0,0.0,0.0,0.0,0.0,0.0,0.0,0.0,0.0,0.0,0.0,0.0,0.0,0.0,0.0,0.0,0.0,0.0,0.0,0.0,0.0,0.0,0.0,0.0,0.0,0.0,0.0,0.0,0.0,0.0,0.0,0.0,0.0,0.0,0.0,0.0,0.0,0.0,0.0,0.0,0.0,0.0,0.0,0.0,0.0,0.0,0.0,0.0,0.0,0.0,0.0,-2.7657,-2.7523,-2.7469,-2.7469,-2.751,-2.7248,-2.6807,0.0,0.0,0.0,0.0,0.0,0.0,0.0,0.0,0.0,0.0,0.0,0.0,0.0,0.0,0.0,0.0,0.0,0.0,0.0,0.0,0.0,0.0,0.0,0.0,0.0,0.0,0.0,0.0,0.0,0.0,0.0,0.0,0.0,0.0,0.0,0.0,0.0,0.0,0.0,0.0,0.0,0.0,0.0,0.0,0.0,0.0,0.0,0.0,0.0,0.0,0.0,0.0,0.0,0.0,0.0,0.0,0.0,0.0,0.0,0.0,0.0,0.0,0.0,0.0,0.0,0.0,0.0,0.0,0.0,0.0,0.0,0.0,0.0,0.0,0.0,0.0,0.0,0.0,0.0,0.0,0.0,0.0,0.0,0.0,0.0,0.0,0.0,0.0,0.0,0.0,0.0,0.0,0.0,0.0,0.0,0.0,0.0,0.0,0.0,0.0,0.0,0.0,0.0,0.0,0.0,0.0,0.0,0.0,-2.7144,-2.7523,-2.7469,-2.7469,-2.7469,-2.7053,-2.654,0.0,0.0,0.0,0.0,0.0,0.0,0.0,0.0,0.0,0.0,0.0,0.0,0.0,0.0,0.0,0.0,0.0,0.0,0.0,0.0,0.0,0.0,0.0,0.0,0.0,0.0,0.0,0.0,0.0,0.0,0.0,0.0,0.0,0.0,0.0,0.0,0.0,0.0,0.0,0.0,0.0,0.0,0.0,0.0,0.0,0.0,0.0,0.0,-2.0723,0.0,0.0,0.0,0.0,0.0,0.0,0.0,0.0,0.0,0.0,0.0,0.0,0.0,0.0,0.0,0.0,0.0,0.0,0.0,0.0,0.0,0.0,0.0,0.0,0.0,0.0,0.0,0.0,0.0,0.0,0.0,0.0,0.0,0.0,0.0,0.0,0.0,0.0,0.0,0.0,0.0,0.0,0.0,0.0,0.0,0.0,0.0,0.0,0.0,0.0,0.0,0.0,0.0,0.0,0.0,0.0,0.0,0.0,0.0,-2.6961,-2.751,-2.7469,-2.7469,-2.7456,-2.7236,-2.6674,0.0,0.0,0.0,0.0,0.0,0.0,0.0,0.0,0.0,0.0,0.0,0.0,0.0,0.0,0.0,0.0,0.0,0.0,0.0,0.0,0.0,0.0,0.0,0.0,0.0,0.0,0.0,0.0,0.0,0.0,0.0,0.0,0.0,0.0,0.0,0.0,0.0,0.0,0.0,0.0,0.0,0.0,0.0,0.0,0.0,0.0,0.0,0.0,0.0,0.0,0.0,0.0,0.0,0.0,0.0,0.0,0.0,0.0,0.0,0.0,0.0,0.0,0.0,0.0,0.0,0.0,0.0,0.0,0.0,0.0,0.0,0.0,0.0,0.0,0.0,0.0,0.0,0.0,0.0,0.0,0.0,0.0,0.0,0.0,0.0,0.0,0.0,0.0,0.0,0.0,0.0,0.0,0.0,0.0,0.0,0.0,0.0,0.0,0.0,0.0,0.0,0.0,0.0,0.0,0.0,0.0,0.0,-2.6961,-2.6948,-2.743,-2.7469,-2.7469,-2.7469,-2.7469,-2.6987,-2.5876,0.0,0.0,0.0,0.0,0.0,0.0,0.0,0.0,0.0,0.0,0.0,0.0,0.0,0.0,0.0,0.0,0.0,0.0,0.0,0.0,0.0,0.0,0.0,0.0,0.0,0.0,0.0,0.0,0.0,0.0,0.0,0.0,0.0,0.0,0.0,0.0,0.0,0.0,-1.9364,-1.9845,0.0,0.0,0.0,0.0,0.0,0.0,0.0,0.0,-2.0764,0.0,0.0,0.0,0.0,0.0,0.0,0.0,0.0,0.0,0.0,0.0,0.0,0.0,0.0,0.0,0.0,0.0,0.0,0.0,0.0,0.0,0.0,0.0,0.0,0.0,0.0,0.0,0.0,0.0,0.0,0.0,0.0,0.0,0.0,0.0,0.0,0.0,0.0,0.0,0.0,0.0,0.0,0.0,0.0,0.0,0.0,0.0,0.0,0.0,0.0,0.0,0.0,0.0,0.0,0.0,0.0,-2.7443,-2.6961,-2.6948,-2.751,-2.7469,-2.7469,-2.7469,-2.7469,-2.6987,-2.5903,0.0,0.0,0.0,0.0,0.0,0.0,0.0,0.0,0.0,0.0,0.0,0.0,0.0,0.0,0.0,0.0,0.0,0.0,0.0,0.0,0.0,0.0,0.0,0.0,0.0,0.0,0.0,0.0,0.0,0.0,0.0,0.0,0.0,0.0,0.0,0.0,0.0,0.0,0.0,-1.977,-2.0085,0.0,0.0,0.0,0.0,0.0,0.0,0.0,0.0,-2.0366,0.0,0.0,0.0,0.0,0.0,0.0,0.0,0.0,0.0,0.0,0.0,0.0,0.0,0.0,0.0,0.0,0.0,0.0,0.0,0.0,0.0,0.0,0.0,0.0,0.0,0.0,0.0,0.0,0.0,0.0,0.0,0.0,0.0,0.0,0.0,0.0,0.0,0.0,0.0,0.0,0.0,0.0,0.0,0.0,0.0,0.0,0.0,0.0,0.0,0.0,0.0,0.0,0.0,0.0,0.0,-2.7379,-2.6674,-2.6661,-2.7497,-2.7469,-2.7469,-2.7523,-2.7236,-2.67,0.0,0.0,0.0,0.0,0.0,0.0,0.0,0.0,0.0,0.0,0.0,0.0,0.0,0.0,0.0,0.0,0.0,0.0,0.0,0.0,0.0,0.0,0.0,0.0,0.0,0.0,0.0,0.0,0.0,0.0,0.0,0.0,0.0,0.0,0.0,0.0,0.0,0.0,0.0,0.0,-1.9779,-1.9727,-1.9694,0.0,0.0,0.0,0.0,0.0,0.0,-1.9781,-1.9431,0.0,0.0,0.0,0.0,0.0,0.0,0.0,0.0,0.0,0.0,0.0,0.0,0.0,0.0,0.0,0.0,0.0,0.0,0.0,0.0,0.0,0.0,0.0,0.0,0.0,0.0,0.0,0.0,0.0,0.0,0.0,0.0,0.0,0.0,0.0,0.0,0.0,0.0,0.0,0.0,0.0,0.0,0.0,0.0,0.0,0.0,0.0,0.0,0.0,0.0,0.0,0.0,0.0,0.0,0.0,-2.7419,-2.6634,-2.6556,-2.7327,-2.7471,-2.7419,-2.7196,-2.6857,-2.6347,0.0,0.0,0.0,0.0,0.0,0.0,0.0,0.0,0.0,0.0,0.0,0.0,0.0,0.0,0.0,0.0,0.0,0.0,0.0,0.0,0.0,0.0,0.0,0.0,0.0,0.0,0.0,0.0,0.0,0.0,0.0,0.0,0.0,0.0,0.0,0.0,0.0,0.0,0.0,0.0,0.0,-1.9297,-1.918,-1.92,0.0,0.0,0.0,0.0,-1.9736,-1.9054,0.0,0.0,0.0,0.0,0.0,0.0,0.0,0.0,0.0,0.0,0.0,0.0,0.0,0.0,0.0,0.0,0.0,0.0,0.0,0.0,0.0,0.0,0.0,0.0,0.0,0.0,0.0,0.0,0.0,0.0,0.0,0.0,0.0,0.0,0.0,0.0,0.0,0.0,0.0,0.0,0.0,0.0,0.0,0.0,0.0,0.0,0.0,0.0,0.0,0.0,0.0,0.0,0.0,0.0,0.0,0.0,-2.7458,-2.7339,-2.7157,-2.6817,-2.7262,-2.704,-2.6059,-2.6438,-2.6164,0.0,0.0,0.0,0.0,0.0,0.0,0.0,0.0,0.0,0.0,0.0,0.0,0.0,0.0,0.0,0.0,0.0,0.0,0.0,0.0,0.0,0.0,0.0,0.0,0.0,0.0,0.0,0.0,0.0,0.0,0.0,0.0,0.0,0.0,0.0,0.0,0.0,0.0,0.0,0.0,0.0,-1.917,-1.889,-1.8726,-1.8516,0.0,0.0,-1.8633,-1.871,-1.8576,0.0,0.0,0.0,0.0,0.0,0.0,0.0,0.0,0.0,0.0,0.0,0.0,0.0,0.0,0.0,0.0,0.0,0.0,0.0,0.0,0.0,0.0,0.0,0.0,0.0,0.0,0.0,0.0,0.0,0.0,0.0,0.0,0.0,0.0,0.0,0.0,0.0,0.0,0.0,0.0,0.0,0.0,0.0,0.0,0.0,0.0,0.0,0.0,0.0,0.0,0.0,0.0,0.0,0.0,0.0,-2.567,-2.7419,-2.6569,-2.6269,-2.6661,-2.6595,-2.6321,-2.5837,-2.5746,-2.5533,0.0,0.0,0.0,0.0,0.0,0.0,0.0,0.0,0.0,0.0,0.0,0.0,0.0,0.0,0.0,0.0,0.0,0.0,0.0,0.0,0.0,0.0,0.0,0.0,0.0,0.0,0.0,0.0,0.0,0.0,0.0,0.0,0.0,0.0,0.0,0.0,0.0,0.0,0.0,0.0,0.0,0.0,-1.8946,-1.8288,0.0,0.0,0.0,-1.824,-1.8787,0.0,0.0,0.0,0.0,0.0,0.0,0.0,0.0,0.0,0.0,0.0,0.0,0.0,0.0,0.0,0.0,0.0,0.0,0.0,0.0,0.0,0.0,0.0,0.0,0.0,0.0,0.0,0.0,0.0,0.0,0.0,0.0,0.0,0.0,0.0,0.0,0.0,0.0,0.0,0.0,0.0,0.0,0.0,0.0,0.0,0.0,0.0,0.0,0.0,0.0,0.0,0.0,0.0,0.0,0.0,0.0,0.0,-2.7445,-2.5968,-2.5589,-2.6425,-2.6033,-2.5694,-2.5406,-2.5058,0.0,0.0,0.0,0.0,0.0,0.0,0.0,0.0,0.0,0.0,0.0,0.0,0.0,0.0,0.0,0.0,0.0,0.0,0.0,0.0,0.0,0.0,0.0,0.0,0.0,0.0,0.0,-1.6431,0.0,0.0,0.0,0.0,0.0,0.0,0.0,0.0,0.0,0.0,0.0,0.0,0.0,0.0,-1.8107,-1.8526,-1.7609,-1.7121,0.0,0.0,-1.7491,-1.8172,-1.7364,-1.6682,0.0,0.0,0.0,0.0,0.0,0.0,0.0,0.0,0.0,0.0,0.0,0.0,0.0,0.0,0.0,0.0,0.0,0.0,0.0,0.0,0.0,0.0,0.0,0.0,0.0,0.0,0.0,0.0,0.0,0.0,0.0,0.0,0.0,0.0,0.0,0.0,0.0,0.0,0.0,0.0,0.0,0.0,0.0,0.0,0.0,0.0,0.0,0.0,0.0,0.0,0.0,0.0,0.0,0.0,0.0,-2.7419,-2.636,-2.5785,-2.5876,-2.5837,-2.5315,-2.4282,-2.4567,-2.446,0.0,0.0,0.0,0.0,0.0,0.0,0.0,0.0,0.0,0.0,0.0,0.0,0.0,0.0,0.0,0.0,0.0,0.0,0.0,0.0,0.0,0.0,0.0,0.0,0.0,0.0,0.0,0.0,0.0,0.0,0.0,0.0,0.0,0.0,0.0,0.0,0.0,0.0,0.0,0.0,0.0,-1.759,-1.7248,-1.648,-1.5799,0.0,0.0,-1.5974,-1.6044,-1.5965,-1.5903,-1.5903,0.0,0.0,0.0,0.0,0.0,0.0,0.0,0.0,0.0,0.0,0.0,0.0,0.0,0.0,0.0,0.0,0.0,0.0,0.0,0.0,0.0,0.0,0.0,0.0,0.0,0.0,0.0,0.0,0.0,0.0,0.0,0.0,0.0,0.0,0.0,0.0,0.0,0.0,0.0,0.0,0.0,0.0,0.0,0.0,0.0,0.0,0.0,0.0,0.0,0.0,0.0,0.0,0.0,-2.5335,-2.7458,-2.5582,-2.4935,-2.5647,-2.5023,-2.4377,-2.3819,-2.3953,-2.3906,0.0,0.0,0.0,0.0,0.0,0.0,0.0,0.0,0.0,0.0,0.0,0.0,0.0,0.0,0.0,0.0,0.0,0.0,0.0,0.0,0.0,0.0,0.0,0.0,0.0,0.0,0.0,0.0,-1.6374,-1.6487,-1.6757,0.0,0.0,0.0,0.0,0.0,0.0,0.0,0.0,0.0,0.0,-1.7257,-1.7101,-1.6158,0.0,0.0,-1.5965,-1.5895,-1.6097,-1.5974,-1.5692,-1.548,-1.5621,0.0,0.0,0.0,0.0,0.0,0.0,0.0,0.0,0.0,0.0,0.0,0.0,0.0,0.0,0.0,0.0,0.0,0.0,0.0,0.0,0.0,0.0,0.0,0.0,0.0,0.0,0.0,0.0,0.0,0.0,0.0,0.0,0.0,0.0,0.0,0.0,0.0,0.0,0.0,0.0,0.0,0.0,0.0,0.0,0.0,0.0,0.0,0.0,0.0,0.0,0.0,0.0,-2.5003,-2.7297,-2.5042,-2.4374,-2.5484,-2.44,-2.376,-2.3628,-2.3569,-2.3522,0.0,0.0,0.0,0.0,0.0,0.0,0.0,0.0,0.0,0.0,0.0,0.0,0.0,0.0,0.0,0.0,0.0,0.0,0.0,0.0,0.0,0.0,0.0,0.0,0.0,0.0,0.0,0.0,-1.6374,-1.6508,-1.6808,0.0,0.0,0.0,0.0,0.0,0.0,0.0,0.0,0.0,0.0,-1.6706,-1.6697,-1.5745,-1.5267,-1.6097,-1.5762,-1.5542,-1.5754,-1.5613,-1.5346,-1.5062,0.0,0.0,0.0,0.0,0.0,0.0,0.0,0.0,0.0,0.0,0.0,0.0,0.0,0.0,0.0,0.0,0.0,0.0,0.0,0.0,0.0,0.0,0.0,0.0,0.0,0.0,0.0,0.0,0.0,0.0,-2.7565,0.0,0.0,0.0,0.0,0.0,0.0,0.0,0.0,0.0,0.0,0.0,0.0,0.0,0.0,0.0,0.0,0.0,0.0,0.0,0.0,0.0,0.0,-2.4955,-2.6934,-2.4782,-2.4166,-2.523,-2.4205,-2.3569,-2.3569,-2.345,-2.3403,-2.3403,0.0,0.0,0.0,0.0,0.0,0.0,0.0,0.0,0.0,0.0,0.0,0.0,0.0,0.0,0.0,0.0,0.0,0.0,0.0,0.0,0.0,0.0,0.0,0.0,0.0,0.0,-1.6374,-1.6374,-1.6384,0.0,0.0,0.0,0.0,0.0,0.0,0.0,0.0,0.0,0.0,-1.6733,-1.5824,-1.5833,-1.5133,-1.4633,-1.4705,-1.4641,-1.4633,-1.4633,-1.4641,-1.4641,0.0,0.0,0.0,0.0,0.0,0.0,0.0,0.0,0.0,0.0,0.0,0.0,0.0,0.0,0.0,0.0,0.0,0.0,0.0,0.0,0.0,0.0,0.0,0.0,0.0,0.0,0.0,-2.8411,-2.8411,0.0,0.0,0.0,0.0,0.0,0.0,0.0,0.0,0.0,0.0,0.0,-2.4125,-2.4125,0.0,0.0,0.0,0.0,0.0,0.0,0.0,0.0,0.0,0.0,0.0,0.0,-2.5366,-2.7007,-2.4844,-2.4119,-2.5116,-2.4022,-2.339,-2.3271,-2.3198,-2.3198,-2.3198,0.0,0.0,0.0,0.0,0.0,0.0,0.0,0.0,0.0,0.0,0.0,0.0,0.0,0.0,0.0,0.0,0.0,0.0,0.0,0.0,0.0,0.0,0.0,0.0,0.0,-1.6374,0.0,0.0,0.0,0.0,0.0,0.0,0.0,0.0,0.0,0.0,0.0,-1.7194,-1.6636,-1.6524,-1.6175,-1.5133,-1.4784,-1.4569,0.0,0.0,0.0,0.0,0.0,0.0,0.0,0.0,0.0,0.0,0.0,0.0,0.0,0.0,-1.4307,-1.3275,-1.3044,-1.2932,-1.2821,0.0,0.0,0.0,0.0,0.0,0.0,0.0,0.0,0.0,0.0,0.0,0.0,0.0,0.0,-2.8411,0.0,-2.8411,0.0,0.0,0.0,0.0,0.0,0.0,0.0,0.0,-2.4125,-2.4125,-2.4125,-2.4125,-2.4125,0.0,-2.4125,-2.4125,0.0,0.0,0.0,0.0,0.0,0.0,0.0,0.0,-2.529,-2.6281,-2.4528,-2.3908,-2.4621,-2.3799,-2.321,-2.3125,-2.3125,-2.3125,-2.3125,-2.3125,-2.3125,0.0,0.0,0.0,0.0,0.0,0.0,0.0,0.0,0.0,0.0,0.0,0.0,0.0,0.0,0.0,0.0,0.0,0.0,0.0,0.0,0.0,0.0,0.0,-1.6374,0.0,0.0,0.0,0.0,0.0,0.0,0.0,0.0,0.0,-1.7813,-1.7243,-1.6655,-1.6245,-1.6105,-1.5754,-1.4705,0.0,0.0,0.0,0.0,0.0,0.0,0.0,-1.4569,-1.4569,-1.4569,-1.4569,-1.4569,-1.4538,-1.4387,-1.445,0.0,0.0,-1.3378,-1.3187,-1.31,-1.31,-1.3195,-1.3259,-1.3259,-1.3433,-1.3576,0.0,0.0,0.0,0.0,0.0,0.0,0.0,0.0,-2.8427,-2.8427,0.0,-2.8411,0.0,0.0,0.0,0.0,0.0,-2.4292,0.0,0.0,-2.4125,-2.4125,-2.4125,-2.4125,-2.4125,-2.4125,-2.4125,-2.4125,-2.4125,-2.4125,0.0,0.0,0.0,0.0,0.0,0.0,-2.473,-2.4859,-2.3925,-2.3621,-2.3966,-2.3439,-2.3125,-2.3125,-2.3125,-2.3125,-2.3125,-2.3125,-2.3125,-2.3125,-2.3125,0.0,0.0,0.0,0.0,0.0,0.0,0.0,0.0,0.0,0.0,0.0,0.0,0.0,0.0,0.0,0.0,0.0,0.0,0.0,0.0,-1.6374,0.0,0.0,0.0,0.0,0.0,0.0,0.0,0.0,0.0,0.0,-1.8911,-1.6576,-1.5196,-1.6585,0.0,0.0,0.0,0.0,-1.4569,-1.4569,-1.4569,-1.4569,-1.4569,-1.4569,-1.4569,-1.4569,0.0,0.0,-1.4569,-1.4363,-1.4148,-1.4125,-1.3455,-1.3185,-1.434,-1.4126,-1.3974,-1.3966,-1.3703,-1.3568,-1.3561,-1.3545,-1.3584,-3.2175,0.0,0.0,0.0,0.0,-2.9122,-2.8688,-2.9054,-2.8614,-2.8434,-2.8411,-2.8411,0.0,0.0,0.0,0.0,0.0,0.0,-2.4203,-2.4112,-2.4125,-2.4125,-2.4125,-2.4125,-2.4125,-2.4125,-2.4125,-2.4125,-2.4125,-2.4125,-2.4321,-2.4726,0.0,0.0,0.0,0.0,-2.4792,-2.4963,-2.3961,-2.3609,-2.3979,-2.3439,-2.3125,-2.3125,-2.3125,-2.3125,-2.3125,-2.3125,-2.3125,-2.3125,-2.3125,0.0,0.0,0.0,0.0,0.0,0.0,0.0,0.0,0.0,0.0,0.0,0.0,0.0,0.0,0.0,0.0,0.0,0.0,0.0,-1.6374,-1.6374,-1.6374,0.0,0.0,0.0,0.0,0.0,0.0,0.0,0.0,0.0,-1.824,-1.7139,-1.5965,0.0,0.0,-1.5275,-1.4713,-1.4569,-1.4569,-1.4569,-1.4569,0.0,0.0,-1.4569,-1.4569,-1.4569,-1.4569,-1.4569,-1.4569,-1.4561,-1.4419,-1.4348,-1.4128,-1.3956,-1.3847,-1.331,-1.294,-1.3012,-1.3051,-1.3024,-1.304,-1.3154,-1.3274,-3.2644,-3.2367,-3.1951,-3.1628,-3.132,-3.0402,-2.9785,-2.9541,-2.9475,-2.9062,-2.8434,-2.8686,-2.8217,-2.724,-2.6654,0.0,0.0,0.0,-2.4157,-2.4125,-2.4125,-2.4125,-2.4125,-2.4125,-2.4125,-2.4125,-2.4125,-2.4125,-2.4125,-2.4125,-2.4413,-2.4949,0.0,0.0,-2.4839,-2.4709,-2.4512,-2.4292,-2.3685,-2.3447,-2.364,-2.3314,-2.3125,-2.3125,-2.3125,-2.3125,-2.3125,-2.3125,-2.3125,-2.3125,-2.3125,-2.3125,0.0,0.0,0.0,0.0,0.0,0.0,0.0,0.0,0.0,0.0,0.0,-1.674,0.0,0.0,0.0,0.0,-1.6374,-1.6374,-1.6374,-1.6374,0.0,0.0,0.0,0.0,0.0,0.0,0.0,-1.8087,-1.732,-1.6932,-1.7267,-1.701,-1.6455,-1.5613,-1.5613,-1.5551,-1.5133,0.0,-1.4991,-1.4641,-1.4569,-1.4569,-1.4569,-1.4569,-1.4569,-1.4569,-1.4569,-1.4569,-1.4569,-1.4569,-1.4497,-1.4418,-1.4173,-1.3884,-1.3615,-1.2958,-1.2582,-1.2789,-1.2881,-1.2891,-1.2899,-1.3002,-1.314,-3.3121,-3.2552,-3.249,-3.209,-3.1574,-3.2144,-3.1396,-2.9892,-3.0695,-3.0151,-2.8712,-2.9219,-2.902,-2.8229,-2.6707,0.0,-2.4125,-2.4125,-2.4125,-2.4125,-2.4125,-2.4125,-2.4125,-2.4125,-2.4125,-2.4125,-2.4125,-2.4125,-2.4125,-2.4125,-2.4387,-2.4883,-2.4689,-2.4322,-2.3744,-2.4166,-2.3946,-2.309,-2.3271,-2.3271,-2.3078,-2.3125,-2.3125,-2.3125,-2.3125,-2.3125,-2.3125,-2.3125,-2.3125,-2.3125,-2.3125,-2.3125,-2.3125,0.0,0.0,0.0,0.0,0.0,0.0,0.0,0.0,0.0,0.0,0.0,0.0,0.0,0.0,0.0,-1.6374,0.0,-1.6374,-1.6374,0.0,0.0,0.0,-1.7214,-1.7678,-1.7397,-1.7273,-1.7726,0.0,0.0,-1.6446,-1.6455,-1.6594,-1.6802,-1.6097,-1.5542,-1.5762,-1.5692,-1.5409,-1.4705,-1.4569,-1.4569,-1.4569,-1.4569,-1.4569,-1.4569,-1.4569,-1.4569,-1.4569,-1.4497,-1.4353,-1.4361,-1.3821,-1.3327,-1.3437,-1.3089,-1.2826,-1.2983,-1.3027,-1.3012,-1.2935,-1.2966,-1.293,-3.4137,-3.3937,-3.3398,-3.2782,-3.2151,-3.2314,-3.1767,-3.0777,-3.1006,-3.0828,-3.0469,-3.0124,-2.9012,-2.7252,-2.5437,-2.4434,-2.4125,-2.4125,-2.4125,-2.4125,-2.4125,-2.4125,-2.4125,-2.4125,-2.4125,-2.4125,-2.4125,-2.4125,-2.4125,-2.4125,-2.4132,-2.4144,-2.3953,-2.4034,-2.4243,-2.3854,-2.347,-2.3125,-2.3138,-2.3138,-2.3125,-2.3125,-2.3125,-2.3125,-2.3125,-2.3125,-2.3125,-2.3125,-2.3125,-2.3125,-2.3125,-2.3125,-2.3065,-2.2628,0.0,0.0,0.0,0.0,0.0,0.0,0.0,0.0,0.0,-1.6374,-1.6374,0.0,-1.6374,0.0,-1.6374,-1.6374,-1.6374,-1.6374,0.0,0.0,-1.7103,-1.7502,-1.7823,-1.8061,-1.8218,-1.8327,-1.7647,-1.7157,-1.7157,-1.6524,-1.6254,-1.6376,-1.5895,-1.5488,-1.5568,-1.5133,-1.4848,-1.4641,-1.4569,-1.4569,-1.4569,-1.4569,-1.4569,-1.4569,-1.4489,-1.4425,-1.4418,-1.4281,-1.4137,-1.4008,-1.381,-1.3509,-1.3201,-1.3013,-1.2873,-1.2705,-1.2535,-1.2405,-1.2165,-1.2186,-1.2291,-3.4752,-3.4445,-3.4044,-3.366,-3.3275,-3.2659,-3.2136,-3.1682,-3.1682,-3.1651,-3.1653,-3.0637,-2.9173,-2.7329,-2.6004,-2.5172,-2.4844,-2.4347,-2.4256,-2.4478,-2.423,-2.4125,-2.4125,-2.4125,-2.4125,-2.4125,-2.4125,-2.4125,-2.4125,-2.4125,-2.4067,-2.3891,-2.37,-2.3722,-2.4004,-2.3542,-2.3336,-2.3514,-2.3263,-2.3125,-2.3125,-2.3125,-2.3125,-2.3125,-2.3125,-2.3125,-2.3125,-2.3125,-2.3125,-2.3065,-2.2823,-2.2823,-2.3065,-2.2187,-2.1678,0.0,0.0,0.0,0.0,0.0,0.0,0.0,0.0,0.0,0.0,0.0,-1.6374,-1.6249,-1.6192,-1.6226,-1.642,-1.6451,-1.6565,-1.6941,-1.7387,-1.7752,-1.7875,-1.7868,-1.7842,-1.7852,-1.7226,-1.6881,-1.7097,-1.6524,-1.6105,-1.6515,-1.5824,-1.5275,-1.5409,-1.5196,-1.4911,-1.4641,-1.4569,-1.4569,-1.4497,-1.4497,-1.4497,-1.4425,-1.4353,-1.4353,-1.4281,-1.4065,-1.3928,-1.3863,-1.3717,-1.3593,-1.3265,-1.3221,-1.3119,-1.2819,-1.2667,-1.2439,-1.2003,-1.2093,-1.2226,-3.5276,-3.4796,-3.4645,-3.4657,-3.4506,-3.3213,-3.2582,-3.2388,-3.2358,-3.2314,-3.2091,-3.0685,-2.9226,-2.7879,-2.713,-2.6421,-2.5641,-2.4674,-2.4452,-2.4818,-2.4347,-2.4125,-2.4125,-2.4125,-2.4125,-2.4125,-2.4125,-2.4125,-2.4125,-2.4067,-2.4008,-2.3878,-2.37,-2.3548,-2.3444,-2.3236,-2.3389,-2.3879,-2.3328,-2.3125,-2.3125,-2.3125,-2.3125,-2.3125,-2.3125,-2.3125,-2.3125,-2.3125,-2.3078,-2.2944,-2.2433,-2.2298,-2.275,-2.1628,-2.1008,0.0,-2.0355,0.0,0.0,0.0,0.0,0.0,0.0,0.0,0.0,-1.6708,-1.6434,-1.6287,-1.6133,-1.6246,-1.6558,-1.6588,-1.6758,-1.7199,-1.759,-1.7851,-1.7865,-1.7494,-1.7217,-1.7217,-1.6664,-1.6464,-1.6941,-1.6533,-1.6324,-1.6524,-1.5675,-1.4974,-1.5188,-1.5251,-1.5046,-1.4569,-1.4561,-1.4497,-1.4353,-1.4353,-1.4281,-1.4129,-1.4209,-1.4281,-1.4065,-1.392,-1.3797,-1.3725,-1.3652,-1.3484,-1.3492,-1.3477,-1.3397,-1.3126,-1.3053,-1.284,-1.2306,-1.2358,-1.2475,-3.6215,-3.6061,-3.5522,-3.5291,-3.523,-3.4429,-3.3453,-3.2425,-3.2267,-3.1807,-3.0998,-2.974,-2.8601,-2.768,-2.6559,-2.5678,-2.5118,-2.4909,-2.4622,-2.4269,-2.4164,-2.4125,-2.4125,-2.4125,-2.4125,-2.4125,-2.4125,-2.4125,-2.4112,-2.4008,-2.3819,-2.3688,-2.3522,-2.3571,-2.3852,0.0,0.0,0.0,-2.314,-2.3125,-2.3125,-2.3125,-2.3125,-2.3125,-2.3125,0.0,-2.3125,-2.3125,-2.2811,-2.2298,-2.2175,0.0,0.0,0.0,0.0,0.0,0.0,0.0,0.0,0.0,0.0,0.0,-1.8134,-1.7726,-1.7441,-1.7144,-1.7042,-1.698,-1.698,-1.701,-1.7029,-1.7039,-1.7219,-1.7501,-1.7631,-1.7754,-1.7976,-1.7891,-1.7794,-1.7803,-1.7657,-1.7657,-1.7725,-1.7157,-1.6515,-1.6026,-1.518,-1.4545,-1.4209,-1.4274,-1.4346,-1.4201,-1.4209,-1.4201,-1.4201,-1.4137,-1.4129,-1.4057,-1.4,-1.3935,-1.3863,-1.3717,-1.3564,-1.3564,-1.3492,-1.3492,-1.3492,-1.3492,-1.3477,-1.3404,-1.3397,-1.3206,-1.2577,-1.2687,-1.2899,-3.6492,0.0,-3.6122,-3.5984,0.0,-3.526,-3.4809,-3.4326,-3.3161,-3.1953,-3.0748,-3.0116,-2.9177,-2.8058,-2.7176,-2.6546,-2.619,-2.5367,-2.4975,-2.4936,-2.4374,-2.4125,-2.4125,-2.4125,-2.4125,-2.4125,-2.4054,-2.3995,-2.3995,-2.3819,-2.37,-2.3522,-2.3463,-2.3422,-2.3565,-2.3276,-2.3125,-2.3125,-2.3125,-2.3125,-2.3125,-2.3125,-2.3125,-2.3125,-2.3125,0.0,0.0,0.0,0.0,0.0,0.0,0.0,0.0,0.0,0.0,-2.0107,-1.9452,-1.9131,-1.9131,-1.9131,-1.9008,-1.8808,-1.8395,-1.7991,-1.7397,-1.7159,-1.7106,-1.7106,-1.7044,-1.707,-1.7278,-1.7298,-1.7412,-1.774,-1.7809,-1.7841,-1.7959,-1.8008,-1.8008,-1.8008,-1.8008,-1.8008,-1.8008,-1.7019,-1.6228,-1.5745,-1.476,-1.3985,-1.3717,-1.3855,-1.3992,-1.4065,-1.3992,-1.392,-1.3935,-1.3928,-1.392,-1.3848,-1.379,-1.3717,-1.3645,-1.3572,-1.3492,-1.3492,-1.3492,-1.3492,-1.3492,-1.3492,-1.3492,-1.3492,-1.3492,-1.3411,-1.306,-1.3133,-1.3199,-3.6492,-3.6492,-3.6492,-3.6492,-3.6445,-3.5891,-3.584,-3.5935,0.0,0.0,0.0,-3.0584,-2.9704,-2.8298,-2.7746,-2.7426,-2.7262,-2.5707,-2.5223,-2.5615,-2.4596,-2.4125,-2.4125,-2.4125,-2.4125,-2.4125,-2.3949,-2.3891,-2.3891,-2.37,-2.3522,-2.3403,-2.3343,-2.3271,-2.3138,-2.3125,-2.3125,-2.3125,-2.3125,-2.3125,-2.3125,-2.3125,-2.3125,-2.3125,-2.3125,-2.3125,-2.3125,-2.3125,-2.2811,-2.2101,-2.1428,-2.106,-2.0869,-1.9781,-1.933,-1.9846,-1.9386,-1.9131,-1.9131,-1.9131,-1.9008,-1.8751,-1.8472,-1.8038,-1.7386,-1.7209,-1.7209,-1.7145,-1.7017,-1.7109,-1.7461,-1.749,-1.7627,-1.7969,-1.8008,-1.7998,-1.8008,-1.8008,-1.8008,-1.8008,-1.7872,-1.7794,-1.7725,-1.6455,-1.5534,-1.5313,-1.4338,-1.3492,-1.3492,-1.3645,-1.3783,-1.392,-1.3855,-1.3717,-1.3725,-1.3717,-1.3645,-1.3564,-1.3645,-1.3717,-1.3564,-1.3492,-1.3492,-1.3492,-1.3492,-1.3492,-1.3492,-1.3492,-1.3492,-1.3492,-1.3492,-1.3492,-1.3492,-1.3484,-1.3397,-3.6492,-3.6492,-3.6492,-3.6492,-3.6492,-3.6384,-3.5569,-3.4225,-3.247,-3.0999,-2.969,-2.969,-2.8903,-2.7617,-2.7052,-2.6842,-2.6713,-2.5524,-2.5014,-2.5053,-2.4426,-2.4125,-2.4125,-2.4125,-2.4125,-2.4125,-2.3949,-2.3891,-2.3891,-2.3582,-2.3403,-2.3403,-2.321,-2.3138,-2.3125,-2.3125,-2.3125,-2.3125,-2.3125,-2.3125,-2.3125,-2.3125,-2.3125,-2.3125,-2.3125,-2.3125,-2.3125,-2.3065,-2.2811,-2.2101,-2.1428,-2.0805,-2.0226,-1.9518,-1.9131,-1.9264,-1.9131,-1.9131,-1.9131,-1.9131,-1.8942,-1.8549,-1.8405,-1.8152,-1.7909,-1.7822,-1.7832,-1.7822,-1.7783,-1.7852,-1.792,-1.791,-1.792,-1.7988,-1.8008,-1.8008,-1.794,-1.794,-1.794,-1.7872,-1.7442,-1.7079,-1.6941,-1.5737,-1.4816,-1.4681,-1.4049,-1.3492,-1.3492,-1.3492,-1.3564,-1.3564,-1.3564,-1.3572,-1.3564,-1.3564,-1.3492,-1.3492,-1.3492,-1.3564,-1.3492,-1.3492,-1.3492,-1.3492,-1.3492,-1.3492,-1.3492,-1.3492,-1.3492,-1.3492,-1.3492,-1.3492,-1.3492,-1.3492,-1.347,-3.6492,-3.6492,-3.6492,-3.6492,-3.6476,-3.6506,-3.5581,-3.3863,-3.2246,-3.0968,-3.0058,-2.969,-2.8774,-2.7611,-2.6985,-2.6491,-2.6164,-2.5341,-2.4975,-2.4922,-2.4387,-2.4125,-2.4125,-2.4125,-2.4125,-2.4067,-2.3878,-2.376,-2.37,-2.339,-2.3258,-2.3198,-2.3138,-2.3125,-2.3125,-2.3125,-2.3125,-2.3125,-2.3125,-2.3125,-2.3125,-2.3125,-2.3125,-2.3125,-2.3125,-2.3125,-2.3078,-2.275,-2.2249,-2.1553,-2.0933,-2.0226,-1.9584,-1.9264,-1.9131,-1.9131,-1.9131,-1.9131,-1.9131,-1.8875,-1.8674,-1.8414,-1.8212,-1.8066,-1.8008,-1.8008,-1.8008,-1.8008,-1.8008,-1.8008,-1.8008,-1.8008,-1.8008,-1.8008,-1.8008,-1.7794,-1.751,-1.7364,-1.7226,-1.6802,-1.6446,-1.6237,-1.6237,-1.5313,-1.4601,-1.453,-1.3977,-1.3492,-1.3492,-1.3492,-1.3492,-1.3492,-1.3492,-1.3492,-1.3492,-1.3492,-1.3492,-1.3492,-1.3492,-1.3492,-1.3492,-1.3492,-1.3492,-1.3492,-1.3492,-1.3492,-1.3492,-1.3492,-1.3492,-1.3492,-1.3492,-1.3492,-1.3492,-1.3492,-1.3492,-3.6492,-3.6492,-3.6492,-3.6492,-3.6492,-3.651,-3.5556,-3.3848,-3.2204,-3.1099,-3.0435,-2.9766,-2.881,-2.7691,-2.6982,-2.636,-2.5798,-2.5223,-2.4975,-2.4909,-2.4387,-2.4125,-2.4125,-2.4125,-2.4054,-2.3995,-2.376,-2.3569,-2.3509,-2.3258,-2.3125,-2.3125,-2.3125,-2.3125,-2.3125,-2.3125,-2.3125,-2.3125,-2.3125,-2.3125,-2.3125,-2.3125,-2.3125,-2.3125,-2.3125,-2.3125,-2.3078,-2.2616,-2.199,-2.1376,-2.0677,-2.0031,-1.9396,-1.9198,-1.9131,-1.9131,-1.9131,-1.9131,-1.9065,-1.8741,-1.8472,-1.8347,-1.8144,-1.8076,-1.8008,-1.8008,-1.8008,-1.8008,-1.8008,-1.8008,-1.8008,-1.8008,-1.8008,-1.8008,-1.8008,-1.7794,-1.7295,-1.7157,-1.6872,-1.6167,-1.5816,-1.5666,-1.5392,-1.4824,-1.4322,-1.4186,-1.384,-1.3492,-1.3492,-1.3492,-1.3492,-1.3492,-1.3492,-1.3492,-1.3492,-1.3492,-1.3492,-1.3492,-1.3492,-1.3492,-1.3492,-1.3492,-1.3492,-1.3492,-1.3492,-1.3492,-1.3492,-1.3492,-1.3492,-1.3492,-1.3492,-1.347,-1.3375,-1.3353,-1.3367,-3.6492,-3.6492,-3.6492,-3.6492,-3.6461,-3.6503,-3.5521,-3.3878,-3.2221,-3.1115,-3.045,-2.9827,-2.8796,-2.7705,-2.6982,-2.636,-2.5772,-2.5223,-2.4962,-2.4883,-2.4374,-2.4125,-2.4125,-2.4125,-2.3995,-2.3852,-2.3688,-2.3569,-2.345,-2.3198,-2.3125,-2.3125,-2.3125,-2.3125,-2.3125,-2.3125,-2.3125,-2.3125,-2.3125,-2.3125,-2.3125,-2.3125,-2.3125,-2.3125,-2.3125,-2.3125,-2.3065,-2.3017,-2.2689,-2.2051,-2.1302,-2.0677,-2.0042,-1.9386,-1.9131,-1.9131,-1.9131,-1.9131,-1.9075,-1.8741,-1.8482,-1.8482,-1.8347,-1.8202,-1.8008,-1.8008,-1.8008,-1.8008,-1.8008,-1.8008,-1.8008,-1.8008,-1.8008,-1.8008,-1.8008,-1.794,-1.7794,-1.7862,-1.7579,-1.6862,-1.6026,-1.5455,-1.4824,-1.4122,-1.3702,-1.3702,-1.363,-1.3492,-1.3492,-1.3492,-1.3492,-1.3492,-1.3492,-1.3492,-1.3492,-1.3492,-1.3492,-1.3492,-1.3492,-1.3492,-1.3492,-1.3492,-1.3492,-1.3492,-1.3492,-1.3492,-1.3492,-1.3492,-1.3492,-1.3418,-1.3404,-1.3375,-1.3148,-1.3053,-1.3045,-3.6492,-3.6492,-3.6492,-3.6245,-3.6013,-3.6354,-3.5295,-3.3317,-3.2056,-3.1115,-3.0406,-2.9458,-2.8552,-2.7664,-2.6982,-2.619,-2.5328,-2.5127,-2.4779,-2.4465,-2.4217,-2.4125,-2.4125,-2.4125,-2.4054,-2.3923,-2.3747,-2.3556,-2.3509,-2.3198,-2.3125,-2.3125,-2.3125,-2.3125,-2.3125,-2.3125,-2.3125,-2.3125,-2.3125,-2.3125,-2.3125,-2.3125,-2.3125,-2.3125,-2.3125,-2.2884,-2.2494,-2.2125,-2.1616,-2.0985,-2.0291,-1.977,-1.9528,-1.9264,-1.9131,-1.9131,-1.9131,-1.9065,-1.8942,-1.8674,-1.8482,-1.8405,-1.8212,-1.8076,-1.8008,-1.8008,-1.8008,-1.8008,-1.8008,-1.8008,-1.8008,-1.8008,-1.8008,-1.8008,-1.8008,-1.7862,-1.7373,-1.7364,-1.7079,-1.6306,-1.5525,-1.4966,-1.4537,-1.3985,-1.3557,-1.3492,-1.3492,-1.3492,-1.3492,-1.3492,-1.3492,-1.3492,-1.3492,-1.3492,-1.3492,-1.3492,-1.3492,-1.3492,-1.3492,-1.3492,-1.3492,-1.3492,-1.3492,-1.3484,-1.347,-1.347,-1.3492,-1.3477,-1.3462,-1.3309,-1.3009,-1.2862,-1.2738,-1.2723,-1.2665,-3.6368,-3.6168,-3.583,-3.5476,-3.5259,-3.531,-3.45,-3.2968,-3.195,-3.0954,-2.9981,-2.9072,-2.8111,-2.7185,-2.668,-2.589,-2.504,-2.4975,-2.4661,-2.4164,-2.4125,-2.4125,-2.4125,-2.4125,-2.4054,-2.3936,-2.3688,-2.3556,-2.345,-2.3258,-2.3125,-2.3125,-2.3125,-2.3125,-2.3125,-2.3125,-2.3125,-2.3125,-2.3125,-2.3125,-2.3125,-2.3125,-2.3125,-2.3078,-2.2944,-2.2555,-2.2101,-2.1491,-2.0816,-2.0107,-1.9649,-1.9264,-1.9131,-1.9131,-1.9131,-1.9065,-1.9065,-1.8942,-1.8808,-1.8539,-1.8405,-1.8269,-1.8144,-1.8008,-1.8008,-1.8008,-1.8008,-1.7998,-1.791,-1.7852,-1.7998,-1.8008,-1.8008,-1.8008,-1.8008,-1.7794,-1.7295,-1.7217,-1.6872,-1.5886,-1.5384,-1.4681,-1.433,-1.384,-1.3492,-1.3492,-1.3492,-1.3492,-1.3492,-1.3492,-1.3492,-1.3492,-1.3492,-1.3492,-1.3492,-1.3492,-1.3492,-1.3492,-1.3492,-1.3492,-1.3492,-1.3492,-1.3397,-1.3331,-1.3367,-1.3272,-1.3119,-1.314,-1.3184,-1.2936,-1.268,-1.2475,-1.2409,-1.2394,-1.2248,-3.6122,-3.5368,-3.4106,-3.4029,-3.4429,-3.3295,-3.2817,-3.2862,-3.189,-3.0455,-2.8987,-2.8753,-2.7632,-2.6002,-2.5939,-2.5537,-2.5027,-2.4975,-2.4661,-2.4151,-2.4125,-2.4125,-2.4125,-2.4125,-2.3936,-2.3688,-2.3628,-2.345,-2.3138,-2.3138,-2.3125,-2.3125,-2.3125,-2.3125,-2.3125,-2.3125,-2.3125,-2.3125,-2.3125,-2.3125,-2.3065,-2.3065,-2.3065,-2.3005,-2.2494,-2.2113,-2.1978,-2.1428,-2.0805,-2.0096,-2.0042,-1.9781,-1.9198,-1.9131,-1.9131,-1.9065,-1.8942,-1.8808,-1.8741,-1.8472,-1.8337,-1.8279,-1.8144,-1.7998,-1.7949,-1.7949,-1.793,-1.7969,-1.7598,-1.7549,-1.7852,-1.7852,-1.7891,-1.791,-1.7959,-1.7872,-1.7891,-1.7658,-1.7207,-1.6044,-1.5503,-1.4844,-1.3723,-1.3564,-1.3418,-1.3418,-1.3455,-1.3433,-1.3389,-1.3426,-1.3411,-1.3404,-1.3418,-1.3477,-1.3477,-1.3411,-1.3433,-1.3404,-1.3345,-1.3411,-1.347,-1.3455,-1.3279,-1.3133,-1.3067,-1.2921,-1.2672,-1.2577,-1.2606,-1.2511,-1.2467,-1.2321,-1.2094,-1.2058,-1.1948,-3.546,-3.4814,-3.4291,-3.3983,-3.3767,-3.3702,-3.3223,-3.2255,-3.0878,-2.9925,-2.9143,-2.8389,-2.7428,-2.6342,-2.5603,-2.5171,-2.4975,-2.4975,-2.4661,-2.4164,-2.4125,-2.4125,-2.4125,-2.4125,-2.4008,-2.3819,-2.3628,-2.3437,-2.3138,-2.3125,-2.3125,-2.3125,-2.3125,-2.3125,-2.3125,-2.3125,-2.3125,-2.3125,-2.3125,-2.3125,-2.3065,-2.2689,-2.2494,-2.2433,-2.2237,-2.1729,-2.0846,-2.0996,-2.0613,-1.9528,-1.9835,-1.9781,-1.9198,-1.9131,-1.9085,-1.8942,-1.8808,-1.8741,-1.8607,-1.8405,-1.8347,-1.8279,-1.8144,-1.7871,-1.7666,-1.7598,-1.75,-1.7236,-1.709,-1.7061,-1.7129,-1.7187,-1.7197,-1.7197,-1.7197,-1.7227,-1.7187,-1.7132,-1.6787,-1.5836,-1.5035,-1.3958,-1.3254,-1.2877,-1.287,-1.287,-1.287,-1.2892,-1.2877,-1.2877,-1.2914,-1.2877,-1.287,-1.2877,-1.2877,-1.3067,-1.3155,-1.3097,-1.3045,-1.2914,-1.2899,-1.295,-1.2811,-1.276,-1.2709,-1.2643,-1.2423,-1.2262,-1.2241,-1.2197,-1.2145,-1.2014,-1.175,-1.1738,-1.1665,-3.4537,-3.4091,-3.366,-3.3336,-3.3136,-3.3584,-3.3013,-3.1602,-3.0238,-2.9351,-2.8827,-2.784,-2.6951,-2.6099,-2.5157,-2.4687,-2.47,-2.4687,-2.4478,-2.4138,-2.4125,-2.4125,-2.4125,-2.4067,-2.3949,-2.376,-2.3556,-2.3318,-2.3125,-2.3125,-2.3125,-2.3125,-2.3125,-2.3125,-2.3125,-2.3125,-2.3125,-2.3125,-2.3125,-2.3125,-2.3005,-2.2677,-2.2298,-2.2113,-2.1916,-2.1365,-2.0431,-2.0495,-2.0226,-1.9584,-1.9649,-1.9528,-1.9065,-1.8931,-1.8875,-1.8751,-1.8674,-1.8617,-1.8482,-1.8337,-1.821,-1.8014,-1.787,-1.7627,-1.7227,-1.7178,-1.7012,-1.6724,-1.6572,-1.6514,-1.6484,-1.6396,-1.6426,-1.6578,-1.6665,-1.6665,-1.6665,-1.6548,-1.6028,-1.5133,-1.4023,-1.3148,-1.2661,-1.2533,-1.2548,-1.2526,-1.2526,-1.2526,-1.2526,-1.2526,-1.2526,-1.2526,-1.257,-1.2584,-1.2562,-1.2665,-1.2782,-1.2738,-1.2723,-1.2548,-1.2453,-1.2467,-1.2438,-1.2387,-1.2343,-1.2306,-1.2197,-1.2021,-1.1933,-1.1825,-1.1823,-1.1728,-1.1556,-1.1339,-1.1192,-3.3429,-3.3229,-3.1982,-3.1982,-3.2499,-3.2547,-3.1951,-3.1101,-2.9829,-2.8708,-2.7987,-2.713,-2.6173,-2.5124,-2.4601,-2.4204,-2.4191,-2.4217,-2.4191,-2.4125,-2.4125,-2.4125,-2.4125,-2.4008,-2.3832,-2.3569,-2.3258,-2.3125,-2.3125,-2.3125,-2.3125,-2.3125,-2.3125,-2.3125,-2.3125,-2.3125,-2.3125,-2.3125,-2.3125,-2.3125,-2.3065,-2.3005,-2.2628,-2.2051,-2.1428,-2.106,-2.0996,-1.9901,-1.9518,-1.9846,-1.9452,-1.9075,-1.8808,-1.8607,-1.8482,-1.8482,-1.8482,-1.8414,-1.8317,-1.822,-1.7955,-1.7527,-1.7373,-1.7197,-1.6816,-1.6728,-1.668,-1.6533,-1.6279,-1.6125,-1.6006,-1.5762,-1.582,-1.6533,-1.651,-1.65,-1.6423,-1.6017,-1.5256,-1.3967,-1.3009,-1.2564,-1.2497,-1.2409,-1.2372,-1.2387,-1.2394,-1.2387,-1.2365,-1.2358,-1.246,-1.246,-1.2358,-1.2277,-1.2277,-1.2284,-1.2343,-1.2387,-1.2394,-1.2321,-1.2262,-1.2248,-1.2145,-1.2087,-1.2043,-1.1999,-1.1768,-1.1609,-1.1383,-1.1333,-1.1373,-1.1233,-1.0912,-1.0598,-1.0541,-3.3136,-3.269,-3.2259,-3.2198,-3.2422,-3.2439,-3.2114,-3.1293,-2.8473,-2.7498,-2.7963,-2.6776,-2.5693,-2.5094,-2.4786,-2.4478,-2.4138,-2.4125,-2.4125,-2.4125,-2.4125,-2.4125,-2.4054,-2.3949,-2.3772,-2.345,-2.321,-2.3125,-2.3125,-2.3125,-2.3125,-2.3125,-2.3125,-2.3125,-2.3125,-2.3125,-2.3125,-2.3125,-2.3125,-2.3125,-2.3078,-2.2628,-2.2113,-2.1428,-2.0741,-2.042,-2.0355,-2.0042,-1.9649,-1.9452,-1.9518,-1.9253,-1.8741,-1.8549,-1.8482,-1.8337,-1.8337,-1.8131,-1.774,-1.7691,-1.7448,-1.7041,-1.6924,-1.6719,-1.6357,-1.6269,-1.6143,-1.5908,-1.5693,-1.5615,-1.5586,-1.5508,-1.5576,-1.5791,-1.582,-1.5629,-1.5233,-1.425,-1.3401,-1.2908,-1.2292,-1.1924,-1.1875,-1.1882,-1.1919,-1.1911,-1.1897,-1.1904,-1.1889,-1.1933,-1.186,-1.186,-1.186,-1.1948,-1.1933,-1.1933,-1.1963,-1.1949,-1.1971,-1.1992,-1.1956,-1.1927,-1.1825,-1.1767,-1.178,-1.165,-1.1409,-1.124,-1.1045,-1.0661,-1.0465,-1.0212,-0.9888,-0.9888,-0.9958,-3.2782,-3.2382,-3.2121,-3.2167,-3.2321,-3.1874,-3.1496,-3.094,-2.8395,-2.7534,-2.7616,-2.647,-2.5502,-2.5013,-2.4786,-2.4439,-2.4138,-2.4125,-2.4125,-2.4125,-2.4125,-2.4125,-2.4054,-2.3891,-2.3641,-2.333,-2.3138,-2.3125,-2.3125,-2.3125,-2.3125,-2.3125,-2.3125,-2.3125,-2.3125,-2.3125,-2.3125,-2.3125,-2.3125,-2.3125,-2.2944,-2.2433,-2.1928,-2.1428,-2.0613,-2.0302,-2.042,-2.0031,-1.9649,-1.9462,-1.9452,-1.9131,-1.8549,-1.8472,-1.8277,-1.7994,-1.7945,-1.7721,-1.7207,-1.7129,-1.6953,-1.6582,-1.6475,-1.6279,-1.5937,-1.588,-1.5674,-1.5469,-1.543,-1.542,-1.542,-1.542,-1.542,-1.542,-1.5449,-1.5001,-1.4222,-1.3183,-1.2466,-1.2197,-1.1824,-1.1622,-1.1622,-1.1622,-1.1622,-1.1622,-1.1622,-1.1622,-1.1622,-1.1645,-1.163,-1.1567,-1.1696,-1.1725,-1.1667,-1.1589,-1.1589,-1.1563,-1.1536,-1.1509,-1.1517,-1.146,-1.141,-1.1481,-1.1452,-1.1459,-1.124,-1.1052,-1.0856,-1.0281,-0.9958,-1.0281,-1.0408,-0.9888,-0.9894,-3.2398,-3.2321,-3.172,-3.1828,-3.2127,-3.1195,-3.0539,-3.0,-2.9394,-2.8296,-2.6987,-2.6046,-2.5467,-2.4948,-2.4482,-2.4164,-2.4125,-2.4125,-2.4125,-2.4125,-2.4125,-2.4067,-2.3995,-2.3747,-2.3437,-2.3138,-2.3138,-2.3125,-2.3125,-2.3125,-2.3125,-2.3125,-2.3125,-2.3125,-2.3125,-2.3125,-2.3125,-2.3125,-2.3125,-2.3125,-2.3078,-2.2555,-2.2113,-2.199,-2.091,-2.042,-2.0613,-1.9771,-1.9399,-1.977,-1.9145,-1.8639,-1.8412,-1.8287,-1.7876,-1.7429,-1.7353,-1.7119,-1.6807,-1.6689,-1.6504,-1.6094,-1.6016,-1.5929,-1.5557,-1.5498,-1.5478,-1.542,-1.542,-1.542,-1.542,-1.542,-1.542,-1.541,-1.5294,-1.4756,-1.3683,-1.294,-1.2336,-1.1802,-1.1622,-1.1622,-1.1622,-1.1622,-1.1622,-1.1622,-1.1622,-1.1622,-1.1622,-1.1622,-1.1622,-1.156,-1.1498,-1.1498,-1.1435,-1.1435,-1.1373,-1.1247,-1.1247,-1.1247,-1.124,-1.1247,-1.1185,-1.1185,-1.1122,-1.1122,-1.1052,-1.08,-1.0478,-1.0028,-1.0225,-1.08,-1.0345,-0.9378,-0.9052,-3.2398,-3.2382,-3.2103,-3.1803,-3.1612,-3.1697,-3.1044,-2.9811,-2.8629,-2.788,-2.7111,-2.5841,-2.516,-2.4948,-2.4403,-2.4125,-2.4125,-2.4125,-2.4125,-2.4125,-2.4125,-2.3936,-2.3747,-2.3569,-2.333,-2.3138,-2.3125,-2.3125,-2.3125,-2.3125,-2.3125,-2.3125,-2.3125,-2.3125,-2.3125,-2.3125,-2.3125,-2.3125,-2.3125,-2.3125,-2.3078,-2.2944,-2.2555,-2.2051,-2.1227,-2.0655,-2.03,-1.9243,-1.8678,-1.8813,-1.8395,-1.7981,-1.7718,-1.7416,-1.7135,-1.6943,-1.6885,-1.6709,-1.6348,-1.624,-1.6035,-1.5654,-1.5635,-1.5527,-1.5439,-1.542,-1.542,-1.542,-1.542,-1.542,-1.542,-1.542,-1.542,-1.5352,-1.505,-1.4469,-1.3623,-1.2948,-1.2274,-1.174,-1.1622,-1.1622,-1.1622,-1.1622,-1.1622,-1.1622,-1.156,-1.156,-1.156,-1.156,-1.1498,-1.1428,-1.1365,-1.131,-1.1247,-1.1247,-1.1185,-1.0989,-1.0989,-1.1059,-1.1122,-1.1185,-1.1122,-1.1129,-1.0933,-1.0863,-1.0674,-1.0415,-1.0098,-0.9646,-0.932,-0.9256,-0.8291,-0.7321,-0.7582,-3.2398,-3.2398,-3.2287,-3.1903,-3.1321,-3.1397,-3.0632,-2.938,-2.8189,-2.7325,-2.674,-2.5869,-2.5061,-2.462,-2.4229,-2.4125,-2.4125,-2.4125,-2.4125,-2.4067,-2.3936,-2.3747,-2.3628,-2.3509,-2.333,-2.3138,-2.3125,-2.3125,-2.3125,-2.3125,-2.3125,-2.3125,-2.3125,-2.3125,-2.3125,-2.3125,-2.3125,-2.3125,-2.3125,-2.3125,-2.3078,-2.2811,-2.214,-2.1481,-2.0728,-1.9979,-1.9126,-1.8722,-1.8417,-1.8134,-1.7927,-1.7668,-1.7338,-1.7086,-1.6776,-1.6494,-1.6445,-1.626,-1.5898,-1.5791,-1.5674,-1.5478,-1.542,-1.542,-1.542,-1.542,-1.542,-1.542,-1.542,-1.542,-1.542,-1.542,-1.5294,-1.5001,-1.4706,-1.4231,-1.3571,-1.265,-1.2042,-1.1677,-1.1622,-1.1622,-1.1622,-1.1622,-1.1622,-1.156,-1.149,-1.1498,-1.1435,-1.1435,-1.1365,-1.124,-1.1178,-1.1185,-1.1122,-1.1122,-1.1122,-1.0933,-1.0674,-1.0737,-1.08,-1.0933,-1.0933,-1.0807,-1.0674,-1.0478,-1.0161,-0.9773,-0.9326,-0.8742,-0.8161,-0.7902,-0.7391,-0.6741,-0.6872,-3.2398,-3.2382,-3.2336,-3.189,-3.119,-3.0388,-2.9667,-2.8813,-2.7957,-2.7106,-2.6286,-2.5906,-2.5314,-2.4287,-2.4287,-2.4125,-2.4125,-2.4125,-2.4125,-2.3995,-2.3878,-2.3628,-2.3628,-2.3497,-2.333,-2.3138,-2.3125,-2.3125,-2.3125,-2.3125,-2.3125,-2.3125,-2.3125,-2.3125,-2.3125,-2.3125,-2.3125,-2.3113,-2.3,-2.283,-2.266,-2.2188,-2.144,-2.0526,-1.9795,-1.8833,-1.8112,-1.7983,-1.8044,-1.7338,-1.7503,-1.7348,-1.7089,-1.7016,-1.6634,-1.6145,-1.5977,-1.582,-1.5518,-1.5478,-1.5439,-1.542,-1.542,-1.542,-1.542,-1.542,-1.542,-1.542,-1.542,-1.542,-1.542,-1.542,-1.5235,-1.4824,-1.4588,-1.4112,-1.3442,-1.2413,-1.1685,-1.1622,-1.1622,-1.1622,-1.1622,-1.1622,-1.1622,-1.156,-1.1498,-1.1365,-1.1373,-1.131,-1.1185,-1.1059,-1.1059,-1.1066,-1.0996,-1.0996,-1.0996,-1.087,-1.0485,-1.0351,-1.0358,-1.0421,-1.0485,-1.0358,-0.997,-0.9709,-0.9448,-0.9,-0.8554,-0.8296,-0.7972,-0.8037,-0.8037,-0.7326,-0.7129,-3.2398,-3.2351,-3.1735,-3.1068,-3.0486,-3.0127,-2.9286,-2.8082,-2.7745,-2.7401,-2.7034,-2.6215,-2.5687,-2.53,-2.4505,-2.4125,-2.4125,-2.4125,-2.4125,-2.4067,-2.3936,-2.376,-2.3569,-2.3378,-2.3198,-2.3125,-2.3125,-2.3125,-2.3125,-2.3125,-2.3125,-2.3125,-2.3125,-2.3125,-2.304,-2.305,-2.3125,-2.305,-2.2652,-2.225,-2.1844,-2.1375,-2.0711,-1.991,-1.9039,-1.8084,-1.7093,-1.698,-1.6767,-1.6367,-1.6567,-1.6698,-1.6406,-1.6048,-1.5792,-1.5713,-1.5586,-1.5518,-1.543,-1.542,-1.542,-1.542,-1.542,-1.542,-1.542,-1.542,-1.542,-1.542,-1.542,-1.542,-1.542,-1.542,-1.5294,-1.5001,-1.4282,-1.3683,-1.339,-1.2773,-1.2097,-1.174,-1.1622,-1.1622,-1.1622,-1.156,-1.156,-1.1567,-1.1435,-1.1303,-1.124,-1.1122,-1.0996,-1.087,-1.087,-1.0877,-1.0807,-1.0807,-1.0681,-1.0618,-1.0225,-0.9837,-0.9843,-0.9652,-0.9652,-0.9454,-0.9134,-0.8877,-0.8678,-0.849,-0.8102,-0.7912,-0.7652,-0.7521,-0.7391,-0.7129,-0.7129,-3.1921,-3.1874,-3.1497,-3.0669,-2.9852,-3.0011,-2.9261,-2.7991,-2.7645,-2.7429,-2.7019,-2.6162,-2.5687,-2.537,-2.4563,-2.4125,-2.4054,-2.4008,-2.3936,-2.3878,-2.3688,-2.3569,-2.339,-2.3198,-2.3125,-2.3125,-2.3125,-2.3125,-2.3125,-2.3125,-2.3125,-2.3125,-2.3125,-2.289,-2.2786,-2.2736,-2.2371,-2.2005,-2.1968,-2.1621,-2.1119,-2.1064,-2.0358,-1.9218,-1.806,-1.6933,-1.6433,-1.6305,-1.6125,-1.5976,-1.6018,-1.6138,-1.593,-1.5684,-1.5488,-1.541,-1.542,-1.542,-1.542,-1.542,-1.542,-1.542,-1.542,-1.542,-1.542,-1.542,-1.542,-1.542,-1.542,-1.542,-1.542,-1.542,-1.5303,-1.4883,-1.4103,-1.3442,-1.3009,-1.2458,-1.1973,-1.1685,-1.1622,-1.1622,-1.1622,-1.1553,-1.1428,-1.1435,-1.1185,-1.1052,-1.0989,-1.087,-1.0807,-1.0744,-1.0744,-1.0681,-1.0618,-1.0555,-1.0358,-1.0168,-0.9843,-0.939,-0.9134,-0.8877,-0.8619,-0.8554,-0.849,-0.8166,-0.7972,-0.7847,-0.7587,-0.7199,-0.6942,-0.6745,-0.6675,-0.6741,-0.6745,-3.132,-3.1228,-3.1136,-3.0376,-2.9414,-2.9751,-2.9139,-2.7946,-2.7665,-2.7363,-2.6759,-2.6108,-2.5577,-2.5104,-2.4447,-2.4112,-2.4054,-2.3995,-2.3878,-2.3747,-2.3569,-2.345,-2.3258,-2.3198,-2.3125,-2.3125,-2.3125,-2.3125,-2.3125,-2.3113,-2.299,-2.3012,-2.2927,-2.2661,-2.2309,-2.2171,-2.1836,-2.1203,-2.1288,-2.1064,-2.0596,-2.0692,-1.9973,-1.8453,-1.7048,-1.6314,-1.6195,-1.607,-1.5866,-1.5904,-1.5788,-1.5672,-1.5672,-1.5614,-1.5604,-1.542,-1.542,-1.542,-1.542,-1.542,-1.542,-1.542,-1.542,-1.542,-1.542,-1.542,-1.542,-1.542,-1.542,-1.542,-1.542,-1.5235,-1.5001,-1.4529,-1.3863,-1.313,-1.2581,-1.1981,-1.1677,-1.1622,-1.156,-1.1498,-1.1435,-1.1373,-1.1303,-1.1178,-1.0996,-1.0807,-1.0744,-1.0744,-1.0681,-1.0681,-1.0618,-1.0358,-1.0231,-0.9907,-0.9779,-0.9588,-0.9262,-0.8877,-0.8425,-0.7972,-0.7777,-0.7972,-0.7907,-0.7587,-0.726,-0.7068,-0.6811,-0.642,-0.642,-0.6486,-0.6486,-0.642,-0.642,-3.1074,-3.0535,-2.9966,-2.9546,-2.925,-2.8621,-2.8278,-2.8031,-2.7725,-2.756,-2.7255,-2.6336,-2.5742,-2.5356,-2.4549,-2.4112,-2.4067,-2.3995,-2.3995,-2.3865,-2.3628,-2.3437,-2.3378,-2.311,-2.3075,-2.3125,-2.305,-2.2987,-2.3075,-2.3113,-2.2702,-2.2523,-2.2447,-2.2171,-2.1769,-2.1619,-2.1487,-2.0952,-2.0857,-2.0519,-2.0049,-1.9631,-1.9143,-1.7779,-1.6612,-1.6306,-1.6353,-1.5931,-1.57,-1.6093,-1.5758,-1.5536,-1.5478,-1.5478,-1.542,-1.542,-1.542,-1.542,-1.542,-1.542,-1.542,-1.542,-1.542,-1.542,-1.542,-1.542,-1.542,-1.542,-1.542,-1.542,-1.541,-1.5118,-1.4706,-1.4231,-1.3554,-1.2757,-1.2458,-1.1973,-1.156,-1.156,-1.1435,-1.1373,-1.131,-1.124,-1.1115,-1.1059,-1.087,-1.0744,-1.0744,-1.0681,-1.0618,-1.0618,-1.0618,-1.0168,-0.9779,-0.9326,-0.9005,-0.8877,-0.8554,-0.8166,-0.7652,-0.7003,-0.6872,-0.726,-0.7195,-0.6876,-0.6613,-0.6482,-0.6486,-0.642,-0.642,-0.642,-0.642,-0.642,-0.642,-3.0197,-2.9823,-2.955,-2.9112,-2.8752,-2.8728,-2.8334,-2.7836,-2.769,-2.7378,-2.682,-2.6147,-2.5632,-2.5203,-2.4549,-2.4112,-2.4054,-2.3865,-2.3865,-2.3747,-2.3497,-2.3318,-2.3289,-2.2908,-2.2736,-2.2611,-2.246,-2.2472,-2.2648,-2.2372,-2.2171,-2.1983,-2.1882,-2.1606,-2.1179,-2.1066,-2.0727,-2.0395,-2.0229,-1.9961,-1.9426,-1.9006,-1.8483,-1.7918,-1.6933,-1.656,-1.656,-1.5999,-1.571,-1.5826,-1.5584,-1.5468,-1.542,-1.542,-1.542,-1.542,-1.542,-1.542,-1.542,-1.542,-1.542,-1.542,-1.542,-1.542,-1.542,-1.542,-1.542,-1.542,-1.542,-1.542,-1.541,-1.5059,-1.4824,-1.441,-1.3554,-1.2887,-1.2451,-1.1849,-1.1608,-1.1428,-1.1365,-1.1303,-1.124,-1.1178,-1.0989,-1.087,-1.0807,-1.0744,-1.0681,-1.0681,-1.0618,-1.0555,-1.0491,-1.0168,-0.9652,-0.9198,-0.8447,-0.812,-0.7921,-0.7538,-0.708,-0.6607,-0.6515,-0.6811,-0.6552,-0.6359,-0.6412,-0.6408,-0.6416,-0.6408,-0.6388,-0.6379,-0.6408,-0.642,-0.6379,-2.9335,-2.9212,-2.9212,-2.8756,-2.8271,-2.8885,-2.8627,-2.7816,-2.7675,-2.7327,-2.6672,-2.6187,-2.5701,-2.5104,-2.4505,-2.4125,-2.4067,-2.3819,-2.3682,-2.3456,-2.3208,-2.3043,-2.272,-2.2435,-2.2146,-2.2071,-2.1644,-2.1606,-2.1995,-2.182,-2.1506,-2.1355,-2.1317,-2.1041,-2.0655,-2.0489,-1.9834,-1.9608,-1.9552,-1.954,-1.9226,-1.8898,-1.8661,-1.8501,-1.7413,-1.6765,-1.6662,-1.5989,-1.5768,-1.5768,-1.5584,-1.542,-1.542,-1.542,-1.542,-1.542,-1.542,-1.542,-1.542,-1.542,-1.542,-1.542,-1.542,-1.542,-1.542,-1.542,-1.542,-1.542,-1.542,-1.542,-1.541,-1.5225,-1.4883,-1.4282,-1.3623,-1.3017,-1.2343,-1.1725,-1.1421,-1.1303,-1.124,-1.1178,-1.1115,-1.0996,-1.0807,-1.0807,-1.0688,-1.0681,-1.0618,-1.0618,-1.0555,-1.0491,-1.0364,-1.0104,-0.9716,-0.9268,-0.835,-0.7506,-0.7364,-0.7095,-0.6706,-0.6314,-0.6342,-0.6394,-0.631,-0.6201,-0.6298,-0.6347,-0.6282,-0.6258,-0.6298,-0.6282,-0.6217,-0.6205,-0.6193,-2.9073,-2.8535,-2.8535,-2.8473,-2.8378,-2.8403,-2.8225,-2.7985,-2.7806,-2.769,-2.7159,-2.6774,-2.6122,-2.5412,-2.4492,-2.4112,-2.4054,-2.3904,-2.3625,-2.3256,-2.2911,-2.2483,-2.2133,-2.1756,-2.1581,-2.1481,-2.1016,-2.1117,-2.1355,-2.138,-2.1167,-2.0894,-2.0715,-2.0489,-2.0075,-2.0037,-1.9874,-1.9708,-1.9747,-1.9747,-1.9604,-1.9186,-1.8632,-1.8081,-1.7313,-1.6775,-1.6616,-1.5999,-1.57,-1.6046,-1.5642,-1.541,-1.542,-1.542,-1.542,-1.542,-1.542,-1.542,-1.542,-1.542,-1.542,-1.542,-1.542,-1.542,-1.542,-1.542,-1.542,-1.542,-1.542,-1.542,-1.5303,-1.4942,-1.435,-1.3734,-1.3191,-1.2466,-1.1856,-1.1608,-1.1303,-1.1115,-1.1052,-1.0926,-1.0863,-1.0744,-1.0624,-1.0624,-1.0624,-1.0618,-1.0591,-1.0501,-1.0335,-1.0184,-0.988,-0.9612,-0.9226,-0.888,-0.8217,-0.7066,-0.6917,-0.6701,-0.6304,-0.6025,-0.6018,-0.6068,-0.601,-0.603,-0.6083,-0.6099,-0.6083,-0.6087,-0.6103,-0.6034,-0.5945,-0.5961,-0.6018,-2.8673,-2.8411,-2.8411,-2.8348,-2.8235,-2.8168,-2.8069,-2.7951,-2.774,-2.7255,-2.6654,-2.6336,-2.5687,-2.4921,-2.4216,-2.4112,-2.3989,-2.3599,-2.3282,-2.2837,-2.238,-2.1932,-2.166,-2.1289,-2.1071,-2.0878,-2.0526,-2.025,-2.0514,-2.0564,-2.0376,-2.0263,-2.0188,-2.01,-1.9811,-1.9798,-1.9811,-1.9798,-1.9798,-1.9798,-1.9656,-1.9291,-1.8815,-1.8483,-1.7534,-1.7045,-1.6673,-1.6124,-1.5778,-1.5941,-1.5536,-1.541,-1.542,-1.542,-1.542,-1.542,-1.542,-1.542,-1.542,-1.542,-1.542,-1.542,-1.542,-1.542,-1.542,-1.542,-1.542,-1.542,-1.542,-1.542,-1.5294,-1.4824,-1.4231,-1.3563,-1.2826,-1.2151,-1.1608,-1.1365,-1.1122,-1.0996,-1.0843,-1.0732,-1.0635,-1.0566,-1.0517,-1.0564,-1.0564,-1.0557,-1.0434,-1.0354,-1.0122,-0.9761,-0.937,-0.8932,-0.8552,-0.8127,-0.7761,-0.6918,-0.6847,-0.6576,-0.6067,-0.5844,-0.5775,-0.5852,-0.5917,-0.5921,-0.5892,-0.5912,-0.5941,-0.5921,-0.5892,-0.5783,-0.5807,-0.5872,-0.5917,-2.8411,-2.8411,-2.8411,-2.8348,-2.8186,-2.8103,-2.805,-2.7931,-2.7771,-2.7137,-2.6375,-2.5946,-2.5245,-2.4368,-2.4058,-2.3812,-2.3825,-2.3062,-2.2626,-2.2244,-2.1784,-2.1357,-2.1066,-2.0709,-2.0504,-2.0504,-2.0112,-1.9924,-1.9874,-1.9861,-1.9911,-1.9798,-1.9886,-1.9836,-1.9811,-1.9798,-1.9798,-1.9798,-1.9798,-1.9695,-1.95,-1.9198,-1.8881,-1.8429,-1.7863,-1.7213,-1.7,-1.6389,-1.5941,-1.5884,-1.5594,-1.542,-1.542,-1.542,-1.542,-1.542,-1.542,-1.542,-1.542,-1.542,-1.542,-1.542,-1.542,-1.542,-1.542,-1.542,-1.542,-1.542,-1.542,-1.5362,-1.5128,-1.4706,-1.4043,-1.3381,-1.2704,-1.2035,-1.1406,-1.1121,-1.0864,-1.0739,-1.0575,-1.0417,-1.0335,-1.0349,-1.0396,-1.0477,-1.0441,-1.0421,-1.0232,-1.008,-0.9637,-0.9205,-0.8824,-0.8278,-0.7784,-0.7389,-0.6997,-0.6707,-0.6579,-0.6352,-0.5722,-0.5526,-0.554,-0.5596,-0.5723,-0.5588,-0.5381,-0.5596,-0.5799,-0.5709,-0.5591,-0.5639,-0.5655,-0.5707,-0.5703,-2.8411,-2.8411,-2.8411,-2.8299,-2.8186,-2.8186,-2.8084,-2.7981,-2.7821,-2.756,-2.6967,-2.624,-2.5232,-2.4646,-2.3738,-2.3276,-2.325,-2.2675,-2.2135,-2.1652,-2.1223,-2.0794,-2.0447,-2.0166,-1.9949,-1.9936,-1.9823,-1.9811,-1.9798,-1.9798,-1.9798,-1.9798,-1.9798,-1.9798,-1.9798,-1.9798,-1.9798,-1.9798,-1.9798,-1.9552,-1.9291,-1.8987,-1.8655,-1.805,-1.771,-1.749,-1.7202,-1.6539,-1.6208,-1.6151,-1.57,-1.542,-1.542,-1.542,-1.542,-1.542,-1.542,-1.542,-1.542,-1.542,-1.542,-1.542,-1.542,-1.542,-1.542,-1.542,-1.542,-1.542,-1.5362,-1.5186,-1.4834,-1.441,-1.3863,-1.3105,-1.2464,-1.179,-1.1221,-1.0877,-1.0616,-1.0438,-1.0302,-1.0127,-1.002,-1.008,-1.006,-1.0134,-1.014,-1.012,-0.9708,-0.9387,-0.903,-0.8622,-0.8193,-0.7683,-0.7042,-0.6634,-0.629,-0.5992,-0.5797,-0.56,-0.5233,-0.5226,-0.528,-0.5204,-0.5243,-0.5094,-0.5001,-0.53,-0.5461,-0.5394,-0.5361,-0.5337,-0.5356,-0.5364,-0.5393,-2.8411,-2.8411,-2.8411,-2.8348,-2.8299,-2.8235,-2.8118,-2.7985,-2.7855,-2.7255,-2.64,-2.4915,-2.4102,-2.3731,-2.3197,-2.2633,-2.2499,-2.1872,-2.1456,-2.1002,-2.0563,-2.0232,-1.9926,-1.9914,-1.9811,-1.9798,-1.9798,-1.9798,-1.9798,-1.9798,-1.9798,-1.9798,-1.9798,-1.9798,-1.9798,-1.9798,-1.9798,-1.9798,-1.9798,-1.9604,-1.9396,-1.9028,-1.8709,-1.8333,-1.7357,-1.7401,-1.7279,-1.6436,-1.6265,-1.6208,-1.5758,-1.5526,-1.542,-1.542,-1.542,-1.542,-1.542,-1.542,-1.542,-1.542,-1.542,-1.542,-1.542,-1.542,-1.542,-1.541,-1.542,-1.5362,-1.5313,-1.5079,-1.501,-1.4469,-1.3803,-1.2899,-1.2126,-1.1411,-1.0981,-1.0499,-1.0241,-1.0012,-0.9964,-0.9813,-0.9773,-0.9733,-0.978,-0.9833,-0.9833,-0.9669,-0.9144,-0.861,-0.8155,-0.7698,-0.7224,-0.6711,-0.6081,-0.5804,-0.5527,-0.5329,-0.5125,-0.5079,-0.4974,-0.4971,-0.5005,-0.4904,-0.4901,-0.4912,-0.493,-0.5072,-0.5119,-0.5089,-0.5077,-0.5037,-0.503,-0.5073,-0.5073,-2.8104,-2.8088,-2.7873,-2.7979,-2.8204,-2.7972,-2.7887,-2.7905,-2.7564,-2.6755,-2.546,-2.3919,-2.3115,-2.286,-2.2387,-2.2113,-2.1849,-2.1354,-2.0951,-2.0616,-2.0232,-1.9926,-1.9862,-1.9811,-1.9798,-1.9798,-1.9798,-1.9798,-1.9798,-1.9798,-1.9798,-1.9798,-1.9798,-1.9798,-1.9798,-1.9798,-1.9798,-1.9798,-1.9798,-1.9656,-1.9396,-1.9081,-1.8762,-1.856,-1.7854,-1.7788,-1.7722,-1.7101,-1.656,-1.6379,-1.6046,-1.5468,-1.542,-1.542,-1.542,-1.542,-1.542,-1.542,-1.542,-1.542,-1.542,-1.542,-1.542,-1.542,-1.541,-1.5352,-1.5303,-1.541,-1.5245,-1.5099,-1.4906,-1.4015,-1.3084,-1.2134,-1.1316,-1.0628,-1.0363,-1.0018,-0.9791,-0.963,-0.9546,-0.9506,-0.9303,-0.9256,-0.9199,-0.9092,-0.8852,-0.8601,-0.8078,-0.7594,-0.7109,-0.6612,-0.6128,-0.5571,-0.5077,-0.5119,-0.5218,-0.5146,-0.5005,-0.4886,-0.4853,-0.4846,-0.4791,-0.4736,-0.4739,-0.4791,-0.4805,-0.4823,-0.4816,-0.4802,-0.4849,-0.4901,-0.4956,-0.5014,-0.4956,-2.7426,-2.7319,-2.6703,-2.7041,-2.7811,-2.7309,-2.7349,-2.7655,-2.6995,-2.6009,-2.492,-2.3656,-2.2818,-2.2405,-2.1786,-2.1551,-2.1329,-2.0862,-2.0527,-2.0399,-2.0118,-1.999,-1.9926,-1.9862,-1.9798,-1.9798,-1.9798,-1.9798,-1.9798,-1.9798,-1.9798,-1.9798,-1.9798,-1.9798,-1.9798,-1.9798,-1.9798,-1.9798,-1.9798,-1.9552,-1.9251,-1.9093,-1.8946,-1.8679,-1.8333,-1.8333,-1.8321,-1.7534,-1.7045,-1.7034,-1.6255,-1.5748,-1.5584,-1.5526,-1.5468,-1.542,-1.542,-1.542,-1.542,-1.542,-1.542,-1.542,-1.542,-1.542,-1.5352,-1.5284,-1.5168,-1.5196,-1.509,-1.46,-1.3981,-1.3217,-1.2348,-1.148,-1.0697,-1.0135,-0.9877,-0.9596,-0.9365,-0.9272,-0.917,-0.9103,-0.8918,-0.8718,-0.8584,-0.8379,-0.8003,-0.7589,-0.7127,-0.6798,-0.6354,-0.5899,-0.5428,-0.5195,-0.4901,-0.4901,-0.4912,-0.4901,-0.4846,-0.4739,-0.4688,-0.4684,-0.4629,-0.4574,-0.4574,-0.4625,-0.457,-0.4519,-0.4574,-0.4684,-0.4791,-0.4842,-0.4901,-0.4791,-0.4622,-2.6718,-2.6703,-2.6457,-2.6474,-2.6655,-2.6534,-2.6546,-2.6561,-2.609,-2.5313,-2.4258,-2.3104,-2.2295,-2.1773,-2.1328,-2.0989,-2.0809,-2.0553,-2.0296,-2.0144,-1.9978,-1.9926,-1.9862,-1.9862,-1.9798,-1.9798,-1.9798,-1.9798,-1.9798,-1.9798,-1.9798,-1.9798,-1.9798,-1.9798,-1.9798,-1.9798,-1.9798,-1.9798,-1.9798,-1.9656,-1.9408,-1.9316,-1.9158,-1.8946,-1.8602,-1.8602,-1.8881,-1.7809,-1.7479,-1.7589,-1.6754,-1.6301,-1.6026,-1.5911,-1.5748,-1.5517,-1.54,-1.542,-1.542,-1.542,-1.542,-1.5391,-1.5371,-1.5361,-1.5342,-1.5079,-1.4992,-1.4762,-1.4514,-1.3923,-1.3146,-1.284,-1.2114,-1.1156,-1.0371,-0.9932,-0.9555,-0.9261,-0.8998,-0.8918,-0.8878,-0.879,-0.8625,-0.8527,-0.835,-0.7997,-0.7663,-0.6993,-0.647,-0.6246,-0.5854,-0.5415,-0.5022,-0.4908,-0.4794,-0.4736,-0.4736,-0.468,-0.4625,-0.4574,-0.4574,-0.4574,-0.4574,-0.4519,-0.4519,-0.4463,-0.446,-0.446,-0.4519,-0.4629,-0.4512,-0.4512,-0.457,-0.4291,-0.3956,-2.601,-2.598,-2.5749,-2.5707,-2.5712,-2.5787,-2.5591,-2.5292,-2.4974,-2.4373,-2.3426,-2.255,-2.183,-2.1348,-2.1059,-2.0749,-2.0549,-2.041,-2.0296,-2.0144,-1.9926,-1.9926,-1.9862,-1.9798,-1.9798,-1.9798,-1.9798,-1.9798,-1.9798,-1.9798,-1.9798,-1.9798,-1.9798,-1.9798,-1.9798,-1.9798,-1.9798,-1.9798,-1.9798,-1.9747,-1.9656,-1.9565,-1.946,-1.921,-1.8934,-1.8762,-1.8655,-1.8267,-1.7644,-1.782,-1.7368,-1.6743,-1.6404,-1.6073,-1.5853,-1.5517,-1.5244,-1.5225,-1.5176,-1.4895,-1.4827,-1.4827,-1.5078,-1.5107,-1.4943,-1.4567,-1.4424,-1.4244,-1.386,-1.3249,-1.2698,-1.2419,-1.1609,-1.0619,-0.9943,-0.9452,-0.9234,-0.8905,-0.8871,-0.8771,-0.8705,-0.8586,-0.8474,-0.8315,-0.8234,-0.7794,-0.7402,-0.6642,-0.5991,-0.5719,-0.55,-0.5011,-0.4739,-0.4684,-0.4629,-0.4574,-0.4574,-0.4519,-0.4463,-0.4463,-0.4519,-0.4519,-0.4519,-0.4463,-0.4463,-0.4463,-0.4405,-0.4405,-0.4294,-0.4073,-0.3849,-0.3959,-0.4128,-0.3793,-0.3347,-2.5302,-2.5179,-2.4579,-2.4691,-2.5083,-2.5042,-2.4567,-2.3897,-2.3688,-2.3169,-2.2424,-2.2247,-2.165,-2.0951,-2.1144,-2.1033,-2.0699,-2.0511,-2.041,-2.0296,-2.0029,-1.9978,-1.9926,-1.9862,-1.9798,-1.9798,-1.9798,-1.9798,-1.9798,-1.9798,-1.9798,-1.9798,-1.9798,-1.9798,-1.9798,-1.9798,-1.9798,-1.9798,-1.9798,-1.9747,-1.9708,-1.9708,-1.9512,-1.9316,-1.9158,-1.904,-1.8815,-1.8375,-1.8093,-1.7743,-1.7047,-1.6543,-1.6089,-1.5698,-1.5477,-1.5244,-1.4912,-1.4814,-1.4671,-1.4353,-1.4105,-1.4154,-1.4402,-1.4379,-1.4237,-1.4003,-1.3863,-1.3752,-1.3449,-1.2874,-1.2299,-1.1606,-1.0873,-1.0083,-0.9291,-0.9024,-0.8911,-0.8818,-0.8818,-0.8752,-0.8758,-0.8646,-0.8427,-0.8262,-0.8049,-0.7777,-0.7348,-0.6696,-0.6046,-0.555,-0.5226,-0.4791,-0.4574,-0.4519,-0.4519,-0.4519,-0.4519,-0.4463,-0.4463,-0.4463,-0.4463,-0.4463,-0.4408,-0.4408,-0.4463,-0.4411,-0.4359,-0.4132,-0.3796,-0.3574,-0.3294,-0.335,-0.3516,-0.307,-0.2681,-2.4594,-2.4579,-2.4379,-2.4414,-2.4426,-2.4164,-2.3891,-2.36,-2.2907,-2.2383,-2.2233,-2.2133,-2.1623,-2.0749,-2.0835,-2.0848,-2.0649,-2.0435,-2.0347,-2.0182,-2.008,-1.9914,-1.9862,-1.985,-1.9798,-1.9798,-1.9798,-1.9798,-1.9798,-1.9798,-1.9798,-1.9798,-1.9723,-1.9748,-1.9672,-1.9683,-1.9672,-1.9684,-1.9672,-1.9708,-1.9631,-1.9567,-1.9371,-1.9242,-1.9012,-1.8895,-1.8672,-1.8247,-1.7989,-1.7795,-1.7015,-1.6395,-1.5835,-1.5382,-1.5016,-1.4502,-1.4321,-1.4227,-1.4208,-1.3994,-1.3676,-1.3428,-1.3523,-1.3758,-1.371,-1.3542,-1.3266,-1.3167,-1.2846,-1.2274,-1.1559,-1.0845,-1.018,-0.9499,-0.8962,-0.8857,-0.8752,-0.8752,-0.8752,-0.8699,-0.8646,-0.8487,-0.8321,-0.8049,-0.7836,-0.7622,-0.7241,-0.6647,-0.6154,-0.5605,-0.5117,-0.4625,-0.446,-0.446,-0.446,-0.446,-0.4463,-0.4463,-0.4463,-0.4408,-0.4356,-0.4301,-0.4298,-0.4301,-0.4304,-0.4311,-0.4262,-0.3919,-0.3466,-0.3074,-0.285,-0.285,-0.2794,-0.2348,-0.2068,-2.4302,-2.4302,-2.4302,-2.4276,-2.4151,-2.3864,-2.3736,-2.3505,-2.2556,-2.2143,-2.2175,-2.2374,-2.186,-2.1118,-2.1215,-2.1118,-2.0712,-2.0549,-2.0448,-2.0398,-2.0067,-2.0016,-1.9965,-1.985,-1.9798,-1.9798,-1.9798,-1.9798,-1.9761,-1.9761,-1.9761,-1.9472,-1.9497,-1.9283,-1.9071,-1.8896,-1.8896,-1.912,-1.9281,-1.953,-1.9426,-1.9199,-1.901,-1.8794,-1.8542,-1.8255,-1.81,-1.7617,-1.7319,-1.7126,-1.6337,-1.5807,-1.5252,-1.4836,-1.446,-1.4009,-1.3763,-1.3652,-1.3595,-1.3309,-1.3077,-1.2884,-1.2757,-1.2861,-1.2917,-1.2842,-1.2767,-1.266,-1.2131,-1.1578,-1.0846,-1.0167,-0.9569,-0.891,-0.8857,-0.8752,-0.8745,-0.8692,-0.8639,-0.8586,-0.8487,-0.8321,-0.8109,-0.7842,-0.7574,-0.7354,-0.6918,-0.6317,-0.5882,-0.5496,-0.5062,-0.4625,-0.4515,-0.446,-0.446,-0.4353,-0.4353,-0.4298,-0.4242,-0.419,-0.4135,-0.4135,-0.419,-0.4196,-0.4203,-0.4039,-0.3814,-0.3477,-0.3081,-0.2631,-0.2069,-0.179,-0.1734,-0.1567,-0.1399,-2.4302,-2.4302,-2.4302,-2.4276,-2.4181,-2.4085,-2.3943,-2.3709,-2.2747,-2.2181,-2.2239,-2.2618,-2.2142,-2.1313,-2.1492,-2.1313,-2.0934,-2.0699,-2.0586,-2.0649,-2.0246,-2.008,-1.9965,-1.9901,-1.971,-1.9736,-1.9673,-1.951,-1.9585,-1.9459,-1.9196,-1.8982,-1.8957,-1.8758,-1.8421,-1.8298,-1.83,-1.8314,-1.8709,-1.9015,-1.8978,-1.8755,-1.8435,-1.8212,-1.7623,-1.7041,-1.6781,-1.6384,-1.5935,-1.5782,-1.5318,-1.4966,-1.4365,-1.4031,-1.3724,-1.3552,-1.3223,-1.3086,-1.2982,-1.272,-1.251,-1.2299,-1.2194,-1.2277,-1.2391,-1.241,-1.2373,-1.2163,-1.1696,-1.1108,-1.0431,-0.9969,-0.9465,-0.8949,-0.8745,-0.8692,-0.8586,-0.858,-0.8527,-0.848,-0.8381,-0.8221,-0.8002,-0.7788,-0.7408,-0.7079,-0.648,-0.5878,-0.5496,-0.5222,-0.4897,-0.446,-0.4405,-0.4298,-0.4242,-0.4187,-0.4132,-0.4079,-0.4079,-0.4021,-0.4021,-0.4024,-0.4027,-0.4033,-0.3987,-0.3477,-0.314,-0.2633,-0.2128,-0.1736,-0.1232,-0.0672,-0.056,-0.0784,-0.0896,-2.4302,-2.4302,-2.4302,-2.4276,-2.4276,-2.4254,-2.4128,-2.3897,-2.3466,-2.2783,-2.2235,-2.2175,-2.1846,-2.1215,-2.1492,-2.1313,-2.0898,-2.0835,-2.0723,-2.0459,-2.0169,-1.9953,-1.9889,-1.9674,-1.9522,-1.9309,-1.9158,-1.9032,-1.8832,-1.8694,-1.8593,-1.843,-1.8392,-1.8194,-1.7959,-1.7875,-1.778,-1.7626,-1.7751,-1.8044,-1.7971,-1.7958,-1.7776,-1.7605,-1.7206,-1.7037,-1.6842,-1.652,-1.6355,-1.6216,-1.4959,-1.4013,-1.3084,-1.2943,-1.2843,-1.2755,-1.2695,-1.2598,-1.2501,-1.2317,-1.2194,-1.2175,-1.2126,-1.2076,-1.2135,-1.2126,-1.2026,-1.1678,-1.1267,-1.0651,-1.0131,-0.9777,-0.9413,-0.9001,-0.8633,-0.858,-0.8474,-0.8421,-0.8368,-0.8321,-0.8275,-0.8062,-0.7842,-0.7515,-0.7187,-0.6583,-0.5819,-0.5218,-0.4952,-0.4677,-0.4515,-0.4242,-0.4132,-0.4076,-0.4021,-0.4024,-0.3965,-0.3968,-0.3968,-0.391,-0.3852,-0.3802,-0.3805,-0.3814,-0.3764,-0.32,-0.2411,-0.1401,-0.0953,-0.0,-0.0728,-0.0393,-0.0336,-0.0504,-0.0505,-2.4302,-2.4302,-2.4302,-2.4302,-2.4276,-2.4284,-2.4185,-2.3955,-2.3729,-2.3156,-2.2512,-2.242,-2.1988,-2.1396,-2.1636,-2.1237,-2.0822,-2.0885,-2.0736,-2.0422,-1.9901,-1.9686,-1.9547,-1.9309,-1.8932,-1.8694,-1.8656,-1.8493,-1.8154,-1.8191,-1.8216,-1.7903,-1.7827,-1.7739,-1.753,-1.7293,-1.7226,-1.6968,-1.6914,-1.6868,-1.6951,-1.7001,-1.7122,-1.7003,-1.6681,-1.6575,-1.6173,-1.5827,-1.543,-1.5105,-1.4086,-1.3658,-1.3008,-1.2802,-1.2567,-1.237,-1.2262,-1.2224,-1.2175,-1.2126,-1.2076,-1.2076,-1.2076,-1.2076,-1.2076,-1.2076,-1.2026,-1.1678,-1.1276,-1.0651,-1.0293,-0.994,-0.9368,-0.8956,-0.8639,-0.8427,-0.8321,-0.8215,-0.8162,-0.8062,-0.7895,-0.7456,-0.7074,-0.6312,-0.6041,-0.5769,-0.5003,-0.4673,-0.4405,-0.4298,-0.4076,-0.3965,-0.3965,-0.391,-0.3907,-0.391,-0.3855,-0.3855,-0.3858,-0.3802,-0.3747,-0.3638,-0.3588,-0.3423,-0.3203,-0.2753,-0.1909,-0.0,-0.0,-0.0,-0.0,-0.0224,-0.0,-0.0,-0.0,-2.4302,-2.4302,-2.4302,-2.4302,-2.4291,-2.4273,-2.4173,-2.3997,-2.3696,-2.3392,-2.3024,-2.2979,-2.2649,-2.2267,-2.2175,-2.1438,-2.1032,-2.0946,-2.0833,-2.0093,-1.9561,-1.9239,-1.8951,-1.8614,-1.8364,-1.8103,-1.7965,-1.7928,-1.7777,-1.7752,-1.7564,-1.7313,-1.7162,-1.7036,-1.6542,-1.6331,-1.6379,-1.632,-1.6199,-1.6001,-1.6053,-1.62,-1.6404,-1.617,-1.5705,-1.5222,-1.5017,-1.4789,-1.4326,-1.4031,-1.3751,-1.3288,-1.2968,-1.2666,-1.2421,-1.2224,-1.2126,-1.2126,-1.2126,-1.2126,-1.2076,-1.2026,-1.2076,-1.2026,-1.1977,-1.1877,-1.1828,-1.146,-1.1006,-1.0608,-1.0198,-0.9784,-0.9218,-0.8798,-0.8533,-0.8268,-0.8109,-0.8008,-0.7901,-0.7848,-0.7408,-0.6966,-0.6312,-0.555,-0.5058,-0.4787,-0.446,-0.4187,-0.3968,-0.3968,-0.3858,-0.3802,-0.3802,-0.3799,-0.3796,-0.3799,-0.3747,-0.3749,-0.3694,-0.3641,-0.3588,-0.3591,-0.3312,-0.2747,-0.2469,-0.1853,-0.0,-0.0,-0.0,-0.0,-0.0,-0.0,-0.0,-0.0,-0.0,-2.4302,-2.4302,-2.4302,-2.4302,-2.4291,-2.4273,-2.4189,-2.3982,-2.3739,-2.3551,-2.3405,-2.3348,-2.2995,-2.2114,-2.2603,-2.1978,-2.0644,-2.077,-2.0,-1.9063,-1.8965,-1.8678,-1.8409,-1.8122,-1.7937,-1.7601,-1.7225,-1.6923,-1.7162,-1.7036,-1.6848,-1.676,-1.6735,-1.6616,-1.6566,-1.6392,-1.6306,-1.6144,-1.6057,-1.5969,-1.5836,-1.5912,-1.5912,-1.5843,-1.5808,-1.5659,-1.5603,-1.5603,-1.5468,-1.5142,-1.4305,-1.3457,-1.2987,-1.2559,-1.2323,-1.2175,-1.2076,-1.2076,-1.2076,-1.2076,-1.2026,-1.1819,-1.1819,-1.1728,-1.1619,-1.1418,-1.1209,-1.083,-1.0379,-0.9873,-0.9465,-0.9106,-0.8586,-0.8427,-0.8168,-0.8008,-0.7901,-0.7788,-0.7681,-0.7408,-0.6966,-0.6529,-0.6036,-0.5382,-0.4838,-0.4512,-0.4184,-0.391,-0.3749,-0.3694,-0.3638,-0.3694,-0.3691,-0.3638,-0.3638,-0.3638,-0.3638,-0.3641,-0.353,-0.3416,-0.3421,-0.3602,-0.3263,-0.2923,-0.157,-0.0561,-0.0,-0.0,-0.0,-0.0,-0.0,-0.0,-0.0,-0.0,-0.0]},{"header":{"parameterUnit":"m.s-1","parameterCategory":1,"la1":31.0,"la2":29.5877,"lo1":-88.7671,"lo2":-86.6584,"dy":0.0162,"dx":0.0185,"nx":115,"ny":88,"refTime":"2023-10-06T12:00:00:Z","depth":0,"parameterNumber":3,"parameterNumberName":"V-component_of_WINDS"},"data":[0.0,0.0,0.0,0.0,0.0,0.0,0.0,0.0,0.0,0.0,0.0,0.0,0.0,0.0,0.0,0.0,0.0,0.0,0.0,0.0,0.0,0.0,0.0,0.0,0.0,0.0,0.0,0.0,0.0,0.0,0.0,0.0,0.0,0.0,0.0,0.0,0.0,0.0,0.0,0.0,0.0,0.0,0.0,0.0,0.0,0.0,0.0,0.0,0.0,0.0,0.0,0.0,0.0,0.0,0.0,0.0,0.0,0.0,0.0,0.0,0.0,0.0,0.0,0.0,0.0,0.0,0.0,0.0,0.0,0.0,0.0,0.0,0.0,0.0,0.0,0.0,0.0,0.0,0.0,0.0,0.0,0.0,0.0,0.0,0.0,0.0,0.0,0.0,0.0,0.0,0.0,0.0,0.0,0.0,0.0,0.0,0.0,0.0,0.0,0.0,0.0,0.0,0.0,0.0,0.0,0.0,0.0,0.0,0.0,0.0,0.0,0.0,0.0,0.0,0.0,0.0,0.0,0.0,0.0,0.0,0.0,0.0,0.0,0.0,0.0,0.0,0.0,0.0,0.0,0.0,0.0,0.0,0.0,0.0,0.0,0.0,0.0,0.0,0.0,0.0,0.0,0.0,0.0,0.0,0.0,0.0,0.0,0.0,0.0,0.0,0.0,0.0,0.0,0.0,0.0,0.0,0.0,0.0,0.0,0.0,0.0,0.0,0.0,0.0,0.0,0.0,0.0,0.0,0.0,0.0,0.0,0.0,0.0,0.0,0.0,0.0,0.0,0.0,0.0,0.0,0.0,0.0,0.0,0.0,0.0,0.0,0.0,0.0,0.0,0.0,0.0,0.0,0.0,0.0,0.0,0.0,0.0,0.0,0.0,0.0,0.0,0.0,0.0,0.0,0.0,0.0,0.0,0.0,0.0,0.0,0.0,0.0,0.0,0.0,0.0,0.0,0.0,0.0,0.0,0.0,0.0,0.0,0.0,0.0,0.0,0.0,0.0,0.0,0.0,0.0,0.0,0.0,0.0,0.0,0.0,0.0,0.0,0.0,0.0,0.0,0.0,0.0,0.0,0.0,0.0,0.0,0.0,0.0,0.0,0.0,0.0,0.0,0.0,0.0,0.0,0.0,0.0,0.0,0.0,0.0,0.0,0.0,0.0,0.0,0.0,0.0,0.0,0.0,0.0,0.0,0.0,0.0,0.0,0.0,0.0,0.0,0.0,0.0,0.0,0.0,0.0,0.0,0.0,0.0,0.0,0.0,0.0,0.0,0.0,0.0,0.0,0.0,0.0,0.0,0.0,0.0,0.0,0.0,0.0,0.0,0.0,0.0,0.0,0.0,0.0,0.0,0.0,0.0,0.0,0.0,0.0,0.0,0.0,0.0,0.0,0.0,0.0,0.0,0.0,0.0,0.0,0.0,0.0,0.0,0.0,0.0,0.0,0.0,0.0,0.0,0.0,0.0,0.0,0.0,0.0,0.0,0.0,0.0,0.0,0.0,0.0,0.0,0.0,0.0,0.0,0.0,0.0,0.0,0.0,0.0,0.0,0.0,0.0,0.0,0.0,0.0,0.0,0.0,0.0,0.0,0.0,0.0,0.0,0.0,0.0,0.0,0.0,0.0,0.0,0.0,0.0,0.0,0.0,0.0,0.0,0.0,0.0,0.0,0.0,0.0,0.0,0.0,0.0,0.0,0.0,0.0,0.0,0.0,0.0,0.0,0.0,0.0,0.0,0.0,0.0,0.0,0.0,0.0,0.0,0.0,0.0,0.0,0.0,0.0,0.0,0.0,0.0,0.0,0.0,0.0,0.0,0.0,0.0,0.0,0.0,0.0,0.0,0.0,0.0,0.0,0.0,0.0,0.0,0.0,0.0,0.0,0.0,0.0,0.0,0.0,0.0,0.0,0.0,0.0,0.0,0.0,0.0,0.0,0.0,0.0,0.0,0.0,0.0,0.0,0.0,0.0,0.0,0.0,0.0,0.0,0.0,0.0,0.0,0.0,0.0,0.0,0.0,0.0,0.0,0.0,0.0,0.0,0.0,0.0,0.0,0.0,0.0,0.0,0.0,0.0,0.0,0.0,0.0,0.0,0.0,0.0,0.0,0.0,0.0,0.0,0.0,0.0,0.0,0.0,0.0,0.0,0.0,0.0,0.0,0.0,0.0,0.0,0.0,0.0,0.0,0.0,0.0,0.0,0.0,0.0,0.0,0.0,0.0,0.0,0.0,0.0,0.0,0.0,0.0,0.0,0.0,0.0,0.0,0.0,0.0,0.0,0.0,0.0,0.0,0.0,0.0,0.0,0.0,0.0,0.0,0.0,0.0,0.0,0.0,0.0,0.0,0.0,0.0,0.0,0.0,0.0,0.0,0.0,0.0,0.0,0.0,0.0,0.0,0.0,0.0,0.0,0.0,0.0,0.0,0.0,0.0,0.0,0.0,0.0,0.0,0.0,0.0,0.0,0.0,0.0,0.0,0.0,0.0,0.0,0.0,0.0,0.0,0.0,0.0,0.0,0.0,0.0,0.0,0.0,0.0,0.0,0.0,0.0,0.0,0.0,0.0,0.0,0.0,0.0,0.0,0.0,0.0,0.0,0.0,0.0,0.0,0.0,0.0,0.0,0.0,0.0,0.0,0.0,0.0,0.0,0.0,0.0,0.0,0.0,0.0,0.0,0.0,0.0,0.0,0.0,0.0,0.0,0.0,0.0,0.0,0.0,0.0,0.0,0.0,0.0,0.0,0.0,0.0,0.0,0.0,0.0,0.0,0.0,0.0,0.0,0.0,0.0,0.0,0.0,0.0,0.0,0.0,0.0,0.0,0.0,0.0,0.0,0.0,0.0,0.0,0.0,0.0,0.0,0.0,0.0,0.0,0.0,0.0,0.0,0.0,0.0,0.0,0.0,0.0,0.0,0.0,0.0,0.0,0.0,0.0,0.0,0.0,0.0,0.0,0.0,0.0,0.0,0.0,0.0,0.0,0.0,0.0,0.0,0.0,0.0,0.0,0.0,0.0,0.0,0.0,0.0,0.0,0.0,0.0,0.0,0.0,0.0,0.0,0.0,0.0,0.0,0.0,0.0,0.0,0.0,0.0,0.0,0.0,0.0,0.0,0.0,0.0,0.0,0.0,0.0,0.0,0.0,0.0,0.0,0.0,0.0,0.0,0.0,0.0,0.0,0.0,0.0,0.0,0.0,0.0,0.0,0.0,0.0,0.0,0.0,0.0,0.0,0.0,0.0,0.0,0.0,0.0,0.0,0.0,0.0,0.0,0.0,0.0,0.0,0.0,0.0,0.0,0.0,0.0,0.0,0.0,0.0,0.0,0.0,0.0,0.0,0.0,0.0,0.0,0.0,0.0,0.0,0.0,0.0,0.0,0.0,0.0,0.0,0.0,0.0,0.0,0.0,0.0,0.0,0.0,0.0,0.0,0.0,0.0,0.0,0.0,0.0,0.0,0.0,0.0,0.0,0.0,0.0,0.0,0.0,0.0,0.0,0.0,0.0,0.0,0.0,0.0,0.0,0.0,0.0,0.0,0.0,0.0,0.0,0.0,0.0,0.0,0.0,0.0,0.0,0.0,0.0,0.0,0.0,0.0,0.0,0.0,0.0,0.0,0.0,0.0,0.0,0.0,0.0,0.0,0.0,0.0,0.0,0.0,0.0,0.0,0.0,0.0,0.0,0.0,0.0,0.0,0.0,0.0,0.0,0.0,0.0,0.0,0.0,0.0,0.0,0.0,0.0,0.0,0.0,0.0,0.0,0.0,0.0,0.0,0.0,0.0,0.0,0.0,0.0,0.0,0.0,0.0,0.0,0.0,0.0,0.0,0.0,0.0,0.0,0.0,0.0,0.0,0.0,0.0,0.0,0.0,0.0,0.0,0.0,0.0,0.0,0.0,0.0,0.0,0.0,0.0,0.0,0.0,0.0,0.0,0.0,0.0,0.0,0.0,0.0,0.0,0.0,0.0,0.0,0.0,0.0,0.0,0.0,0.0,0.0,0.0,0.0,0.0,0.0,0.0,0.0,0.0,0.0,0.0,0.0,0.0,0.0,0.0,0.0,0.0,0.0,0.0,0.0,0.0,0.0,0.0,0.0,0.0,0.0,0.0,0.0,0.0,0.0,0.0,0.0,0.0,0.0,0.0,0.0,0.0,0.0,0.0,0.0,0.0,0.0,0.0,0.0,0.0,0.0,0.0,0.0,0.0,0.0,0.0,0.0,0.0,0.0,0.0,0.0,0.0,0.0,0.0,0.0,0.0,0.0,-2.1772,0.0,0.0,0.0,0.0,0.0,0.0,0.0,0.0,0.0,0.0,0.0,0.0,0.0,0.0,0.0,0.0,0.0,0.0,0.0,0.0,0.0,0.0,0.0,0.0,0.0,0.0,0.0,0.0,0.0,0.0,0.0,0.0,0.0,0.0,0.0,0.0,0.0,0.0,0.0,0.0,0.0,0.0,0.0,0.0,0.0,0.0,0.0,0.0,0.0,0.0,0.0,0.0,0.0,0.0,0.0,0.0,0.0,0.0,0.0,0.0,0.0,0.0,0.0,0.0,0.0,0.0,0.0,0.0,0.0,0.0,0.0,0.0,0.0,0.0,0.0,0.0,0.0,0.0,0.0,0.0,0.0,0.0,0.0,0.0,0.0,0.0,0.0,0.0,0.0,0.0,0.0,0.0,0.0,0.0,0.0,0.0,0.0,0.0,0.0,0.0,0.0,0.0,0.0,0.0,0.0,0.0,0.0,0.0,0.0,0.0,-2.4015,-2.3991,-2.3082,-2.2596,-2.2585,0.0,0.0,0.0,0.0,0.0,0.0,0.0,0.0,0.0,0.0,0.0,0.0,0.0,0.0,0.0,0.0,0.0,0.0,0.0,0.0,0.0,0.0,0.0,0.0,0.0,0.0,0.0,0.0,0.0,0.0,0.0,0.0,0.0,0.0,0.0,0.0,0.0,0.0,0.0,0.0,0.0,0.0,0.0,0.0,0.0,0.0,0.0,0.0,0.0,0.0,0.0,0.0,0.0,0.0,0.0,0.0,0.0,0.0,0.0,0.0,0.0,0.0,0.0,0.0,0.0,0.0,0.0,0.0,0.0,0.0,0.0,0.0,0.0,0.0,0.0,0.0,0.0,0.0,0.0,0.0,0.0,0.0,0.0,0.0,0.0,0.0,0.0,0.0,0.0,0.0,0.0,0.0,0.0,0.0,0.0,0.0,0.0,0.0,0.0,0.0,0.0,0.0,0.0,0.0,0.0,0.0,0.0,0.0,0.0,0.0,0.0,0.0,-2.3942,-2.3273,-2.3038,0.0,0.0,0.0,0.0,0.0,0.0,0.0,0.0,0.0,0.0,0.0,0.0,0.0,0.0,0.0,0.0,0.0,0.0,0.0,0.0,0.0,0.0,0.0,0.0,0.0,0.0,0.0,0.0,0.0,0.0,0.0,0.0,0.0,0.0,0.0,0.0,0.0,0.0,0.0,0.0,0.0,0.0,0.0,0.0,0.0,0.0,0.0,0.0,0.0,0.0,0.0,0.0,0.0,0.0,0.0,0.0,0.0,0.0,0.0,0.0,0.0,0.0,0.0,0.0,0.0,0.0,0.0,0.0,0.0,0.0,0.0,0.0,0.0,0.0,0.0,0.0,0.0,0.0,0.0,0.0,0.0,0.0,0.0,0.0,0.0,0.0,0.0,0.0,0.0,0.0,0.0,0.0,0.0,0.0,0.0,0.0,0.0,0.0,0.0,0.0,0.0,0.0,0.0,0.0,0.0,0.0,0.0,0.0,0.0,0.0,-2.5052,-2.504,-2.4342,0.0,-2.2716,0.0,0.0,0.0,0.0,0.0,0.0,0.0,0.0,0.0,0.0,0.0,0.0,0.0,0.0,0.0,0.0,0.0,0.0,0.0,0.0,0.0,0.0,0.0,0.0,0.0,0.0,0.0,0.0,0.0,0.0,0.0,0.0,0.0,0.0,0.0,0.0,0.0,0.0,0.0,0.0,0.0,0.0,0.0,0.0,0.0,0.0,0.0,0.0,0.0,0.0,0.0,0.0,0.0,0.0,0.0,0.0,0.0,0.0,0.0,0.0,0.0,0.0,0.0,0.0,0.0,0.0,0.0,0.0,0.0,0.0,0.0,0.0,0.0,0.0,0.0,0.0,0.0,0.0,0.0,0.0,0.0,0.0,0.0,0.0,0.0,0.0,0.0,0.0,0.0,0.0,0.0,0.0,0.0,0.0,0.0,0.0,0.0,0.0,0.0,0.0,0.0,0.0,0.0,0.0,0.0,0.0,0.0,0.0,0.0,0.0,-2.5241,-2.5253,-2.4381,-2.3537,0.0,0.0,0.0,0.0,0.0,0.0,0.0,0.0,0.0,0.0,0.0,0.0,0.0,0.0,0.0,0.0,0.0,0.0,0.0,0.0,0.0,0.0,0.0,0.0,0.0,0.0,0.0,0.0,0.0,0.0,0.0,0.0,0.0,0.0,0.0,0.0,0.0,0.0,0.0,0.0,0.0,0.0,0.0,0.0,0.0,0.0,0.0,0.0,0.0,0.0,0.0,0.0,0.0,0.0,0.0,0.0,0.0,0.0,0.0,0.0,0.0,0.0,0.0,0.0,0.0,0.0,0.0,0.0,0.0,0.0,0.0,0.0,0.0,0.0,0.0,0.0,0.0,0.0,0.0,0.0,0.0,0.0,0.0,0.0,0.0,0.0,0.0,0.0,0.0,0.0,0.0,0.0,0.0,0.0,0.0,0.0,0.0,0.0,0.0,0.0,0.0,0.0,0.0,0.0,0.0,0.0,0.0,0.0,0.0,0.0,-2.5168,-2.5155,-2.5264,-2.4578,-2.3881,-2.3232,0.0,0.0,0.0,0.0,0.0,0.0,0.0,0.0,0.0,0.0,0.0,0.0,0.0,0.0,0.0,0.0,0.0,0.0,0.0,0.0,0.0,0.0,0.0,0.0,0.0,0.0,0.0,0.0,0.0,0.0,0.0,0.0,0.0,0.0,0.0,0.0,0.0,0.0,0.0,0.0,0.0,0.0,0.0,0.0,0.0,0.0,0.0,0.0,0.0,0.0,0.0,0.0,0.0,0.0,0.0,0.0,0.0,0.0,0.0,0.0,0.0,0.0,0.0,0.0,0.0,0.0,0.0,0.0,0.0,0.0,0.0,0.0,0.0,0.0,0.0,0.0,0.0,0.0,0.0,0.0,0.0,0.0,0.0,0.0,0.0,0.0,0.0,0.0,0.0,0.0,0.0,0.0,0.0,0.0,0.0,0.0,0.0,0.0,0.0,0.0,0.0,0.0,0.0,0.0,0.0,0.0,0.0,0.0,-2.5264,-2.4819,-2.4795,-2.5288,-2.5252,-2.4759,0.0,0.0,0.0,0.0,0.0,0.0,0.0,0.0,0.0,0.0,0.0,0.0,0.0,0.0,0.0,0.0,0.0,0.0,0.0,0.0,0.0,0.0,0.0,0.0,0.0,0.0,0.0,0.0,0.0,0.0,0.0,0.0,0.0,0.0,0.0,0.0,0.0,0.0,0.0,0.0,0.0,0.0,0.0,0.0,0.0,0.0,0.0,0.0,0.0,0.0,0.0,0.0,0.0,0.0,0.0,0.0,0.0,0.0,0.0,0.0,0.0,0.0,0.0,0.0,0.0,0.0,0.0,0.0,0.0,0.0,0.0,0.0,0.0,0.0,0.0,0.0,0.0,0.0,0.0,0.0,0.0,0.0,0.0,0.0,0.0,0.0,0.0,0.0,0.0,0.0,0.0,0.0,0.0,0.0,0.0,0.0,0.0,0.0,0.0,0.0,0.0,0.0,0.0,0.0,0.0,0.0,0.0,0.0,0.0,-2.5469,-2.5661,-2.6079,-2.668,-2.6044,-2.542,0.0,0.0,0.0,0.0,0.0,0.0,0.0,0.0,0.0,0.0,0.0,0.0,0.0,0.0,0.0,0.0,0.0,0.0,0.0,0.0,0.0,0.0,0.0,0.0,0.0,0.0,0.0,0.0,0.0,0.0,0.0,0.0,0.0,0.0,0.0,0.0,0.0,0.0,0.0,0.0,0.0,0.0,0.0,0.0,0.0,0.0,0.0,0.0,0.0,0.0,0.0,0.0,0.0,0.0,0.0,0.0,0.0,0.0,0.0,0.0,0.0,0.0,0.0,0.0,0.0,0.0,0.0,0.0,0.0,0.0,0.0,0.0,0.0,0.0,0.0,0.0,0.0,0.0,0.0,0.0,0.0,0.0,0.0,0.0,0.0,0.0,0.0,0.0,0.0,0.0,0.0,0.0,0.0,0.0,0.0,0.0,0.0,0.0,0.0,0.0,0.0,0.0,0.0,0.0,0.0,0.0,0.0,0.0,0.0,-2.5917,0.0,-2.6725,-2.7144,-2.6452,-2.5863,0.0,0.0,0.0,0.0,0.0,0.0,0.0,0.0,0.0,0.0,0.0,0.0,0.0,0.0,0.0,0.0,0.0,0.0,0.0,0.0,0.0,0.0,0.0,0.0,0.0,0.0,0.0,0.0,0.0,0.0,0.0,0.0,0.0,0.0,0.0,0.0,0.0,0.0,0.0,0.0,0.0,0.0,0.0,0.0,0.0,0.0,0.0,0.0,0.0,0.0,0.0,0.0,0.0,0.0,0.0,0.0,0.0,0.0,0.0,0.0,0.0,0.0,0.0,0.0,0.0,0.0,0.0,0.0,0.0,0.0,0.0,0.0,0.0,0.0,0.0,0.0,0.0,0.0,0.0,0.0,0.0,0.0,0.0,0.0,0.0,0.0,0.0,0.0,0.0,0.0,0.0,0.0,0.0,0.0,0.0,0.0,0.0,0.0,0.0,0.0,0.0,0.0,0.0,0.0,0.0,0.0,0.0,0.0,-2.6673,-2.6712,-2.656,-2.6573,-2.657,-2.6569,-2.6033,0.0,0.0,0.0,0.0,0.0,0.0,0.0,0.0,0.0,0.0,0.0,0.0,0.0,0.0,0.0,0.0,0.0,0.0,0.0,0.0,0.0,0.0,0.0,0.0,0.0,0.0,0.0,0.0,0.0,0.0,0.0,0.0,0.0,0.0,0.0,0.0,0.0,0.0,0.0,0.0,0.0,0.0,0.0,0.0,0.0,0.0,0.0,0.0,0.0,0.0,0.0,0.0,0.0,0.0,0.0,0.0,0.0,0.0,0.0,0.0,0.0,0.0,0.0,0.0,0.0,0.0,0.0,0.0,0.0,0.0,0.0,0.0,0.0,0.0,0.0,0.0,0.0,0.0,0.0,0.0,0.0,0.0,0.0,0.0,0.0,0.0,0.0,0.0,0.0,0.0,0.0,0.0,0.0,0.0,0.0,0.0,0.0,0.0,0.0,0.0,0.0,0.0,0.0,0.0,0.0,0.0,0.0,0.0,0.0,-2.8037,-2.8029,-2.817,-2.8601,-2.7844,-2.7239,0.0,0.0,0.0,0.0,0.0,0.0,0.0,0.0,0.0,0.0,0.0,0.0,0.0,0.0,0.0,0.0,0.0,0.0,0.0,0.0,0.0,0.0,0.0,0.0,0.0,0.0,0.0,0.0,0.0,0.0,0.0,0.0,0.0,0.0,0.0,0.0,0.0,0.0,0.0,0.0,0.0,0.0,0.0,0.0,0.0,0.0,0.0,0.0,0.0,0.0,0.0,0.0,0.0,0.0,0.0,0.0,0.0,0.0,0.0,0.0,0.0,0.0,0.0,0.0,0.0,0.0,0.0,0.0,0.0,0.0,0.0,0.0,0.0,0.0,0.0,0.0,0.0,0.0,0.0,0.0,0.0,0.0,0.0,0.0,0.0,0.0,0.0,0.0,0.0,0.0,0.0,0.0,0.0,0.0,0.0,0.0,0.0,0.0,0.0,0.0,0.0,0.0,0.0,0.0,0.0,0.0,0.0,0.0,0.0,-2.912,-2.8814,-2.8822,-2.9299,-2.8355,-2.7722,-2.7482,0.0,0.0,0.0,0.0,0.0,0.0,0.0,0.0,0.0,0.0,0.0,0.0,0.0,0.0,0.0,0.0,0.0,0.0,0.0,0.0,0.0,0.0,0.0,0.0,0.0,0.0,0.0,0.0,0.0,0.0,0.0,0.0,0.0,0.0,0.0,0.0,0.0,0.0,0.0,0.0,0.0,0.0,0.0,0.0,0.0,0.0,0.0,0.0,0.0,0.0,0.0,0.0,0.0,0.0,0.0,0.0,0.0,0.0,0.0,0.0,0.0,0.0,0.0,0.0,0.0,0.0,0.0,0.0,0.0,0.0,0.0,0.0,0.0,0.0,0.0,0.0,0.0,0.0,0.0,0.0,0.0,0.0,0.0,0.0,0.0,0.0,0.0,0.0,0.0,0.0,0.0,0.0,0.0,0.0,0.0,0.0,0.0,0.0,0.0,0.0,0.0,0.0,0.0,0.0,0.0,0.0,0.0,0.0,-3.0097,-2.9093,-2.8754,-2.8972,-2.8231,-2.7611,0.0,0.0,0.0,0.0,0.0,0.0,0.0,0.0,0.0,0.0,0.0,0.0,0.0,0.0,0.0,0.0,0.0,0.0,0.0,0.0,0.0,0.0,0.0,0.0,0.0,0.0,0.0,0.0,0.0,0.0,0.0,0.0,0.0,0.0,0.0,0.0,0.0,0.0,0.0,0.0,0.0,0.0,0.0,0.0,0.0,0.0,0.0,0.0,0.0,0.0,0.0,0.0,0.0,0.0,0.0,0.0,0.0,0.0,0.0,0.0,0.0,0.0,0.0,0.0,0.0,0.0,0.0,0.0,0.0,0.0,0.0,0.0,0.0,0.0,0.0,0.0,0.0,0.0,0.0,0.0,0.0,0.0,0.0,0.0,0.0,0.0,0.0,0.0,0.0,0.0,0.0,0.0,0.0,0.0,0.0,0.0,0.0,0.0,0.0,0.0,0.0,0.0,0.0,0.0,0.0,0.0,0.0,0.0,0.0,-3.0176,-2.9898,-2.9704,-2.9779,-2.868,-2.8025,0.0,0.0,0.0,0.0,0.0,0.0,0.0,0.0,0.0,0.0,0.0,0.0,0.0,0.0,0.0,0.0,0.0,0.0,0.0,0.0,0.0,0.0,0.0,0.0,0.0,0.0,0.0,0.0,0.0,0.0,0.0,0.0,0.0,0.0,0.0,0.0,0.0,0.0,0.0,0.0,0.0,0.0,0.0,0.0,0.0,0.0,0.0,0.0,0.0,0.0,0.0,0.0,0.0,0.0,0.0,0.0,0.0,0.0,0.0,0.0,0.0,0.0,0.0,0.0,0.0,0.0,0.0,0.0,0.0,0.0,0.0,0.0,0.0,0.0,0.0,0.0,0.0,0.0,0.0,0.0,0.0,0.0,0.0,0.0,0.0,0.0,0.0,0.0,0.0,0.0,0.0,0.0,0.0,0.0,0.0,0.0,0.0,0.0,0.0,0.0,0.0,0.0,0.0,0.0,0.0,0.0,0.0,0.0,-3.0012,-3.0447,-3.0341,-3.028,-3.028,-2.9199,-2.8541,0.0,0.0,0.0,0.0,0.0,0.0,0.0,0.0,0.0,0.0,0.0,0.0,0.0,0.0,0.0,0.0,0.0,0.0,0.0,0.0,0.0,0.0,0.0,0.0,0.0,0.0,0.0,0.0,0.0,0.0,0.0,0.0,0.0,0.0,0.0,0.0,0.0,0.0,0.0,0.0,0.0,0.0,0.0,0.0,0.0,0.0,0.0,0.0,0.0,0.0,0.0,0.0,0.0,0.0,0.0,0.0,0.0,0.0,0.0,0.0,0.0,0.0,0.0,0.0,0.0,0.0,0.0,0.0,0.0,0.0,0.0,0.0,0.0,0.0,0.0,0.0,0.0,0.0,0.0,0.0,0.0,0.0,0.0,0.0,0.0,0.0,0.0,0.0,0.0,0.0,0.0,0.0,0.0,0.0,0.0,0.0,0.0,0.0,0.0,0.0,0.0,0.0,0.0,0.0,0.0,0.0,0.0,0.0,-3.0315,-3.0568,-3.0642,-3.0642,-3.0553,-2.9736,-2.9,0.0,0.0,0.0,0.0,0.0,0.0,0.0,0.0,0.0,0.0,0.0,0.0,0.0,0.0,0.0,0.0,0.0,0.0,0.0,0.0,0.0,0.0,0.0,0.0,0.0,0.0,0.0,0.0,0.0,0.0,0.0,0.0,0.0,0.0,0.0,0.0,0.0,0.0,0.0,0.0,0.0,0.0,0.0,0.0,0.0,0.0,0.0,0.0,0.0,0.0,0.0,0.0,0.0,0.0,0.0,0.0,0.0,0.0,0.0,0.0,0.0,0.0,0.0,0.0,0.0,0.0,0.0,0.0,0.0,0.0,0.0,0.0,0.0,0.0,0.0,0.0,0.0,0.0,0.0,0.0,0.0,0.0,0.0,0.0,0.0,0.0,0.0,0.0,0.0,0.0,0.0,0.0,0.0,0.0,0.0,0.0,0.0,0.0,0.0,0.0,0.0,0.0,0.0,0.0,0.0,0.0,0.0,0.0,-3.0015,-3.0568,-3.0642,-3.0642,-3.0642,-2.9914,-2.9218,0.0,0.0,0.0,0.0,0.0,0.0,0.0,0.0,0.0,0.0,0.0,0.0,0.0,0.0,0.0,0.0,0.0,0.0,0.0,0.0,0.0,0.0,0.0,0.0,0.0,0.0,0.0,0.0,0.0,0.0,0.0,0.0,0.0,0.0,0.0,0.0,0.0,0.0,0.0,0.0,0.0,0.0,0.0,0.0,0.0,0.0,0.0,0.0,-2.8133,0.0,0.0,0.0,0.0,0.0,0.0,0.0,0.0,0.0,0.0,0.0,0.0,0.0,0.0,0.0,0.0,0.0,0.0,0.0,0.0,0.0,0.0,0.0,0.0,0.0,0.0,0.0,0.0,0.0,0.0,0.0,0.0,0.0,0.0,0.0,0.0,0.0,0.0,0.0,0.0,0.0,0.0,0.0,0.0,0.0,0.0,0.0,0.0,0.0,0.0,0.0,0.0,0.0,0.0,0.0,0.0,0.0,0.0,0.0,-2.9943,-3.0553,-3.0642,-3.0642,-3.0628,-3.0248,-2.9624,0.0,0.0,0.0,0.0,0.0,0.0,0.0,0.0,0.0,0.0,0.0,0.0,0.0,0.0,0.0,0.0,0.0,0.0,0.0,0.0,0.0,0.0,0.0,0.0,0.0,0.0,0.0,0.0,0.0,0.0,0.0,0.0,0.0,0.0,0.0,0.0,0.0,0.0,0.0,0.0,0.0,0.0,0.0,0.0,0.0,0.0,0.0,0.0,0.0,0.0,0.0,0.0,0.0,0.0,0.0,0.0,0.0,0.0,0.0,0.0,0.0,0.0,0.0,0.0,0.0,0.0,0.0,0.0,0.0,0.0,0.0,0.0,0.0,0.0,0.0,0.0,0.0,0.0,0.0,0.0,0.0,0.0,0.0,0.0,0.0,0.0,0.0,0.0,0.0,0.0,0.0,0.0,0.0,0.0,0.0,0.0,0.0,0.0,0.0,0.0,0.0,0.0,0.0,0.0,0.0,0.0,0.0,-2.9943,-2.9929,-3.0598,-3.0642,-3.0642,-3.0642,-3.0642,-2.9972,-2.8739,0.0,0.0,0.0,0.0,0.0,0.0,0.0,0.0,0.0,0.0,0.0,0.0,0.0,0.0,0.0,0.0,0.0,0.0,0.0,0.0,0.0,0.0,0.0,0.0,0.0,0.0,0.0,0.0,0.0,0.0,0.0,0.0,0.0,0.0,0.0,0.0,0.0,0.0,-2.8709,-2.9421,0.0,0.0,0.0,0.0,0.0,0.0,0.0,0.0,-2.938,0.0,0.0,0.0,0.0,0.0,0.0,0.0,0.0,0.0,0.0,0.0,0.0,0.0,0.0,0.0,0.0,0.0,0.0,0.0,0.0,0.0,0.0,0.0,0.0,0.0,0.0,0.0,0.0,0.0,0.0,0.0,0.0,0.0,0.0,0.0,0.0,0.0,0.0,0.0,0.0,0.0,0.0,0.0,0.0,0.0,0.0,0.0,0.0,0.0,0.0,0.0,0.0,0.0,0.0,0.0,0.0,-3.0613,-2.9943,-2.9929,-3.0553,-3.0642,-3.0642,-3.0642,-3.0642,-2.9972,-2.8768,0.0,0.0,0.0,0.0,0.0,0.0,0.0,0.0,0.0,0.0,0.0,0.0,0.0,0.0,0.0,0.0,0.0,0.0,0.0,0.0,0.0,0.0,0.0,0.0,0.0,0.0,0.0,0.0,0.0,0.0,0.0,0.0,0.0,0.0,0.0,0.0,0.0,0.0,0.0,-2.9448,-2.9918,0.0,0.0,0.0,0.0,0.0,0.0,0.0,0.0,-2.9633,0.0,0.0,0.0,0.0,0.0,0.0,0.0,0.0,0.0,0.0,0.0,0.0,0.0,0.0,0.0,0.0,0.0,0.0,0.0,0.0,0.0,0.0,0.0,0.0,0.0,0.0,0.0,0.0,0.0,0.0,0.0,0.0,0.0,0.0,0.0,0.0,0.0,0.0,0.0,0.0,0.0,0.0,0.0,0.0,0.0,0.0,0.0,0.0,0.0,0.0,0.0,0.0,0.0,0.0,0.0,-3.0408,-2.9624,-2.961,-3.0539,-3.0642,-3.0642,-3.0568,-3.0248,-2.9653,0.0,0.0,0.0,0.0,0.0,0.0,0.0,0.0,0.0,0.0,0.0,0.0,0.0,0.0,0.0,0.0,0.0,0.0,0.0,0.0,0.0,0.0,0.0,0.0,0.0,0.0,0.0,0.0,0.0,0.0,0.0,0.0,0.0,0.0,0.0,0.0,0.0,0.0,0.0,0.0,-2.9324,-2.9524,-3.0038,0.0,0.0,0.0,0.0,0.0,0.0,-3.0027,-3.0208,0.0,0.0,0.0,0.0,0.0,0.0,0.0,0.0,0.0,0.0,0.0,0.0,0.0,0.0,0.0,0.0,0.0,0.0,0.0,0.0,0.0,0.0,0.0,0.0,0.0,0.0,0.0,0.0,0.0,0.0,0.0,0.0,0.0,0.0,0.0,0.0,0.0,0.0,0.0,0.0,0.0,0.0,0.0,0.0,0.0,0.0,0.0,0.0,0.0,0.0,0.0,0.0,0.0,0.0,0.0,-3.0451,-2.9581,-2.9493,-3.035,-3.051,-3.0451,-3.0205,-2.9827,-2.9261,0.0,0.0,0.0,0.0,0.0,0.0,0.0,0.0,0.0,0.0,0.0,0.0,0.0,0.0,0.0,0.0,0.0,0.0,0.0,0.0,0.0,0.0,0.0,0.0,0.0,0.0,0.0,0.0,0.0,0.0,0.0,0.0,0.0,0.0,0.0,0.0,0.0,0.0,0.0,0.0,0.0,-2.9433,-3.0252,-2.9707,0.0,0.0,0.0,0.0,-3.0103,-3.0493,0.0,0.0,0.0,0.0,0.0,0.0,0.0,0.0,0.0,0.0,0.0,0.0,0.0,0.0,0.0,0.0,0.0,0.0,0.0,0.0,0.0,0.0,0.0,0.0,0.0,0.0,0.0,0.0,0.0,0.0,0.0,0.0,0.0,0.0,0.0,0.0,0.0,0.0,0.0,0.0,0.0,0.0,0.0,0.0,0.0,0.0,0.0,0.0,0.0,0.0,0.0,0.0,0.0,0.0,0.0,0.0,-3.0495,-3.0497,-3.0161,-2.9784,-3.0277,-3.0031,-2.8942,-2.9363,-2.9058,0.0,0.0,0.0,0.0,0.0,0.0,0.0,0.0,0.0,0.0,0.0,0.0,0.0,0.0,0.0,0.0,0.0,0.0,0.0,0.0,0.0,0.0,0.0,0.0,0.0,0.0,0.0,0.0,0.0,0.0,0.0,0.0,0.0,0.0,0.0,0.0,0.0,0.0,0.0,0.0,0.0,-3.0236,-3.0526,-3.0558,-3.0664,0.0,0.0,-3.0707,-3.0683,-3.0764,0.0,0.0,0.0,0.0,0.0,0.0,0.0,0.0,0.0,0.0,0.0,0.0,0.0,0.0,0.0,0.0,0.0,0.0,0.0,0.0,0.0,0.0,0.0,0.0,0.0,0.0,0.0,0.0,0.0,0.0,0.0,0.0,0.0,0.0,0.0,0.0,0.0,0.0,0.0,0.0,0.0,0.0,0.0,0.0,0.0,0.0,0.0,0.0,0.0,0.0,0.0,0.0,0.0,0.0,0.0,-2.8635,-3.0451,-2.9508,-2.9174,-2.961,-2.9537,-2.9232,-2.8695,-2.8594,-2.8233,0.0,0.0,0.0,0.0,0.0,0.0,0.0,0.0,0.0,0.0,0.0,0.0,0.0,0.0,0.0,0.0,0.0,0.0,0.0,0.0,0.0,0.0,0.0,0.0,0.0,0.0,0.0,0.0,0.0,0.0,0.0,0.0,0.0,0.0,0.0,0.0,0.0,0.0,0.0,0.0,0.0,0.0,-3.0468,-3.0436,0.0,0.0,0.0,-3.0965,-3.0658,0.0,0.0,0.0,0.0,0.0,0.0,0.0,0.0,0.0,0.0,0.0,0.0,0.0,0.0,0.0,0.0,0.0,0.0,0.0,0.0,0.0,0.0,0.0,0.0,0.0,0.0,0.0,0.0,0.0,0.0,0.0,0.0,0.0,0.0,0.0,0.0,0.0,0.0,0.0,0.0,0.0,0.0,0.0,0.0,0.0,0.0,0.0,0.0,0.0,0.0,0.0,0.0,0.0,0.0,0.0,0.0,0.0,-3.048,-2.884,-2.8419,-2.9348,-2.8913,-2.8536,-2.8216,-2.7952,0.0,0.0,0.0,0.0,0.0,0.0,0.0,0.0,0.0,0.0,0.0,0.0,0.0,0.0,0.0,0.0,0.0,0.0,0.0,0.0,0.0,0.0,0.0,0.0,0.0,0.0,0.0,-2.6168,0.0,0.0,0.0,0.0,0.0,0.0,0.0,0.0,0.0,0.0,0.0,0.0,0.0,0.0,-3.0135,-3.068,-3.0654,-3.0728,0.0,0.0,-3.1393,-3.1004,-3.1487,-3.1875,0.0,0.0,0.0,0.0,0.0,0.0,0.0,0.0,0.0,0.0,0.0,0.0,0.0,0.0,0.0,0.0,0.0,0.0,0.0,0.0,0.0,0.0,0.0,0.0,0.0,0.0,0.0,0.0,0.0,0.0,0.0,0.0,0.0,0.0,0.0,0.0,0.0,0.0,0.0,0.0,0.0,0.0,0.0,0.0,0.0,0.0,0.0,0.0,0.0,0.0,0.0,0.0,0.0,0.0,0.0,-3.0451,-2.9276,-2.8637,-2.8739,-2.8695,-2.8115,-2.6968,-2.7525,-2.7647,0.0,0.0,0.0,0.0,0.0,0.0,0.0,0.0,0.0,0.0,0.0,0.0,0.0,0.0,0.0,0.0,0.0,0.0,0.0,0.0,0.0,0.0,0.0,0.0,0.0,0.0,0.0,0.0,0.0,0.0,0.0,0.0,0.0,0.0,0.0,0.0,0.0,0.0,0.0,0.0,0.0,-3.1249,-3.1439,-3.1826,-3.2213,0.0,0.0,-3.2214,-3.2179,-3.2197,-3.2249,-3.2249,0.0,0.0,0.0,0.0,0.0,0.0,0.0,0.0,0.0,0.0,0.0,0.0,0.0,0.0,0.0,0.0,0.0,0.0,0.0,0.0,0.0,0.0,0.0,0.0,0.0,0.0,0.0,0.0,0.0,0.0,0.0,0.0,0.0,0.0,0.0,0.0,0.0,0.0,0.0,0.0,0.0,0.0,0.0,0.0,0.0,0.0,0.0,0.0,0.0,0.0,0.0,0.0,0.0,-2.8385,-3.0495,-2.8662,-2.8061,-2.8735,-2.8035,-2.7433,-2.7041,-2.7313,-2.738,0.0,0.0,0.0,0.0,0.0,0.0,0.0,0.0,0.0,0.0,0.0,0.0,0.0,0.0,0.0,0.0,0.0,0.0,0.0,0.0,0.0,0.0,0.0,0.0,0.0,0.0,0.0,0.0,-2.6203,-2.6385,-2.6816,0.0,0.0,0.0,0.0,0.0,0.0,0.0,0.0,0.0,0.0,-3.1456,-3.1497,-3.2056,0.0,0.0,-3.2197,-3.2231,-3.2109,-3.2214,-3.2352,-3.2454,-3.2386,0.0,0.0,0.0,0.0,0.0,0.0,0.0,0.0,0.0,0.0,0.0,0.0,0.0,0.0,0.0,0.0,0.0,0.0,0.0,0.0,0.0,0.0,0.0,0.0,0.0,0.0,0.0,0.0,0.0,0.0,0.0,0.0,0.0,0.0,0.0,0.0,0.0,0.0,0.0,0.0,0.0,0.0,0.0,0.0,0.0,0.0,0.0,0.0,0.0,0.0,0.0,0.0,-2.8261,-3.0718,-2.8305,-2.7671,-2.8931,-2.77,-2.7093,-2.7181,-2.7233,-2.7299,0.0,0.0,0.0,0.0,0.0,0.0,0.0,0.0,0.0,0.0,0.0,0.0,0.0,0.0,0.0,0.0,0.0,0.0,0.0,0.0,0.0,0.0,0.0,0.0,0.0,0.0,0.0,0.0,-2.6203,-2.6419,-2.6899,0.0,0.0,0.0,0.0,0.0,0.0,0.0,0.0,0.0,0.0,-3.1752,-3.1735,-3.2283,-3.2555,-3.2109,-3.2318,-3.2403,-3.23,-3.2369,-3.2539,-3.2672,0.0,0.0,0.0,0.0,0.0,0.0,0.0,0.0,0.0,0.0,0.0,0.0,0.0,0.0,0.0,0.0,0.0,0.0,0.0,0.0,0.0,0.0,0.0,0.0,0.0,0.0,0.0,0.0,0.0,0.0,-2.3027,0.0,0.0,0.0,0.0,0.0,0.0,0.0,0.0,0.0,0.0,0.0,0.0,0.0,0.0,0.0,0.0,0.0,0.0,0.0,0.0,0.0,0.0,-2.833,-3.0984,-2.8508,-2.78,-2.9024,-2.7845,-2.7233,-2.7233,-2.7335,-2.7401,-2.7401,0.0,0.0,0.0,0.0,0.0,0.0,0.0,0.0,0.0,0.0,0.0,0.0,0.0,0.0,0.0,0.0,0.0,0.0,0.0,0.0,0.0,0.0,0.0,0.0,0.0,0.0,-2.6203,-2.6203,-2.622,0.0,0.0,0.0,0.0,0.0,0.0,0.0,0.0,0.0,0.0,-3.1804,-3.2266,-3.2283,-3.2639,-3.2866,-3.2834,-3.2884,-3.2866,-3.2866,-3.2884,-3.2884,0.0,0.0,0.0,0.0,0.0,0.0,0.0,0.0,0.0,0.0,0.0,0.0,0.0,0.0,0.0,0.0,0.0,0.0,0.0,0.0,0.0,0.0,0.0,0.0,0.0,0.0,0.0,-2.2197,-2.2197,0.0,0.0,0.0,0.0,0.0,0.0,0.0,0.0,0.0,0.0,0.0,-2.6794,-2.6794,0.0,0.0,0.0,0.0,0.0,0.0,0.0,0.0,0.0,0.0,0.0,0.0,-2.8671,-3.0661,-2.8454,-2.7868,-2.9148,-2.8002,-2.7386,-2.7488,-2.7524,-2.7524,-2.7524,0.0,0.0,0.0,0.0,0.0,0.0,0.0,0.0,0.0,0.0,0.0,0.0,0.0,0.0,0.0,0.0,0.0,0.0,0.0,0.0,0.0,0.0,0.0,0.0,0.0,-2.6203,0.0,0.0,0.0,0.0,0.0,0.0,0.0,0.0,0.0,0.0,0.0,-3.1179,-3.1789,-3.1913,-3.2091,-3.2639,-3.282,-3.2916,0.0,0.0,0.0,0.0,0.0,0.0,0.0,0.0,0.0,0.0,0.0,0.0,0.0,0.0,-3.2135,-2.9815,-2.9126,-2.8877,-2.8627,0.0,0.0,0.0,0.0,0.0,0.0,0.0,0.0,0.0,0.0,0.0,0.0,0.0,0.0,-2.2197,0.0,-2.2197,0.0,0.0,0.0,0.0,0.0,0.0,0.0,0.0,-2.6794,-2.6794,-2.6794,-2.6794,-2.6794,0.0,-2.6794,-2.6794,0.0,0.0,0.0,0.0,0.0,0.0,0.0,0.0,-2.8712,-3.0233,-2.834,-2.7869,-2.8955,-2.7988,-2.7539,-2.756,-2.756,-2.756,-2.756,-2.756,-2.756,0.0,0.0,0.0,0.0,0.0,0.0,0.0,0.0,0.0,0.0,0.0,0.0,0.0,0.0,0.0,0.0,0.0,0.0,0.0,0.0,0.0,0.0,0.0,-2.6203,0.0,0.0,0.0,0.0,0.0,0.0,0.0,0.0,0.0,-3.0241,-3.1107,-3.1823,-3.2056,-3.2127,-3.23,-3.2834,0.0,0.0,0.0,0.0,0.0,0.0,0.0,-3.2916,-3.2916,-3.2916,-3.2916,-3.2916,-3.2652,-3.2505,-3.2456,0.0,0.0,-3.0047,-2.9619,-2.9423,-2.9423,-2.9637,-2.9779,-2.9779,-3.0172,-3.0493,0.0,0.0,0.0,0.0,0.0,0.0,0.0,0.0,-2.2209,-2.2209,0.0,-2.2197,0.0,0.0,0.0,0.0,0.0,-2.651,0.0,0.0,-2.6794,-2.6794,-2.6794,-2.6794,-2.6794,-2.6794,-2.6794,-2.6794,-2.6794,-2.6794,0.0,0.0,0.0,0.0,0.0,0.0,-2.8449,-2.9495,-2.8137,-2.778,-2.8562,-2.7934,-2.756,-2.756,-2.756,-2.756,-2.756,-2.756,-2.756,-2.756,-2.756,0.0,0.0,0.0,0.0,0.0,0.0,0.0,0.0,0.0,0.0,0.0,0.0,0.0,0.0,0.0,0.0,0.0,0.0,0.0,0.0,-2.6203,0.0,0.0,0.0,0.0,0.0,0.0,0.0,0.0,0.0,0.0,-3.0559,-3.1842,-3.2588,-3.186,0.0,0.0,0.0,0.0,-3.2916,-3.2916,-3.2916,-3.2916,-3.2916,-3.2916,-3.2916,-3.2916,0.0,0.0,-3.2916,-3.2259,-3.1778,-3.1724,-3.076,-3.0324,-3.2398,-3.1916,-3.1385,-3.1367,-3.0779,-3.0475,-3.0457,-3.0422,-3.0511,-2.5025,0.0,0.0,0.0,0.0,-2.3688,-2.3231,-2.2802,-2.2761,-2.2516,-2.2197,-2.2197,0.0,0.0,0.0,0.0,0.0,0.0,-2.6645,-2.6779,-2.6794,-2.6794,-2.6794,-2.6794,-2.6794,-2.6794,-2.6794,-2.6794,-2.6794,-2.6794,-2.7012,-2.7461,0.0,0.0,0.0,0.0,-2.8395,-2.9228,-2.8055,-2.7765,-2.8577,-2.7934,-2.756,-2.756,-2.756,-2.756,-2.756,-2.756,-2.756,-2.756,-2.756,0.0,0.0,0.0,0.0,0.0,0.0,0.0,0.0,0.0,0.0,0.0,0.0,0.0,0.0,0.0,0.0,0.0,0.0,0.0,-2.6203,-2.6203,-2.6203,0.0,0.0,0.0,0.0,0.0,0.0,0.0,0.0,0.0,-3.0965,-3.1565,-3.2197,0.0,0.0,-3.2573,-3.2852,-3.2916,-3.2916,-3.2916,-3.2916,0.0,0.0,-3.2916,-3.2916,-3.2916,-3.2916,-3.2916,-3.2916,-3.2706,-3.2577,-3.2608,-3.2299,-3.2097,-3.2038,-3.061,-2.9408,-2.9226,-2.9487,-2.9776,-2.9812,-3.0252,-3.0711,-2.5504,-2.5288,-2.4963,-2.4711,-2.447,-2.4183,-2.3798,-2.3289,-2.3341,-2.3013,-2.2516,-2.2513,-2.285,-2.3471,-2.4105,0.0,0.0,0.0,-2.6712,-2.6794,-2.6794,-2.6794,-2.6794,-2.6794,-2.6794,-2.6794,-2.6794,-2.6794,-2.6794,-2.6794,-2.7113,-2.7708,0.0,0.0,-2.8199,-2.8052,-2.8198,-2.8568,-2.7854,-2.7697,-2.8173,-2.7784,-2.756,-2.756,-2.756,-2.756,-2.756,-2.756,-2.756,-2.756,-2.756,-2.756,0.0,0.0,0.0,0.0,0.0,0.0,0.0,0.0,0.0,0.0,0.0,-2.5901,0.0,0.0,0.0,0.0,-2.6203,-2.6203,-2.6203,-2.6203,0.0,0.0,0.0,0.0,0.0,0.0,0.0,-3.0101,-3.1086,-3.1677,-3.1473,-3.1657,-3.1949,-3.2369,-3.2369,-3.242,-3.2639,0.0,-3.2705,-3.2884,-3.2916,-3.2916,-3.2916,-3.2916,-3.2916,-3.2916,-3.2916,-3.2916,-3.2916,-3.2916,-3.2948,-3.2961,-3.2791,-3.2511,-3.2074,-3.0528,-2.9286,-2.9239,-2.9625,-3.0004,-3.0022,-3.0445,-3.0769,-2.5877,-2.5432,-2.5384,-2.5071,-2.4558,-2.4554,-2.4309,-2.3884,-2.3874,-2.3556,-2.3044,-2.3035,-2.2877,-2.2555,-2.4047,0.0,-2.6794,-2.6794,-2.6794,-2.6794,-2.6794,-2.6794,-2.6794,-2.6794,-2.6794,-2.6794,-2.6794,-2.6794,-2.6794,-2.6794,-2.7084,-2.7636,-2.7783,-2.7612,-2.7314,-2.78,-2.7913,-2.764,-2.7488,-2.7488,-2.7625,-2.756,-2.756,-2.756,-2.756,-2.756,-2.756,-2.756,-2.756,-2.756,-2.756,-2.756,-2.756,0.0,0.0,0.0,0.0,0.0,0.0,0.0,0.0,0.0,0.0,0.0,0.0,0.0,0.0,0.0,-2.6203,0.0,-2.6203,-2.6203,0.0,0.0,0.0,-2.7682,-2.8428,-2.9534,-3.053,-3.1172,0.0,0.0,-3.1932,-3.1949,-3.1877,-3.1768,-3.2109,-3.2403,-3.2318,-3.2352,-3.2488,-3.2834,-3.2916,-3.2916,-3.2916,-3.2916,-3.2916,-3.2916,-3.2916,-3.2916,-3.2916,-3.2948,-3.3011,-3.3028,-3.2559,-3.2173,-3.2043,-3.1405,-3.0964,-3.0772,-3.0689,-3.0653,-3.0474,-3.0546,-3.0646,-2.6671,-2.6514,-2.6093,-2.5612,-2.5119,-2.5133,-2.4819,-2.4371,-2.4333,-2.4085,-2.3592,-2.3748,-2.4129,-2.4754,-2.5772,-2.6433,-2.6794,-2.6794,-2.6794,-2.6794,-2.6794,-2.6794,-2.6794,-2.6794,-2.6794,-2.6794,-2.6794,-2.6794,-2.6794,-2.6794,-2.6919,-2.717,-2.7313,-2.7527,-2.7889,-2.7684,-2.7601,-2.756,-2.7575,-2.7575,-2.756,-2.756,-2.756,-2.756,-2.756,-2.756,-2.756,-2.756,-2.756,-2.756,-2.756,-2.756,-2.761,-2.7944,0.0,0.0,0.0,0.0,0.0,0.0,0.0,0.0,0.0,-2.6203,-2.6203,0.0,-2.6203,0.0,-2.6203,-2.6203,-2.6203,-2.6203,0.0,0.0,-2.7773,-2.856,-2.9371,-3.0208,-3.0774,-3.0958,-3.1351,-3.16,-3.16,-3.1913,-3.2073,-3.1967,-3.2231,-3.2472,-3.2456,-3.2639,-3.277,-3.2884,-3.2916,-3.2916,-3.2916,-3.2916,-3.2916,-3.2916,-3.293,-3.2979,-3.2961,-3.3042,-3.3104,-3.3201,-3.3136,-3.2816,-3.2267,-3.2007,-3.1663,-3.1056,-3.045,-2.9764,-2.9188,-2.9602,-3.0044,-2.7152,-2.6911,-2.6598,-2.6298,-2.5997,-2.5516,-2.5107,-2.4864,-2.4864,-2.4618,-2.407,-2.4044,-2.4697,-2.5934,-2.6117,-2.6759,-2.7592,-2.7041,-2.6939,-2.7186,-2.691,-2.6794,-2.6794,-2.6794,-2.6794,-2.6794,-2.6794,-2.6794,-2.6794,-2.6794,-2.6846,-2.7003,-2.7144,-2.741,-2.7735,-2.7565,-2.7688,-2.8023,-2.7724,-2.756,-2.756,-2.756,-2.756,-2.756,-2.756,-2.756,-2.756,-2.756,-2.756,-2.761,-2.781,-2.781,-2.761,-2.8271,-2.8638,0.0,0.0,0.0,0.0,0.0,0.0,0.0,0.0,0.0,0.0,0.0,-2.6203,-2.6258,-2.6293,-2.6478,-2.6795,-2.6845,-2.7164,-2.7918,-2.8653,-2.9254,-2.975,-3.0639,-3.1218,-3.1235,-3.1562,-3.1748,-3.1654,-3.1913,-3.2127,-3.1896,-3.2266,-3.2573,-3.2488,-3.2588,-3.2719,-3.2884,-3.2916,-3.2916,-3.2948,-3.2948,-3.2948,-3.2979,-3.3011,-3.3011,-3.3042,-3.3135,-3.3214,-3.3262,-3.3322,-3.3225,-3.2832,-3.2723,-3.2469,-3.1727,-3.1156,-3.0405,-2.9339,-2.9745,-3.026,-2.756,-2.7064,-2.7067,-2.6956,-2.6959,-2.5949,-2.5456,-2.5419,-2.5394,-2.5133,-2.4847,-2.4518,-2.5294,-2.6688,-2.6199,-2.6886,-2.8477,-2.7403,-2.7157,-2.7563,-2.7041,-2.6794,-2.6794,-2.6794,-2.6794,-2.6794,-2.6794,-2.6794,-2.6794,-2.6846,-2.6899,-2.6989,-2.7144,-2.7328,-2.7571,-2.7569,-2.7874,-2.8457,-2.7925,-2.756,-2.756,-2.756,-2.756,-2.756,-2.756,-2.756,-2.756,-2.756,-2.7625,-2.771,-2.8076,-2.8158,-2.7845,-2.8701,-2.9182,0.0,-2.9617,0.0,0.0,0.0,0.0,0.0,0.0,0.0,0.0,-2.6869,-2.6557,-2.6578,-2.6718,-2.7038,-2.7693,-2.7743,-2.8028,-2.8766,-2.942,-2.9856,-3.0029,-3.0921,-3.1545,-3.1545,-3.1841,-3.1966,-3.1694,-3.193,-3.2038,-3.1913,-3.2317,-3.2669,-3.257,-3.2519,-3.2636,-3.2916,-3.2898,-3.2948,-3.3011,-3.3011,-3.3042,-3.3086,-3.3073,-3.3042,-3.3135,-3.3196,-3.331,-3.334,-3.337,-3.3375,-3.3393,-3.3357,-3.3158,-3.2488,-3.2306,-3.1781,-3.0459,-3.0586,-3.0876,-2.8294,-2.8174,-2.7753,-2.7572,-2.7524,-2.6899,-2.6372,-2.5908,-2.5667,-2.5988,-2.671,-2.6661,-2.726,-2.8168,-2.811,-2.8022,-2.7897,-2.7665,-2.7345,-2.6953,-2.6837,-2.6794,-2.6794,-2.6794,-2.6794,-2.6794,-2.6794,-2.6794,-2.6779,-2.6899,-2.7041,-2.713,-2.7299,-2.772,-2.8301,0.0,0.0,0.0,-2.77,-2.756,-2.756,-2.756,-2.756,-2.756,-2.756,0.0,-2.756,-2.756,-2.7795,-2.8158,-2.8255,0.0,0.0,0.0,0.0,0.0,0.0,0.0,0.0,0.0,0.0,0.0,-2.9593,-2.8926,-2.8322,-2.8252,-2.8223,-2.826,-2.826,-2.831,-2.8481,-2.8498,-2.88,-2.9563,-2.9782,-3.014,-3.0825,-3.1145,-3.1291,-3.1308,-3.1368,-3.1368,-3.1329,-3.16,-3.1896,-3.2144,-3.2553,-3.2862,-3.3073,-3.3024,-3.2993,-3.3055,-3.3073,-3.3055,-3.3055,-3.3104,-3.3086,-3.3117,-3.3183,-3.3232,-3.3262,-3.3322,-3.3364,-3.3364,-3.3393,-3.3393,-3.3393,-3.3393,-3.3357,-3.3176,-3.3158,-3.2687,-3.1129,-3.1401,-3.1926,-2.851,0.0,-2.8222,-2.8114,0.0,-2.7548,-2.6952,-2.6459,-2.6142,-2.6457,-2.7204,-2.7236,-2.7931,-2.9055,-2.8763,-2.8843,-2.9087,-2.8173,-2.7737,-2.7694,-2.707,-2.6794,-2.6794,-2.6794,-2.6794,-2.6794,-2.6832,-2.6884,-2.6884,-2.7041,-2.7144,-2.7299,-2.735,-2.7667,-2.8083,-2.7739,-2.756,-2.756,-2.756,-2.756,-2.756,-2.756,-2.756,-2.756,-2.756,0.0,0.0,0.0,0.0,0.0,0.0,0.0,0.0,0.0,0.0,-2.981,-3.0241,-3.0468,-3.0468,-3.0468,-3.0568,-3.0692,-3.0463,-2.9794,-2.867,-2.8699,-2.8753,-2.8753,-2.879,-2.8979,-2.9332,-2.9366,-2.9707,-3.042,-3.0538,-3.0746,-3.1106,-3.119,-3.119,-3.119,-3.119,-3.119,-3.119,-3.1674,-3.2021,-3.2283,-3.2766,-3.3147,-3.3322,-3.3244,-3.3165,-3.3135,-3.3165,-3.3196,-3.3232,-3.3214,-3.3196,-3.3226,-3.3292,-3.3322,-3.3352,-3.3382,-3.3393,-3.3393,-3.3393,-3.3393,-3.3393,-3.3393,-3.3393,-3.3393,-3.3393,-3.3194,-3.2325,-3.2506,-3.2669,-2.851,-2.851,-2.851,-2.851,-2.8474,-2.8041,-2.7501,-2.6956,0.0,0.0,0.0,-2.7417,-2.8312,-2.969,-2.911,-2.9411,-3.0277,-2.855,-2.8013,-2.8448,-2.7316,-2.6794,-2.6794,-2.6794,-2.6794,-2.6794,-2.6951,-2.7003,-2.7003,-2.7144,-2.7299,-2.7401,-2.7452,-2.7488,-2.7575,-2.756,-2.756,-2.756,-2.756,-2.756,-2.756,-2.756,-2.756,-2.756,-2.756,-2.756,-2.756,-2.756,-2.7795,-2.8288,-2.8826,-2.912,-2.9257,-3.0027,-3.0342,-2.9984,-3.0284,-3.0468,-3.0468,-3.0468,-3.0568,-3.0749,-3.0895,-3.0471,-2.9223,-2.9215,-2.9215,-2.9252,-2.9327,-2.9634,-3.0243,-3.0294,-3.0531,-3.1123,-3.119,-3.1173,-3.119,-3.119,-3.119,-3.119,-3.1269,-3.1291,-3.1329,-3.1949,-3.2385,-3.2468,-3.2975,-3.3393,-3.3393,-3.3352,-3.3274,-3.3196,-3.3244,-3.3322,-3.334,-3.3322,-3.3352,-3.3364,-3.3352,-3.3322,-3.3364,-3.3393,-3.3393,-3.3393,-3.3393,-3.3393,-3.3393,-3.3393,-3.3393,-3.3393,-3.3393,-3.3393,-3.3393,-3.3375,-3.3158,-2.851,-2.851,-2.851,-2.851,-2.851,-2.8426,-2.8041,-2.7346,-2.6411,-2.6828,-2.8298,-2.8298,-2.9156,-3.0404,-2.9782,-2.9551,-2.9668,-2.8347,-2.7781,-2.7824,-2.7128,-2.6794,-2.6794,-2.6794,-2.6794,-2.6794,-2.6951,-2.7003,-2.7003,-2.7248,-2.7401,-2.7401,-2.7539,-2.7575,-2.756,-2.756,-2.756,-2.756,-2.756,-2.756,-2.756,-2.756,-2.756,-2.756,-2.756,-2.756,-2.756,-2.761,-2.7795,-2.8288,-2.8826,-2.9303,-2.9705,-3.0199,-3.0468,-3.0384,-3.0468,-3.0468,-3.0468,-3.0468,-3.0609,-3.0871,-3.0935,-3.0971,-3.0864,-3.0869,-3.0886,-3.0869,-3.0801,-3.092,-3.1038,-3.1021,-3.1038,-3.1157,-3.119,-3.119,-3.123,-3.123,-3.123,-3.1269,-3.1466,-3.162,-3.1694,-3.2265,-3.2699,-3.2781,-3.3099,-3.3393,-3.3393,-3.3393,-3.3364,-3.3364,-3.3364,-3.3382,-3.3364,-3.3364,-3.3393,-3.3393,-3.3393,-3.3364,-3.3393,-3.3393,-3.3393,-3.3393,-3.3393,-3.3393,-3.3393,-3.3393,-3.3393,-3.3393,-3.3393,-3.3393,-3.3393,-3.3393,-3.3339,-2.851,-2.851,-2.851,-2.851,-2.8498,-2.7885,-2.755,-2.7422,-2.6346,-2.6684,-2.7907,-2.8298,-2.8899,-2.948,-2.9579,-2.9421,-2.9058,-2.8144,-2.7737,-2.7679,-2.7084,-2.6794,-2.6794,-2.6794,-2.6794,-2.6846,-2.6989,-2.7093,-2.7144,-2.7386,-2.7473,-2.7524,-2.7575,-2.756,-2.756,-2.756,-2.756,-2.756,-2.756,-2.756,-2.756,-2.756,-2.756,-2.756,-2.756,-2.756,-2.7625,-2.7845,-2.8222,-2.8732,-2.9212,-2.9705,-3.0156,-3.0384,-3.0468,-3.0468,-3.0468,-3.0468,-3.0468,-3.0651,-3.0773,-3.0952,-3.1072,-3.1134,-3.119,-3.119,-3.119,-3.119,-3.119,-3.119,-3.119,-3.119,-3.119,-3.119,-3.119,-3.1291,-3.1428,-3.1487,-3.1562,-3.1768,-3.1932,-3.2039,-3.2039,-3.2468,-3.2795,-3.2827,-3.3129,-3.3393,-3.3393,-3.3393,-3.3393,-3.3393,-3.3393,-3.3393,-3.3393,-3.3393,-3.3393,-3.3393,-3.3393,-3.3393,-3.3393,-3.3393,-3.3393,-3.3393,-3.3393,-3.3393,-3.3393,-3.3393,-3.3393,-3.3393,-3.3393,-3.3393,-3.3393,-3.3393,-3.3393,-2.851,-2.851,-2.851,-2.851,-2.8383,-2.7263,-2.7037,-2.741,-2.6429,-2.6561,-2.7524,-2.8247,-2.8559,-2.8675,-2.9317,-2.9276,-2.8652,-2.8013,-2.7737,-2.7665,-2.7084,-2.6794,-2.6794,-2.6794,-2.6832,-2.6884,-2.7093,-2.7233,-2.7284,-2.7473,-2.756,-2.756,-2.756,-2.756,-2.756,-2.756,-2.756,-2.756,-2.756,-2.756,-2.756,-2.756,-2.756,-2.756,-2.756,-2.756,-2.7625,-2.7929,-2.84,-2.8889,-2.9393,-2.9837,-3.03,-3.0426,-3.0468,-3.0468,-3.0468,-3.0468,-3.051,-3.0733,-3.0895,-3.0992,-3.1112,-3.1151,-3.119,-3.119,-3.119,-3.119,-3.119,-3.119,-3.119,-3.119,-3.119,-3.119,-3.119,-3.1291,-3.1524,-3.16,-3.1731,-3.2074,-3.2248,-3.2299,-3.2453,-3.2716,-3.2939,-3.3019,-3.3208,-3.3393,-3.3393,-3.3393,-3.3393,-3.3393,-3.3393,-3.3393,-3.3393,-3.3393,-3.3393,-3.3393,-3.3393,-3.3393,-3.3393,-3.3393,-3.3393,-3.3393,-3.3393,-3.3393,-3.3393,-3.3393,-3.3393,-3.3393,-3.3393,-3.3339,-3.3103,-3.3049,-3.3085,-2.851,-2.851,-2.851,-2.851,-2.8359,-2.7011,-2.6889,-2.7311,-2.6561,-2.6693,-2.7537,-2.8182,-2.8546,-2.8689,-2.9317,-2.9276,-2.8623,-2.8013,-2.7723,-2.7636,-2.707,-2.6794,-2.6794,-2.6794,-2.6884,-2.6959,-2.713,-2.7233,-2.7335,-2.7524,-2.756,-2.756,-2.756,-2.756,-2.756,-2.756,-2.756,-2.756,-2.756,-2.756,-2.756,-2.756,-2.756,-2.756,-2.756,-2.756,-2.761,-2.7675,-2.7894,-2.8352,-2.8919,-2.9393,-2.9853,-3.0284,-3.0468,-3.0468,-3.0468,-3.0468,-3.0526,-3.0733,-3.0912,-3.0912,-3.0992,-3.1055,-3.119,-3.119,-3.119,-3.119,-3.119,-3.119,-3.119,-3.119,-3.119,-3.119,-3.119,-3.123,-3.1291,-3.1252,-3.1389,-3.1714,-3.2144,-3.2401,-3.2716,-3.3068,-3.3286,-3.3286,-3.3316,-3.3393,-3.3393,-3.3393,-3.3393,-3.3393,-3.3393,-3.3393,-3.3393,-3.3393,-3.3393,-3.3393,-3.3393,-3.3393,-3.3393,-3.3393,-3.3393,-3.3393,-3.3393,-3.3393,-3.3393,-3.3393,-3.3393,-3.3212,-3.3176,-3.3103,-3.2542,-3.2306,-3.2288,-2.851,-2.851,-2.851,-2.8318,-2.7885,-2.7147,-2.6961,-2.698,-2.6425,-2.6693,-2.7498,-2.7833,-2.8181,-2.8647,-2.9317,-2.9087,-2.8129,-2.7784,-2.752,-2.7171,-2.6895,-2.6794,-2.6794,-2.6794,-2.6832,-2.6922,-2.7078,-2.7218,-2.7284,-2.7524,-2.756,-2.756,-2.756,-2.756,-2.756,-2.756,-2.756,-2.756,-2.756,-2.756,-2.756,-2.756,-2.756,-2.756,-2.756,-2.776,-2.8027,-2.8319,-2.8685,-2.915,-2.9661,-3.0011,-3.0215,-3.0384,-3.0468,-3.0468,-3.0468,-3.051,-3.0609,-3.0773,-3.0912,-3.0935,-3.1072,-3.1151,-3.119,-3.119,-3.119,-3.119,-3.119,-3.119,-3.119,-3.119,-3.119,-3.119,-3.119,-3.1252,-3.1504,-3.1487,-3.162,-3.2003,-3.2368,-3.2651,-3.2844,-3.3147,-3.3345,-3.3393,-3.3393,-3.3393,-3.3393,-3.3393,-3.3393,-3.3393,-3.3393,-3.3393,-3.3393,-3.3393,-3.3393,-3.3393,-3.3393,-3.3393,-3.3393,-3.3393,-3.3393,-3.3375,-3.3339,-3.3339,-3.3393,-3.3357,-3.3321,-3.294,-3.2198,-3.1836,-3.1528,-3.1492,-3.1347,-2.8414,-2.8258,-2.7993,-2.7717,-2.7423,-2.6972,-2.6713,-2.6697,-2.6338,-2.6671,-2.7472,-2.7588,-2.7988,-2.8647,-2.9117,-2.8753,-2.781,-2.7737,-2.7389,-2.6837,-2.6794,-2.6794,-2.6794,-2.6794,-2.6832,-2.6937,-2.713,-2.7218,-2.7335,-2.7473,-2.756,-2.756,-2.756,-2.756,-2.756,-2.756,-2.756,-2.756,-2.756,-2.756,-2.756,-2.756,-2.756,-2.7625,-2.771,-2.7978,-2.8288,-2.8779,-2.9319,-2.981,-3.0113,-3.0384,-3.0468,-3.0468,-3.0468,-3.051,-3.051,-3.0609,-3.0692,-3.0855,-3.0935,-3.1015,-3.1112,-3.119,-3.119,-3.119,-3.119,-3.1173,-3.1021,-3.092,-3.1173,-3.119,-3.119,-3.119,-3.119,-3.1291,-3.1524,-3.1545,-3.1731,-3.2214,-3.2435,-3.2781,-3.2957,-3.3208,-3.3393,-3.3393,-3.3393,-3.3393,-3.3393,-3.3393,-3.3393,-3.3393,-3.3393,-3.3393,-3.3393,-3.3393,-3.3393,-3.3393,-3.3393,-3.3393,-3.3393,-3.3393,-3.3158,-3.2995,-3.3085,-3.285,-3.2469,-3.2524,-3.2632,-3.2017,-3.1383,-3.0876,-3.0713,-3.0677,-3.0314,-2.8222,-2.7633,-2.6647,-2.6586,-2.6899,-2.613,-2.6104,-2.6611,-2.6288,-2.6709,-2.7507,-2.7525,-2.7996,-2.8626,-2.8682,-2.8361,-2.7795,-2.7737,-2.7389,-2.6823,-2.6794,-2.6794,-2.6794,-2.6794,-2.6937,-2.713,-2.7181,-2.7335,-2.7575,-2.7575,-2.756,-2.756,-2.756,-2.756,-2.756,-2.756,-2.756,-2.756,-2.756,-2.756,-2.761,-2.761,-2.761,-2.766,-2.8027,-2.8304,-2.8384,-2.8826,-2.9303,-2.9793,-2.9853,-3.0027,-3.0426,-3.0468,-3.0468,-3.051,-3.0609,-3.0692,-3.0733,-3.0895,-3.0975,-3.1032,-3.1112,-3.1173,-3.1089,-3.1089,-3.1055,-3.1123,-3.048,-3.0395,-3.092,-3.092,-3.0987,-3.1021,-3.1106,-3.1111,-3.1145,-3.1053,-3.1528,-3.2004,-3.214,-3.2385,-3.313,-3.3364,-3.3212,-3.3212,-3.3302,-3.3248,-3.314,-3.323,-3.3194,-3.3176,-3.3212,-3.3357,-3.3357,-3.3194,-3.3248,-3.3176,-3.3031,-3.3194,-3.3339,-3.3302,-3.2868,-3.2506,-3.2343,-3.1981,-3.1365,-3.1129,-3.1202,-3.0966,-3.0858,-3.0496,-2.9934,-2.9844,-2.9572,-2.7705,-2.72,-2.6791,-2.655,-2.6382,-2.6212,-2.6191,-2.6119,-2.5795,-2.6128,-2.694,-2.7058,-2.7428,-2.8125,-2.8064,-2.7955,-2.7737,-2.7737,-2.7389,-2.6837,-2.6794,-2.6794,-2.6794,-2.6794,-2.6899,-2.7041,-2.7181,-2.7321,-2.7575,-2.756,-2.756,-2.756,-2.756,-2.756,-2.756,-2.756,-2.756,-2.756,-2.756,-2.756,-2.761,-2.7894,-2.8027,-2.8076,-2.8207,-2.8575,-2.9225,-2.9166,-2.9438,-3.0215,-2.9968,-3.0027,-3.0426,-3.0468,-3.0543,-3.0609,-3.0692,-3.0733,-3.0814,-3.0935,-3.0992,-3.1032,-3.1112,-3.0954,-3.0598,-3.048,-3.0311,-2.9854,-2.96,-2.955,-2.9668,-2.977,-2.9786,-2.9786,-2.9786,-2.9837,-2.977,-2.9824,-2.9975,-3.0422,-3.0826,-3.135,-3.1802,-3.1872,-3.1854,-3.1854,-3.1854,-3.1908,-3.1872,-3.1872,-3.1962,-3.1872,-3.1854,-3.1872,-3.1872,-3.2343,-3.256,-3.2415,-3.2288,-3.1962,-3.1926,-3.2053,-3.1709,-3.1582,-3.1455,-3.1292,-3.0749,-3.0351,-3.0296,-3.0188,-3.0061,-2.9735,-2.9083,-2.9236,-2.9054,-2.6983,-2.6635,-2.6298,-2.6045,-2.5889,-2.5886,-2.5793,-2.5591,-2.5372,-2.5627,-2.607,-2.6304,-2.6717,-2.7145,-2.7334,-2.7418,-2.7432,-2.7418,-2.7186,-2.6808,-2.6794,-2.6794,-2.6794,-2.6846,-2.6951,-2.7093,-2.7218,-2.7423,-2.756,-2.756,-2.756,-2.756,-2.756,-2.756,-2.756,-2.756,-2.756,-2.756,-2.756,-2.756,-2.766,-2.7879,-2.8158,-2.8304,-2.8432,-2.8873,-2.9589,-2.9544,-2.9705,-3.0156,-3.0113,-3.0215,-3.051,-3.0593,-3.0651,-3.0749,-3.0773,-3.0831,-3.0912,-3.0975,-3.0914,-3.0735,-3.0796,-3.0531,-2.9837,-2.9753,-2.9465,-2.9113,-2.8704,-2.8602,-2.8552,-2.8399,-2.845,-2.8859,-2.9011,-2.9011,-2.9011,-2.91,-2.9368,-2.9861,-3.0419,-3.0787,-3.0948,-3.1021,-3.1057,-3.1003,-3.1003,-3.1003,-3.1003,-3.1003,-3.1003,-3.1003,-3.1111,-3.1148,-3.1093,-3.1347,-3.1636,-3.1528,-3.1492,-3.1057,-3.0822,-3.0858,-3.0785,-3.0659,-3.055,-3.0459,-3.0188,-2.9753,-2.9536,-2.9453,-2.9264,-2.9029,-2.8782,-2.8785,-2.8779,-2.6117,-2.5961,-2.4987,-2.4987,-2.5277,-2.5087,-2.4963,-2.5185,-2.5252,-2.5176,-2.531,-2.5633,-2.6059,-2.6131,-2.673,-2.6881,-2.6866,-2.6895,-2.6866,-2.6794,-2.6794,-2.6794,-2.6794,-2.6899,-2.7055,-2.7233,-2.7473,-2.756,-2.756,-2.756,-2.756,-2.756,-2.756,-2.756,-2.756,-2.756,-2.756,-2.756,-2.756,-2.756,-2.761,-2.766,-2.7944,-2.8352,-2.8826,-2.912,-2.9166,-2.9924,-3.0199,-2.9984,-3.0241,-3.0526,-3.0692,-3.0814,-3.0912,-3.0912,-3.0912,-3.0952,-3.0942,-3.0931,-3.0634,-3.0205,-3.0091,-2.9786,-2.9127,-2.8975,-2.889,-2.8636,-2.8197,-2.7789,-2.7723,-2.73,-2.7402,-2.8636,-2.874,-2.8723,-2.888,-2.9196,-2.9622,-3.0123,-3.0463,-3.0903,-3.093,-3.0713,-3.0622,-3.0659,-3.0677,-3.0659,-3.0604,-3.0586,-3.084,-3.084,-3.0586,-3.0387,-3.0387,-3.0405,-3.055,-3.0659,-3.0677,-3.0496,-3.0351,-3.0314,-3.0061,-2.9916,-2.9807,-2.9699,-2.9497,-2.9098,-2.9082,-2.8955,-2.8687,-2.87,-2.8803,-2.892,-2.8962,-2.5889,-2.554,-2.5204,-2.5155,-2.5217,-2.4779,-2.4977,-2.5568,-2.497,-2.4977,-2.5511,-2.6198,-2.626,-2.6214,-2.6931,-2.7186,-2.6808,-2.6794,-2.6794,-2.6794,-2.6794,-2.6794,-2.6832,-2.6951,-2.7107,-2.7335,-2.7539,-2.756,-2.756,-2.756,-2.756,-2.756,-2.756,-2.756,-2.756,-2.756,-2.756,-2.756,-2.756,-2.756,-2.7625,-2.7944,-2.8304,-2.8826,-2.9348,-2.9572,-2.9617,-2.9853,-3.0113,-3.0241,-3.0199,-3.0368,-3.0733,-3.0871,-3.0912,-3.0975,-3.0975,-3.078,-3.042,-3.0335,-3.007,-2.9516,-2.9313,-2.8958,-2.8332,-2.818,-2.796,-2.7554,-2.7182,-2.7046,-2.6996,-2.686,-2.6979,-2.7351,-2.7402,-2.7624,-2.791,-2.8272,-2.8576,-2.8823,-2.9134,-2.9329,-2.9391,-2.9409,-2.95,-2.9481,-2.9445,-2.9463,-2.9427,-2.9536,-2.9355,-2.9355,-2.9355,-2.9572,-2.9536,-2.9536,-2.9608,-2.9761,-2.9816,-2.987,-2.9779,-2.9707,-2.9453,-2.9308,-2.9156,-2.9018,-2.8778,-2.8718,-2.8773,-2.8897,-2.8948,-2.9038,-2.9129,-2.9129,-2.9126,-2.5612,-2.53,-2.5095,-2.5131,-2.5252,-2.4903,-2.4941,-2.5167,-2.4792,-2.4792,-2.5195,-2.5785,-2.6064,-2.6129,-2.6931,-2.7142,-2.6808,-2.6794,-2.6794,-2.6794,-2.6794,-2.6794,-2.6832,-2.7003,-2.7196,-2.7437,-2.7575,-2.756,-2.756,-2.756,-2.756,-2.756,-2.756,-2.756,-2.756,-2.756,-2.756,-2.756,-2.756,-2.756,-2.771,-2.8076,-2.8448,-2.8826,-2.9438,-2.9677,-2.9572,-2.9837,-3.0113,-3.0258,-3.0241,-3.0468,-3.0871,-3.0895,-3.0874,-3.0701,-3.0617,-3.0386,-2.9803,-2.9668,-2.9364,-2.8721,-2.8535,-2.8197,-2.7604,-2.7367,-2.7148,-2.6793,-2.6725,-2.6708,-2.6708,-2.6708,-2.6708,-2.6708,-2.6759,-2.6923,-2.7321,-2.7794,-2.8165,-2.8389,-2.8546,-2.8587,-2.8587,-2.8587,-2.8587,-2.8587,-2.8587,-2.8587,-2.8587,-2.8641,-2.8605,-2.863,-2.8768,-2.884,-2.8696,-2.8685,-2.8685,-2.8801,-2.8916,-2.9032,-2.905,-2.9094,-2.8966,-2.896,-2.8887,-2.8905,-2.8718,-2.8791,-2.8845,-2.9034,-2.9126,-2.9034,-2.8989,-2.9129,-2.9148,-2.5312,-2.5252,-2.4783,-2.4867,-2.5214,-2.5037,-2.473,-2.4402,-2.4555,-2.4489,-2.4406,-2.5043,-2.5467,-2.5948,-2.6601,-2.6837,-2.6794,-2.6794,-2.6794,-2.6794,-2.6794,-2.6846,-2.6884,-2.7078,-2.7321,-2.7575,-2.7575,-2.756,-2.756,-2.756,-2.756,-2.756,-2.756,-2.756,-2.756,-2.756,-2.756,-2.756,-2.756,-2.756,-2.7625,-2.7978,-2.8304,-2.84,-2.918,-2.9572,-2.9438,-2.987,-3.0159,-3.0011,-3.0344,-3.0566,-3.0794,-3.0891,-3.0499,-3.0036,-3.0057,-2.9651,-2.911,-2.8907,-2.8586,-2.7875,-2.774,-2.7451,-2.6945,-2.6843,-2.681,-2.6708,-2.6708,-2.6708,-2.6708,-2.6708,-2.6708,-2.6691,-2.6758,-2.7036,-2.7595,-2.7908,-2.8201,-2.8492,-2.8587,-2.8587,-2.8587,-2.8587,-2.8587,-2.8587,-2.8587,-2.8587,-2.8587,-2.8587,-2.8587,-2.8612,-2.8637,-2.8637,-2.8662,-2.8662,-2.8687,-2.8737,-2.8737,-2.8737,-2.8718,-2.8737,-2.8761,-2.8761,-2.8785,-2.8785,-2.8791,-2.8887,-2.8984,-2.9123,-2.9075,-2.8887,-2.9012,-2.9297,-2.9379,-2.5312,-2.53,-2.5308,-2.5184,-2.4921,-2.4654,-2.4474,-2.4357,-2.4129,-2.4343,-2.4734,-2.5394,-2.5715,-2.5948,-2.6515,-2.6794,-2.6794,-2.6794,-2.6794,-2.6794,-2.6794,-2.6937,-2.7078,-2.7233,-2.7437,-2.7575,-2.756,-2.756,-2.756,-2.756,-2.756,-2.756,-2.756,-2.756,-2.756,-2.756,-2.756,-2.756,-2.756,-2.756,-2.7625,-2.771,-2.7978,-2.8352,-2.895,-2.9361,-2.9536,-2.9632,-3.0037,-3.0551,-3.0166,-3.0074,-3.0229,-2.9863,-2.9529,-2.9347,-2.9245,-2.8941,-2.8315,-2.8129,-2.7774,-2.7114,-2.708,-2.6894,-2.6742,-2.6708,-2.6708,-2.6708,-2.6708,-2.6708,-2.6708,-2.6708,-2.6708,-2.6725,-2.6873,-2.7213,-2.7624,-2.7926,-2.8228,-2.8518,-2.8587,-2.8587,-2.8587,-2.8587,-2.8587,-2.8587,-2.8612,-2.8612,-2.8612,-2.8612,-2.8637,-2.8644,-2.8669,-2.8712,-2.8737,-2.8737,-2.8761,-2.8815,-2.8815,-2.881,-2.8785,-2.8761,-2.8785,-2.8804,-2.8858,-2.8863,-2.8934,-2.9007,-2.9119,-2.9251,-2.9336,-2.9357,-2.9644,-2.9918,-2.9853,-2.5312,-2.5312,-2.5453,-2.5151,-2.4691,-2.453,-2.4366,-2.4112,-2.3864,-2.4175,-2.4936,-2.531,-2.5839,-2.6286,-2.6674,-2.6794,-2.6794,-2.6794,-2.6794,-2.6846,-2.6937,-2.7078,-2.7181,-2.7284,-2.7437,-2.7575,-2.756,-2.756,-2.756,-2.756,-2.756,-2.756,-2.756,-2.756,-2.756,-2.756,-2.756,-2.756,-2.756,-2.756,-2.7625,-2.7795,-2.7959,-2.8249,-2.8661,-2.907,-2.9172,-2.8829,-2.9048,-2.9593,-2.9399,-2.9259,-2.9433,-2.9151,-2.8766,-2.8569,-2.8484,-2.8163,-2.7537,-2.7351,-2.7148,-2.681,-2.6708,-2.6708,-2.6708,-2.6708,-2.6708,-2.6708,-2.6708,-2.6708,-2.6708,-2.6708,-2.6758,-2.6923,-2.7085,-2.7338,-2.7672,-2.8083,-2.837,-2.8543,-2.8587,-2.8587,-2.8587,-2.8587,-2.8587,-2.8612,-2.8619,-2.8637,-2.8662,-2.8662,-2.8669,-2.8718,-2.8743,-2.8761,-2.8785,-2.8785,-2.8785,-2.8858,-2.8934,-2.891,-2.8887,-2.8858,-2.8858,-2.8905,-2.8934,-2.8984,-2.9097,-2.9209,-2.9355,-2.9514,-2.968,-2.975,-2.9921,-3.0094,-3.0064,-2.5312,-2.53,-2.5264,-2.4915,-2.4478,-2.4607,-2.4131,-2.3541,-2.3563,-2.3981,-2.462,-2.4908,-2.5536,-2.6621,-2.6621,-2.6794,-2.6794,-2.6794,-2.6794,-2.6884,-2.6989,-2.7181,-2.7181,-2.7269,-2.7437,-2.7575,-2.756,-2.756,-2.756,-2.756,-2.756,-2.756,-2.756,-2.756,-2.756,-2.756,-2.756,-2.7545,-2.741,-2.745,-2.7489,-2.7646,-2.769,-2.7866,-2.827,-2.8453,-2.8293,-2.7958,-2.7919,-2.8294,-2.8284,-2.8448,-2.8582,-2.8602,-2.8238,-2.7823,-2.7672,-2.7402,-2.6877,-2.681,-2.6742,-2.6708,-2.6708,-2.6708,-2.6708,-2.6708,-2.6708,-2.6708,-2.6708,-2.6708,-2.6708,-2.6708,-2.6791,-2.7021,-2.7149,-2.74,-2.7713,-2.821,-2.8562,-2.8587,-2.8587,-2.8587,-2.8587,-2.8587,-2.8587,-2.8612,-2.8637,-2.8669,-2.8687,-2.8712,-2.8761,-2.881,-2.881,-2.8828,-2.8834,-2.8834,-2.8834,-2.8881,-2.9003,-2.903,-2.9048,-2.9026,-2.9003,-2.9048,-2.9163,-2.923,-2.9295,-2.9436,-2.9589,-2.9662,-2.9751,-2.9734,-2.9734,-2.9937,-2.9984,-2.5312,-2.5276,-2.5018,-2.4602,-2.4141,-2.3964,-2.3609,-2.3046,-2.3178,-2.3403,-2.3708,-2.4553,-2.5133,-2.5522,-2.6394,-2.6794,-2.6794,-2.6794,-2.6794,-2.6846,-2.6937,-2.7093,-2.7233,-2.7372,-2.7524,-2.756,-2.756,-2.756,-2.756,-2.756,-2.756,-2.756,-2.756,-2.756,-2.758,-2.747,-2.756,-2.747,-2.7115,-2.6992,-2.7096,-2.6872,-2.687,-2.7154,-2.7702,-2.7846,-2.7757,-2.7574,-2.7361,-2.7238,-2.7437,-2.7791,-2.7851,-2.7518,-2.7215,-2.708,-2.6996,-2.6877,-2.6725,-2.6708,-2.6708,-2.6708,-2.6708,-2.6708,-2.6708,-2.6708,-2.6708,-2.6708,-2.6708,-2.6708,-2.6708,-2.6708,-2.6758,-2.6923,-2.7289,-2.7595,-2.776,-2.8027,-2.8326,-2.8518,-2.8587,-2.8587,-2.8587,-2.8612,-2.8612,-2.863,-2.8662,-2.8694,-2.8718,-2.8785,-2.8834,-2.8881,-2.8881,-2.89,-2.8905,-2.8905,-2.8952,-2.8975,-2.9075,-2.9188,-2.9206,-2.927,-2.927,-2.9314,-2.9415,-2.9494,-2.9533,-2.9608,-2.9716,-2.9787,-2.9855,-2.9888,-2.9921,-2.9984,-2.9984,-2.4939,-2.4903,-2.4719,-2.4287,-2.3745,-2.3765,-2.3484,-2.2972,-2.2992,-2.322,-2.3695,-2.461,-2.5133,-2.5481,-2.634,-2.6794,-2.6832,-2.6899,-2.6937,-2.6989,-2.713,-2.7233,-2.7386,-2.7524,-2.756,-2.756,-2.756,-2.756,-2.756,-2.756,-2.756,-2.756,-2.756,-2.74,-2.7156,-2.7096,-2.7018,-2.6814,-2.6414,-2.6346,-2.6551,-2.6245,-2.6057,-2.6451,-2.6902,-2.7098,-2.6947,-2.7002,-2.6837,-2.6721,-2.6924,-2.7125,-2.7179,-2.6894,-2.6691,-2.6691,-2.6708,-2.6708,-2.6708,-2.6708,-2.6708,-2.6708,-2.6708,-2.6708,-2.6708,-2.6708,-2.6708,-2.6708,-2.6708,-2.6708,-2.6708,-2.6708,-2.6775,-2.6989,-2.7382,-2.7713,-2.7897,-2.8147,-2.8378,-2.8562,-2.8587,-2.8587,-2.8587,-2.8594,-2.8644,-2.8662,-2.8761,-2.8791,-2.8815,-2.8881,-2.8905,-2.8929,-2.8929,-2.8952,-2.8975,-2.8998,-2.9048,-2.9115,-2.9206,-2.9334,-2.9415,-2.9494,-2.957,-2.9589,-2.9608,-2.9698,-2.9751,-2.9805,-2.9872,-2.9988,-3.0068,-3.0113,-3.0109,-3.0094,-3.0113,-2.447,-2.4398,-2.4326,-2.3839,-2.3292,-2.3559,-2.3386,-2.2935,-2.2907,-2.3267,-2.3989,-2.4667,-2.5245,-2.577,-2.6447,-2.6779,-2.6832,-2.6884,-2.6989,-2.7078,-2.7233,-2.7335,-2.7473,-2.7524,-2.756,-2.756,-2.756,-2.756,-2.756,-2.7545,-2.752,-2.7425,-2.7445,-2.7006,-2.6587,-2.6422,-2.6371,-2.6183,-2.571,-2.5666,-2.5893,-2.5667,-2.5564,-2.599,-2.6377,-2.6493,-2.6428,-2.6482,-2.6536,-2.6468,-2.6537,-2.6606,-2.6606,-2.664,-2.6623,-2.6708,-2.6708,-2.6708,-2.6708,-2.6708,-2.6708,-2.6708,-2.6708,-2.6708,-2.6708,-2.6708,-2.6708,-2.6708,-2.6708,-2.6708,-2.6708,-2.6791,-2.6923,-2.7181,-2.7504,-2.784,-2.8093,-2.8396,-2.8543,-2.8587,-2.8612,-2.8637,-2.8662,-2.8687,-2.8694,-2.8743,-2.8834,-2.8905,-2.8929,-2.8929,-2.8952,-2.8952,-2.8975,-2.9048,-2.9093,-2.9185,-2.9228,-2.9291,-2.9375,-2.9494,-2.9626,-2.9751,-2.9803,-2.9751,-2.9769,-2.9872,-2.9953,-3.0019,-3.0098,-3.0204,-3.0204,-3.019,-3.019,-3.0204,-3.0204,-2.4278,-2.3857,-2.3412,-2.3188,-2.3059,-2.2971,-2.2899,-2.28,-2.2957,-2.3125,-2.3484,-2.4452,-2.5077,-2.5467,-2.6326,-2.6779,-2.6846,-2.6884,-2.6884,-2.6974,-2.7181,-2.7321,-2.7372,-2.7419,-2.75,-2.756,-2.747,-2.7395,-2.75,-2.7545,-2.7175,-2.6841,-2.6752,-2.6422,-2.5944,-2.5764,-2.5721,-2.553,-2.5077,-2.5002,-2.5205,-2.5013,-2.4947,-2.5509,-2.6076,-2.6222,-2.617,-2.6383,-2.6521,-2.6262,-2.6487,-2.664,-2.6674,-2.6674,-2.6708,-2.6708,-2.6708,-2.6708,-2.6708,-2.6708,-2.6708,-2.6708,-2.6708,-2.6708,-2.6708,-2.6708,-2.6708,-2.6708,-2.6708,-2.6708,-2.6691,-2.6858,-2.7085,-2.7338,-2.7636,-2.7992,-2.8147,-2.8378,-2.8612,-2.8612,-2.8662,-2.8687,-2.8712,-2.8718,-2.8767,-2.881,-2.8881,-2.8929,-2.8929,-2.8952,-2.8975,-2.8975,-2.8975,-2.9115,-2.9228,-2.9355,-2.9455,-2.9494,-2.9589,-2.9698,-2.9855,-3.0034,-3.0064,-2.9953,-2.9969,-3.0083,-3.0142,-3.0171,-3.019,-3.0204,-3.0204,-3.0204,-3.0204,-3.0204,-3.0204,-2.3592,-2.3405,-2.3087,-2.295,-2.287,-2.3056,-2.3047,-2.2946,-2.303,-2.328,-2.3833,-2.4597,-2.5189,-2.5646,-2.6326,-2.6779,-2.6832,-2.6974,-2.6974,-2.7078,-2.7269,-2.7423,-2.7268,-2.7181,-2.7096,-2.6946,-2.6767,-2.6782,-2.6991,-2.6662,-2.6422,-2.6198,-2.6078,-2.5749,-2.5241,-2.5106,-2.5033,-2.4851,-2.4431,-2.4323,-2.4752,-2.4436,-2.4639,-2.5005,-2.5705,-2.5994,-2.5994,-2.6365,-2.6538,-2.6469,-2.659,-2.6657,-2.6708,-2.6708,-2.6708,-2.6708,-2.6708,-2.6708,-2.6708,-2.6708,-2.6708,-2.6708,-2.6708,-2.6708,-2.6708,-2.6708,-2.6708,-2.6708,-2.6708,-2.6708,-2.6691,-2.6891,-2.7021,-2.7244,-2.7636,-2.7954,-2.8129,-2.843,-2.8551,-2.8644,-2.8669,-2.8694,-2.8718,-2.8743,-2.8815,-2.8881,-2.8905,-2.8929,-2.8952,-2.8952,-2.8975,-2.8998,-2.9021,-2.9115,-2.927,-2.9395,-2.9457,-2.9529,-2.9563,-2.9683,-2.9775,-2.9804,-3.0004,-3.0098,-3.0176,-2.9917,-3.0166,-3.0147,-3.0185,-3.0147,-3.0051,-3.0013,-3.0147,-3.0204,-3.0013,-2.2919,-2.2823,-2.2823,-2.2771,-2.269,-2.3079,-2.3182,-2.3032,-2.3017,-2.3339,-2.391,-2.4526,-2.5147,-2.577,-2.6394,-2.6794,-2.6846,-2.7041,-2.7004,-2.6865,-2.7054,-2.722,-2.6956,-2.6737,-2.6393,-2.6303,-2.5794,-2.5749,-2.6213,-2.6004,-2.563,-2.545,-2.5405,-2.5076,-2.4507,-2.4418,-2.4275,-2.4106,-2.3824,-2.3809,-2.4063,-2.4297,-2.443,-2.4552,-2.5335,-2.5815,-2.5905,-2.6349,-2.6504,-2.6504,-2.659,-2.6708,-2.6708,-2.6708,-2.6708,-2.6708,-2.6708,-2.6708,-2.6708,-2.6708,-2.6708,-2.6708,-2.6708,-2.6708,-2.6708,-2.6708,-2.6708,-2.6708,-2.6708,-2.6708,-2.6691,-2.6774,-2.6989,-2.7289,-2.7624,-2.7915,-2.8219,-2.8482,-2.8626,-2.8694,-2.8718,-2.8743,-2.8767,-2.8834,-2.8905,-2.8905,-2.897,-2.8952,-2.8975,-2.8975,-2.8998,-2.9021,-2.9067,-2.9138,-2.9249,-2.9394,-2.9363,-2.9288,-2.9263,-2.927,-2.9341,-2.9388,-2.9522,-2.945,-2.9369,-2.9172,-2.9631,-2.986,-2.9555,-2.944,-2.9631,-2.9555,-2.9249,-2.9192,-2.9134,-2.2714,-2.2294,-2.2294,-2.2246,-2.2271,-2.2492,-2.2653,-2.2763,-2.2921,-2.303,-2.3505,-2.4002,-2.4681,-2.5412,-2.6379,-2.6779,-2.6832,-2.6782,-2.6586,-2.6287,-2.6356,-2.6209,-2.5686,-2.5699,-2.5719,-2.56,-2.5046,-2.5166,-2.545,-2.548,-2.5226,-2.4791,-2.4687,-2.4418,-2.3924,-2.3879,-2.3684,-2.3696,-2.3638,-2.3638,-2.3782,-2.412,-2.4502,-2.4887,-2.5427,-2.5832,-2.5957,-2.6365,-2.6521,-2.6314,-2.6556,-2.6691,-2.6708,-2.6708,-2.6708,-2.6708,-2.6708,-2.6708,-2.6708,-2.6708,-2.6708,-2.6708,-2.6708,-2.6708,-2.6708,-2.6708,-2.6708,-2.6708,-2.6708,-2.6708,-2.6775,-2.6956,-2.7276,-2.7547,-2.7811,-2.8165,-2.8448,-2.8551,-2.8694,-2.8767,-2.8791,-2.8839,-2.8863,-2.8929,-2.8994,-2.8994,-2.8994,-2.8975,-2.8902,-2.8851,-2.8787,-2.8758,-2.8492,-2.8521,-2.8608,-2.8819,-2.8893,-2.8875,-2.881,-2.8741,-2.8731,-2.8651,-2.8313,-2.8242,-2.8275,-2.837,-2.8618,-2.8695,-2.8618,-2.8637,-2.8714,-2.8389,-2.7969,-2.8045,-2.8313,-2.2402,-2.2197,-2.2197,-2.2247,-2.2359,-2.2506,-2.2629,-2.2837,-2.2969,-2.3484,-2.4105,-2.4452,-2.5133,-2.592,-2.6659,-2.6779,-2.6759,-2.6557,-2.6316,-2.5927,-2.5859,-2.5678,-2.5473,-2.5148,-2.5,-2.4881,-2.4462,-2.4133,-2.4448,-2.4507,-2.4283,-2.4148,-2.4059,-2.3954,-2.361,-2.3595,-2.361,-2.3595,-2.3595,-2.3595,-2.3739,-2.4036,-2.441,-2.4639,-2.5275,-2.5631,-2.5921,-2.6312,-2.6521,-2.64,-2.664,-2.6691,-2.6708,-2.6708,-2.6708,-2.6708,-2.6708,-2.6708,-2.6708,-2.6708,-2.6708,-2.6708,-2.6708,-2.6708,-2.6708,-2.6708,-2.6708,-2.6708,-2.6708,-2.6708,-2.6758,-2.7021,-2.7338,-2.7654,-2.7982,-2.8281,-2.8551,-2.8669,-2.8785,-2.8834,-2.8808,-2.8704,-2.8636,-2.864,-2.87,-2.8828,-2.8828,-2.881,-2.8668,-2.8448,-2.8386,-2.8347,-2.8005,-2.7697,-2.7755,-2.7883,-2.7987,-2.8006,-2.7983,-2.7928,-2.7943,-2.7791,-2.7466,-2.7529,-2.7835,-2.7854,-2.772,-2.7816,-2.795,-2.7854,-2.772,-2.7504,-2.7319,-2.7625,-2.7835,-2.2197,-2.2197,-2.2197,-2.2247,-2.242,-2.2555,-2.2714,-2.2922,-2.2994,-2.359,-2.4381,-2.4838,-2.5577,-2.6361,-2.6486,-2.6445,-2.646,-2.6067,-2.58,-2.5589,-2.5393,-2.5116,-2.4774,-2.4462,-2.4328,-2.4328,-2.3969,-2.3744,-2.3684,-2.367,-2.3729,-2.3595,-2.3699,-2.364,-2.361,-2.3595,-2.3595,-2.3595,-2.3595,-2.3681,-2.3867,-2.4135,-2.4385,-2.4679,-2.5044,-2.5519,-2.5684,-2.6101,-2.64,-2.6435,-2.6607,-2.6708,-2.6708,-2.6708,-2.6708,-2.6708,-2.6708,-2.6708,-2.6708,-2.6708,-2.6708,-2.6708,-2.6708,-2.6708,-2.6708,-2.6708,-2.6708,-2.6708,-2.6708,-2.6742,-2.6875,-2.7085,-2.7413,-2.7742,-2.8037,-2.8352,-2.859,-2.8597,-2.8487,-2.8346,-2.8283,-2.8237,-2.8205,-2.8242,-2.837,-2.859,-2.8686,-2.8631,-2.8305,-2.7882,-2.7791,-2.771,-2.7567,-2.7288,-2.7372,-2.7339,-2.7301,-2.7153,-2.7144,-2.6977,-2.6918,-2.6859,-2.6637,-2.6905,-2.7217,-2.6866,-2.645,-2.6905,-2.7281,-2.6861,-2.6586,-2.6816,-2.6892,-2.7141,-2.7122,-2.2197,-2.2197,-2.2197,-2.2309,-2.242,-2.242,-2.2641,-2.2861,-2.2934,-2.3125,-2.3754,-2.4469,-2.5453,-2.5859,-2.5905,-2.585,-2.5821,-2.5183,-2.4801,-2.4473,-2.42,-2.4133,-2.3941,-2.3821,-2.3774,-2.3759,-2.3625,-2.361,-2.3595,-2.3595,-2.3595,-2.3595,-2.3595,-2.3595,-2.3595,-2.3595,-2.3595,-2.3595,-2.3595,-2.3824,-2.4036,-2.4302,-2.4533,-2.4958,-2.5176,-2.5329,-2.5503,-2.5961,-2.6191,-2.6227,-2.6521,-2.6708,-2.6708,-2.6708,-2.6708,-2.6708,-2.6708,-2.6708,-2.6708,-2.6708,-2.6708,-2.6708,-2.6708,-2.6708,-2.6708,-2.6708,-2.6708,-2.6708,-2.6742,-2.6842,-2.7038,-2.7244,-2.7504,-2.7787,-2.7995,-2.8116,-2.8306,-2.8336,-2.8205,-2.7917,-2.7738,-2.7636,-2.753,-2.7508,-2.764,-2.7842,-2.786,-2.7805,-2.7414,-2.7071,-2.6986,-2.6935,-2.7007,-2.7015,-2.7229,-2.711,-2.6711,-2.6479,-2.6422,-2.6065,-2.5723,-2.5685,-2.5953,-2.5868,-2.606,-2.5611,-2.5431,-2.6048,-2.6254,-2.565,-2.5497,-2.5941,-2.6037,-2.6075,-2.5929,-2.2197,-2.2197,-2.2197,-2.2247,-2.2309,-2.2359,-2.2567,-2.2763,-2.286,-2.3484,-2.4297,-2.5134,-2.5621,-2.5673,-2.5315,-2.5247,-2.5209,-2.4721,-2.4359,-2.4159,-2.397,-2.3688,-2.3538,-2.3523,-2.361,-2.3595,-2.3595,-2.3595,-2.3595,-2.3595,-2.3595,-2.3595,-2.3595,-2.3595,-2.3595,-2.3595,-2.3595,-2.3595,-2.3595,-2.3782,-2.3952,-2.4245,-2.4492,-2.4775,-2.5492,-2.5438,-2.5497,-2.6049,-2.6156,-2.6191,-2.6487,-2.6624,-2.6708,-2.6708,-2.6708,-2.6708,-2.6708,-2.6708,-2.6708,-2.6708,-2.6708,-2.6708,-2.6708,-2.6708,-2.6708,-2.6691,-2.6708,-2.6742,-2.6792,-2.6925,-2.694,-2.7213,-2.7535,-2.7819,-2.7888,-2.7893,-2.7876,-2.7894,-2.7574,-2.7138,-2.701,-2.6961,-2.6851,-2.6741,-2.6869,-2.7016,-2.7016,-2.693,-2.6556,-2.6302,-2.6263,-2.6197,-2.6271,-2.6185,-2.6338,-2.6181,-2.6001,-2.5903,-2.5765,-2.5535,-2.5297,-2.5278,-2.545,-2.5231,-2.5212,-2.5269,-2.5365,-2.5497,-2.5447,-2.5294,-2.5236,-2.5324,-2.5286,-2.5217,-2.5217,-2.1957,-2.1945,-2.1777,-2.1958,-2.2334,-2.225,-2.2482,-2.28,-2.2722,-2.3463,-2.4694,-2.5095,-2.5337,-2.5278,-2.4863,-2.4559,-2.448,-2.4136,-2.3996,-2.3821,-2.3688,-2.3538,-2.3566,-2.361,-2.3595,-2.3595,-2.3595,-2.3595,-2.3595,-2.3595,-2.3595,-2.3595,-2.3595,-2.3595,-2.3595,-2.3595,-2.3595,-2.3595,-2.3595,-2.3739,-2.3952,-2.4204,-2.4451,-2.463,-2.5146,-2.5169,-2.5192,-2.5594,-2.5994,-2.6085,-2.6314,-2.6657,-2.6708,-2.6708,-2.6708,-2.6708,-2.6708,-2.6708,-2.6708,-2.6708,-2.6708,-2.6708,-2.6708,-2.6708,-2.6691,-2.6725,-2.6775,-2.6691,-2.6808,-2.6824,-2.6753,-2.6922,-2.6975,-2.7094,-2.715,-2.7154,-2.7173,-2.7156,-2.672,-2.6279,-2.6227,-2.6117,-2.5733,-2.5605,-2.5978,-2.6036,-2.5892,-2.5894,-2.5816,-2.5637,-2.5634,-2.5565,-2.5525,-2.5392,-2.5236,-2.5447,-2.5646,-2.5581,-2.545,-2.5433,-2.5261,-2.5222,-2.5233,-2.5243,-2.5262,-2.5233,-2.531,-2.5405,-2.5367,-2.529,-2.5241,-2.5212,-2.5201,-2.5209,-2.5201,-2.1428,-2.1344,-2.0863,-2.1413,-2.242,-2.2016,-2.2246,-2.2797,-2.2552,-2.301,-2.396,-2.4072,-2.4362,-2.4558,-2.4196,-2.3934,-2.3897,-2.3476,-2.3303,-2.3363,-2.3555,-2.3509,-2.3538,-2.3566,-2.3595,-2.3595,-2.3595,-2.3595,-2.3595,-2.3595,-2.3595,-2.3595,-2.3595,-2.3595,-2.3595,-2.3595,-2.3595,-2.3595,-2.3595,-2.3824,-2.4094,-2.4219,-2.4359,-2.4564,-2.4775,-2.4775,-2.4759,-2.5275,-2.5631,-2.5615,-2.6139,-2.647,-2.659,-2.6624,-2.6657,-2.6708,-2.6708,-2.6708,-2.6708,-2.6708,-2.6708,-2.6708,-2.6708,-2.6708,-2.6725,-2.6741,-2.6673,-2.6454,-2.6537,-2.6475,-2.6433,-2.6365,-2.633,-2.6401,-2.6475,-2.6403,-2.6417,-2.6188,-2.5731,-2.5474,-2.5366,-2.5182,-2.4668,-2.4449,-2.4931,-2.5042,-2.4816,-2.4823,-2.5061,-2.5152,-2.5248,-2.5298,-2.5263,-2.5252,-2.5212,-2.5212,-2.5269,-2.5212,-2.5222,-2.5262,-2.5292,-2.5273,-2.5283,-2.5293,-2.5293,-2.5264,-2.5274,-2.5303,-2.5293,-2.5273,-2.5233,-2.5203,-2.5212,-2.5233,-2.5244,-2.0875,-2.0863,-2.067,-2.0964,-2.1489,-2.1296,-2.1592,-2.2189,-2.2382,-2.2792,-2.3324,-2.3409,-2.37,-2.3865,-2.3583,-2.331,-2.3314,-2.3436,-2.3246,-2.3378,-2.3494,-2.3538,-2.3566,-2.3566,-2.3595,-2.3595,-2.3595,-2.3595,-2.3595,-2.3595,-2.3595,-2.3595,-2.3595,-2.3595,-2.3595,-2.3595,-2.3595,-2.3595,-2.3595,-2.3739,-2.3967,-2.4067,-2.4193,-2.4359,-2.4574,-2.4574,-2.4385,-2.5082,-2.5313,-2.5237,-2.5799,-2.6087,-2.628,-2.635,-2.647,-2.6607,-2.6674,-2.6708,-2.6708,-2.6708,-2.6708,-2.6657,-2.6623,-2.6607,-2.6708,-2.625,-2.6098,-2.5959,-2.5785,-2.5644,-2.5524,-2.5614,-2.5685,-2.5967,-2.5996,-2.5706,-2.5557,-2.5104,-2.4722,-2.4668,-2.4558,-2.4652,-2.4358,-2.4247,-2.4598,-2.4797,-2.4678,-2.4794,-2.5017,-2.5053,-2.5108,-2.5206,-2.5248,-2.525,-2.5252,-2.5243,-2.5243,-2.5253,-2.5264,-2.5293,-2.5293,-2.5293,-2.5293,-2.5303,-2.5303,-2.5313,-2.5293,-2.5293,-2.5303,-2.5283,-2.5264,-2.5264,-2.5274,-2.5303,-2.5337,-2.0322,-2.0298,-2.0117,-2.0266,-2.0636,-2.0604,-2.1002,-2.1602,-2.1998,-2.2432,-2.292,-2.2748,-2.2904,-2.3195,-2.2982,-2.2843,-2.3023,-2.3171,-2.3246,-2.3378,-2.3538,-2.3538,-2.3566,-2.3595,-2.3595,-2.3595,-2.3595,-2.3595,-2.3595,-2.3595,-2.3595,-2.3595,-2.3595,-2.3595,-2.3595,-2.3595,-2.3595,-2.3595,-2.3595,-2.3638,-2.3739,-2.3839,-2.3925,-2.4151,-2.4343,-2.4451,-2.4533,-2.4799,-2.5198,-2.5098,-2.5389,-2.5783,-2.5999,-2.6229,-2.6385,-2.6607,-2.6404,-2.637,-2.6285,-2.5929,-2.581,-2.581,-2.6116,-2.6167,-2.6013,-2.5486,-2.5365,-2.5176,-2.4876,-2.4787,-2.4788,-2.4908,-2.5037,-2.5324,-2.5241,-2.4949,-2.4864,-2.4465,-2.4373,-2.4264,-2.4246,-2.4247,-2.4266,-2.4321,-2.4431,-2.4534,-2.4594,-2.479,-2.4955,-2.5019,-2.5068,-2.519,-2.5262,-2.5273,-2.5283,-2.5293,-2.5293,-2.5303,-2.5313,-2.5313,-2.5303,-2.5303,-2.5303,-2.5313,-2.5313,-2.5313,-2.5303,-2.5303,-2.5322,-2.5359,-2.5374,-2.5357,-2.535,-2.5382,-2.5425,-1.9768,-1.9672,-1.9203,-1.9377,-1.9952,-2.0098,-2.0614,-2.1329,-2.1328,-2.1891,-2.2818,-2.1862,-2.2127,-2.2764,-2.2477,-2.2555,-2.2888,-2.3082,-2.3171,-2.3246,-2.3451,-2.3494,-2.3538,-2.3566,-2.3595,-2.3595,-2.3595,-2.3595,-2.3595,-2.3595,-2.3595,-2.3595,-2.3595,-2.3595,-2.3595,-2.3595,-2.3595,-2.3595,-2.3595,-2.3638,-2.3696,-2.3696,-2.3882,-2.4067,-2.4193,-2.4261,-2.441,-2.4719,-2.4902,-2.5105,-2.5512,-2.5842,-2.6127,-2.6386,-2.6539,-2.6404,-2.5828,-2.5659,-2.5539,-2.5113,-2.4805,-2.489,-2.5198,-2.5031,-2.491,-2.4751,-2.4628,-2.4556,-2.4389,-2.4212,-2.4137,-2.4196,-2.4278,-2.4342,-2.4363,-2.4296,-2.4317,-2.4226,-2.4226,-2.4209,-2.4227,-2.4247,-2.4303,-2.4339,-2.441,-2.4478,-2.461,-2.4775,-2.4942,-2.5037,-2.5126,-2.5233,-2.5293,-2.5303,-2.5303,-2.5303,-2.5303,-2.5313,-2.5313,-2.5313,-2.5313,-2.5313,-2.5322,-2.5322,-2.5313,-2.5341,-2.537,-2.5369,-2.5401,-2.5434,-2.5452,-2.5444,-2.5422,-2.546,-2.5504,-1.9215,-1.9203,-1.9047,-1.916,-1.9429,-1.9568,-1.987,-2.0245,-2.0267,-2.0873,-2.1849,-2.1561,-2.1908,-2.2843,-2.2737,-2.2752,-2.2933,-2.3098,-2.3201,-2.3319,-2.3407,-2.3523,-2.3566,-2.3551,-2.3595,-2.3595,-2.3595,-2.3595,-2.3595,-2.3595,-2.3595,-2.3595,-2.3505,-2.3535,-2.3548,-2.3666,-2.3548,-2.3563,-2.3548,-2.3696,-2.3709,-2.3736,-2.3921,-2.3975,-2.4009,-2.4076,-2.4225,-2.4547,-2.476,-2.4948,-2.4874,-2.5007,-2.5342,-2.4979,-2.4746,-2.5118,-2.4929,-2.4893,-2.4859,-2.4734,-2.442,-2.3977,-2.4147,-2.4441,-2.4356,-2.4181,-2.3932,-2.3876,-2.3784,-2.3578,-2.3699,-2.3798,-2.3983,-2.4114,-2.4132,-2.417,-2.4209,-2.4209,-2.4209,-2.4228,-2.4247,-2.4303,-2.4339,-2.441,-2.4479,-2.4547,-2.4642,-2.4808,-2.4915,-2.5024,-2.5149,-2.5264,-2.5293,-2.5293,-2.5293,-2.5293,-2.5313,-2.5313,-2.5313,-2.5322,-2.5351,-2.5361,-2.5341,-2.5361,-2.538,-2.5418,-2.5466,-2.5462,-2.5468,-2.5499,-2.5505,-2.5505,-2.5511,-2.5556,-2.5561,-1.8987,-1.8987,-1.8987,-1.9052,-1.921,-1.9411,-1.9567,-1.9723,-1.9956,-2.0558,-2.1321,-2.114,-2.167,-2.2449,-2.2356,-2.2449,-2.2902,-2.3023,-2.3112,-2.3157,-2.3392,-2.3436,-2.348,-2.3551,-2.3595,-2.3595,-2.3595,-2.3595,-2.355,-2.355,-2.355,-2.3206,-2.3236,-2.3083,-2.293,-2.2821,-2.2923,-2.3092,-2.339,-2.3691,-2.3776,-2.3709,-2.3686,-2.3733,-2.3733,-2.3683,-2.3802,-2.4137,-2.428,-2.4345,-2.4107,-2.4341,-2.4647,-2.4329,-2.4305,-2.4635,-2.4326,-2.4254,-2.4151,-2.3886,-2.3591,-2.3363,-2.3254,-2.3442,-2.3545,-2.3408,-2.3271,-2.3196,-2.3058,-2.297,-2.3259,-2.3522,-2.3834,-2.4151,-2.417,-2.4209,-2.419,-2.4209,-2.4228,-2.4247,-2.4303,-2.4339,-2.4411,-2.4498,-2.4582,-2.4629,-2.4734,-2.4874,-2.4981,-2.5049,-2.516,-2.5264,-2.5284,-2.5293,-2.5293,-2.5332,-2.5332,-2.5341,-2.5351,-2.5379,-2.5388,-2.5388,-2.5379,-2.5418,-2.5456,-2.5502,-2.5517,-2.5546,-2.5557,-2.5568,-2.558,-2.5601,-2.5605,-2.5616,-2.5626,-1.8987,-1.8987,-1.8987,-1.9052,-1.9235,-1.9417,-1.9562,-1.9631,-2.0124,-2.0775,-2.1197,-2.0908,-2.1382,-2.2263,-2.2063,-2.2263,-2.2646,-2.2888,-2.2963,-2.2933,-2.329,-2.3407,-2.348,-2.3508,-2.349,-2.352,-2.3445,-2.3251,-2.334,-2.3191,-2.2877,-2.2622,-2.2592,-2.2454,-2.2149,-2.2099,-2.2199,-2.2415,-2.3,-2.3481,-2.3436,-2.3264,-2.297,-2.2998,-2.2863,-2.2717,-2.2886,-2.3076,-2.3294,-2.3398,-2.3588,-2.3835,-2.3907,-2.4059,-2.4258,-2.4198,-2.3733,-2.3608,-2.342,-2.3185,-2.2922,-2.277,-2.2693,-2.2848,-2.2942,-2.2976,-2.2907,-2.2997,-2.2954,-2.3157,-2.3427,-2.3628,-2.3876,-2.4095,-2.419,-2.4209,-2.4247,-2.4229,-2.4247,-2.4284,-2.434,-2.4394,-2.4446,-2.4515,-2.4613,-2.4689,-2.4832,-2.4962,-2.5049,-2.5107,-2.5192,-2.5293,-2.5303,-2.5341,-2.5351,-2.536,-2.5369,-2.5397,-2.5397,-2.5387,-2.5387,-2.5406,-2.5425,-2.5464,-2.553,-2.5546,-2.557,-2.5587,-2.5615,-2.5625,-2.5654,-2.5675,-2.5677,-2.5672,-2.5668,-1.8987,-1.8987,-1.8987,-1.9052,-1.9052,-1.9206,-1.9364,-1.9525,-2.0131,-2.0785,-2.1286,-2.1321,-2.1657,-2.2356,-2.2063,-2.2263,-2.2706,-2.2737,-2.2814,-2.3024,-2.3304,-2.3259,-2.339,-2.3342,-2.3266,-2.3011,-2.2832,-2.2682,-2.2443,-2.2278,-2.2158,-2.1964,-2.1919,-2.1779,-2.1594,-2.1588,-2.1665,-2.1766,-2.2217,-2.2583,-2.2491,-2.2476,-2.2347,-2.2432,-2.2322,-2.2304,-2.2452,-2.2738,-2.2929,-2.3051,-2.3145,-2.3093,-2.2892,-2.2994,-2.305,-2.301,-2.3021,-2.2963,-2.2904,-2.2804,-2.2693,-2.2659,-2.2685,-2.2712,-2.2703,-2.2685,-2.2738,-2.2919,-2.3102,-2.3371,-2.358,-2.375,-2.3896,-2.4075,-2.421,-2.4229,-2.4266,-2.4284,-2.4303,-2.4339,-2.4376,-2.4447,-2.4498,-2.458,-2.4657,-2.4785,-2.4956,-2.5088,-2.5182,-2.5234,-2.5284,-2.5351,-2.5369,-2.5378,-2.5387,-2.5406,-2.5395,-2.5415,-2.5415,-2.5404,-2.5393,-2.544,-2.5459,-2.5517,-2.5564,-2.5601,-2.5629,-2.5665,-2.5685,-2.5684,-2.5673,-2.57,-2.5701,-2.5679,-2.5698,-1.8987,-1.8987,-1.8987,-1.8987,-1.9052,-1.923,-1.9324,-1.9485,-1.9911,-2.0487,-2.0993,-2.1091,-2.1513,-2.2156,-2.1921,-2.2282,-2.2723,-2.2692,-2.2828,-2.3083,-2.2994,-2.2947,-2.2988,-2.2909,-2.2562,-2.2278,-2.2233,-2.2039,-2.1635,-2.168,-2.171,-2.1335,-2.1246,-2.1141,-2.0985,-2.0978,-2.1084,-2.1142,-2.136,-2.1397,-2.1406,-2.1565,-2.1719,-2.1861,-2.174,-2.1698,-2.1757,-2.1985,-2.2242,-2.2394,-2.2543,-2.2508,-2.2417,-2.2513,-2.2556,-2.2664,-2.2701,-2.2632,-2.2659,-2.2685,-2.2712,-2.2712,-2.2712,-2.2712,-2.2712,-2.2712,-2.2738,-2.2919,-2.3119,-2.3371,-2.3531,-2.3703,-2.3935,-2.4113,-2.4228,-2.4303,-2.4339,-2.4375,-2.4393,-2.4447,-2.4481,-2.4578,-2.467,-2.4855,-2.4923,-2.4987,-2.5152,-2.5215,-2.5303,-2.5341,-2.5378,-2.5395,-2.5395,-2.5404,-2.5385,-2.5404,-2.5412,-2.5412,-2.5432,-2.544,-2.5448,-2.5484,-2.553,-2.5573,-2.5621,-2.5653,-2.5691,-2.5703,-2.5703,-2.5684,-2.5684,-2.5702,-2.5703,-2.5703,-2.5703,-1.8987,-1.8987,-1.8987,-1.8987,-1.9064,-1.9308,-1.9401,-1.9433,-1.9708,-2.0067,-2.0459,-2.051,-2.0845,-2.1224,-2.1321,-2.2007,-2.226,-2.2073,-2.2341,-2.2513,-2.2306,-2.2327,-2.2188,-2.1988,-2.1789,-2.1575,-2.141,-2.1365,-2.1186,-2.1156,-2.0932,-2.0632,-2.0453,-2.0303,-1.9978,-1.9899,-2.0137,-2.0335,-2.0457,-2.0389,-2.0547,-2.0828,-2.109,-2.1073,-2.0936,-2.076,-2.086,-2.1023,-2.134,-2.1606,-2.19,-2.2116,-2.2237,-2.2388,-2.2525,-2.2632,-2.2685,-2.2685,-2.2685,-2.2685,-2.2712,-2.2738,-2.2712,-2.2738,-2.2764,-2.2816,-2.2842,-2.2985,-2.3206,-2.3412,-2.3594,-2.3768,-2.4014,-2.4171,-2.4266,-2.4358,-2.4411,-2.4465,-2.45,-2.4517,-2.4613,-2.47,-2.4855,-2.5037,-2.5141,-2.5214,-2.5293,-2.536,-2.5415,-2.5415,-2.5432,-2.544,-2.544,-2.5421,-2.5401,-2.5421,-2.5448,-2.5468,-2.5476,-2.5503,-2.553,-2.555,-2.5587,-2.5595,-2.5643,-2.5695,-2.5703,-2.5703,-2.5703,-2.5703,-2.5703,-2.5703,-2.5703,-2.5703,-2.5703,-1.8987,-1.8987,-1.8987,-1.8987,-1.9064,-1.9308,-1.9413,-1.942,-1.9656,-1.985,-1.9902,-2.0029,-2.0434,-2.1355,-2.0894,-2.1131,-2.1471,-2.1321,-2.1354,-2.1547,-2.153,-2.1676,-2.1649,-2.1406,-2.1281,-2.0976,-2.0528,-2.0168,-2.0453,-2.0303,-2.0079,-1.9974,-1.9944,-1.9891,-1.9831,-1.9797,-1.9869,-2.0025,-2.0096,-2.0166,-2.027,-2.0458,-2.0458,-2.0462,-2.0416,-2.0407,-2.0426,-2.0426,-2.0527,-2.0745,-2.1308,-2.1853,-2.2158,-2.2426,-2.2579,-2.2659,-2.2712,-2.2712,-2.2712,-2.2712,-2.2738,-2.2825,-2.2825,-2.2893,-2.2927,-2.3028,-2.3109,-2.3224,-2.345,-2.3689,-2.3876,-2.4036,-2.4247,-2.4303,-2.4412,-2.4465,-2.45,-2.4515,-2.4549,-2.4613,-2.47,-2.4799,-2.4904,-2.5053,-2.5184,-2.5264,-2.534,-2.5404,-2.5468,-2.5476,-2.5484,-2.5476,-2.5456,-2.5484,-2.5484,-2.5484,-2.5484,-2.5503,-2.5519,-2.5515,-2.5553,-2.5627,-2.5653,-2.5654,-2.5675,-2.5697,-2.5703,-2.5703,-2.5703,-2.5703,-2.5703,-2.5703,-2.5703,-2.5703,-2.5703]}]]